[[{"header":{"parameterUnit":"m.s-1","parameterCategory":1,"la1":31.0,"la2":29.5877,"lo1":-88.7671,"lo2":-86.6584,"dx":0.0162,"dy":0.0185,"nx":115,"ny":88,"refTime":"2022-11-07T18:00:00:Z","depth":0,"parameterNumber":2,"parameterNumberName":"U-component_of_WINDS"},"data":[0.0,0.0,0.0,0.0,0.0,0.0,0.0,0.0,0.0,0.0,0.0,0.0,0.0,0.0,0.0,0.0,0.0,0.0,0.0,0.0,0.0,0.0,0.0,0.0,0.0,0.0,0.0,0.0,0.0,0.0,0.0,0.0,0.0,0.0,0.0,0.0,0.0,0.0,0.0,0.0,0.0,0.0,0.0,0.0,0.0,0.0,0.0,0.0,0.0,0.0,0.0,0.0,0.0,0.0,0.0,0.0,0.0,0.0,0.0,0.0,0.0,0.0,0.0,0.0,0.0,0.0,0.0,0.0,0.0,0.0,0.0,0.0,0.0,0.0,0.0,0.0,0.0,0.0,0.0,0.0,0.0,0.0,0.0,0.0,0.0,0.0,0.0,0.0,0.0,0.0,0.0,0.0,0.0,0.0,0.0,0.0,0.0,0.0,0.0,0.0,0.0,0.0,0.0,0.0,0.0,0.0,0.0,0.0,0.0,0.0,0.0,0.0,0.0,0.0,0.0,0.0,0.0,0.0,0.0,0.0,0.0,0.0,0.0,0.0,0.0,0.0,0.0,0.0,0.0,0.0,0.0,0.0,0.0,0.0,0.0,0.0,0.0,0.0,0.0,0.0,0.0,0.0,0.0,0.0,0.0,0.0,0.0,0.0,0.0,0.0,0.0,0.0,0.0,0.0,0.0,0.0,0.0,0.0,0.0,0.0,0.0,0.0,0.0,0.0,0.0,0.0,0.0,0.0,0.0,0.0,0.0,0.0,0.0,0.0,0.0,0.0,0.0,0.0,0.0,0.0,0.0,0.0,0.0,0.0,0.0,0.0,0.0,0.0,0.0,0.0,0.0,0.0,0.0,0.0,0.0,0.0,0.0,0.0,0.0,0.0,0.0,0.0,0.0,0.0,0.0,0.0,0.0,0.0,0.0,0.0,0.0,0.0,0.0,0.0,0.0,0.0,0.0,0.0,0.0,0.0,0.0,0.0,0.0,0.0,0.0,0.0,0.0,0.0,0.0,0.0,0.0,0.0,0.0,0.0,0.0,0.0,0.0,0.0,0.0,0.0,0.0,0.0,0.0,0.0,0.0,0.0,0.0,0.0,0.0,0.0,0.0,0.0,0.0,0.0,0.0,0.0,0.0,0.0,0.0,0.0,0.0,0.0,0.0,0.0,0.0,0.0,0.0,0.0,0.0,0.0,0.0,0.0,0.0,0.0,0.0,0.0,0.0,0.0,0.0,0.0,0.0,0.0,0.0,0.0,0.0,0.0,0.0,0.0,0.0,0.0,0.0,0.0,0.0,0.0,0.0,0.0,0.0,0.0,0.0,0.0,0.0,0.0,0.0,0.0,0.0,0.0,0.0,0.0,0.0,0.0,0.0,0.0,0.0,0.0,0.0,0.0,0.0,0.0,0.0,0.0,0.0,0.0,0.0,0.0,0.0,0.0,0.0,0.0,0.0,0.0,0.0,0.0,0.0,0.0,0.0,0.0,0.0,0.0,0.0,0.0,0.0,0.0,0.0,0.0,0.0,0.0,0.0,0.0,0.0,0.0,0.0,0.0,0.0,0.0,0.0,0.0,0.0,0.0,0.0,0.0,0.0,0.0,0.0,0.0,0.0,0.0,0.0,0.0,0.0,0.0,0.0,0.0,0.0,0.0,0.0,0.0,0.0,0.0,0.0,0.0,0.0,0.0,0.0,0.0,0.0,0.0,0.0,0.0,0.0,0.0,0.0,0.0,0.0,0.0,0.0,0.0,0.0,0.0,0.0,0.0,0.0,0.0,0.0,0.0,0.0,0.0,0.0,0.0,0.0,0.0,0.0,0.0,0.0,0.0,0.0,0.0,0.0,0.0,0.0,0.0,0.0,0.0,0.0,0.0,0.0,0.0,0.0,0.0,0.0,0.0,0.0,0.0,0.0,0.0,0.0,0.0,0.0,0.0,0.0,0.0,0.0,0.0,0.0,0.0,0.0,0.0,0.0,0.0,0.0,0.0,0.0,0.0,0.0,0.0,0.0,0.0,0.0,0.0,0.0,0.0,0.0,0.0,0.0,0.0,0.0,0.0,0.0,0.0,0.0,0.0,0.0,0.0,0.0,0.0,0.0,0.0,0.0,0.0,0.0,0.0,0.0,0.0,0.0,0.0,0.0,0.0,0.0,0.0,0.0,0.0,0.0,0.0,0.0,0.0,0.0,0.0,0.0,0.0,0.0,0.0,0.0,0.0,0.0,0.0,0.0,0.0,0.0,0.0,0.0,0.0,0.0,0.0,0.0,0.0,0.0,0.0,0.0,0.0,0.0,0.0,0.0,0.0,0.0,0.0,0.0,0.0,0.0,0.0,0.0,0.0,0.0,0.0,0.0,0.0,0.0,0.0,0.0,0.0,0.0,0.0,0.0,0.0,0.0,0.0,0.0,0.0,0.0,0.0,0.0,0.0,0.0,0.0,0.0,0.0,0.0,0.0,0.0,0.0,0.0,0.0,0.0,0.0,0.0,0.0,0.0,0.0,0.0,0.0,0.0,0.0,0.0,0.0,0.0,0.0,0.0,0.0,0.0,0.0,0.0,0.0,0.0,0.0,0.0,0.0,0.0,0.0,0.0,0.0,0.0,0.0,0.0,0.0,0.0,0.0,0.0,0.0,0.0,0.0,0.0,0.0,0.0,0.0,0.0,0.0,0.0,0.0,0.0,0.0,0.0,0.0,0.0,0.0,0.0,0.0,0.0,0.0,0.0,0.0,0.0,0.0,0.0,0.0,0.0,0.0,0.0,0.0,0.0,0.0,0.0,0.0,0.0,0.0,0.0,0.0,0.0,0.0,0.0,0.0,0.0,0.0,0.0,0.0,0.0,0.0,0.0,0.0,0.0,0.0,0.0,0.0,0.0,0.0,0.0,0.0,0.0,0.0,0.0,0.0,0.0,0.0,0.0,0.0,0.0,0.0,0.0,0.0,0.0,0.0,0.0,0.0,0.0,0.0,0.0,0.0,0.0,0.0,0.0,0.0,0.0,0.0,0.0,0.0,0.0,0.0,0.0,0.0,0.0,0.0,0.0,0.0,0.0,0.0,0.0,0.0,0.0,0.0,0.0,0.0,0.0,0.0,0.0,0.0,0.0,0.0,0.0,0.0,0.0,0.0,0.0,0.0,0.0,0.0,0.0,0.0,0.0,0.0,0.0,0.0,0.0,0.0,0.0,0.0,0.0,0.0,0.0,0.0,0.0,0.0,0.0,0.0,0.0,0.0,0.0,0.0,0.0,0.0,0.0,0.0,0.0,0.0,0.0,0.0,0.0,0.0,0.0,0.0,0.0,0.0,0.0,0.0,0.0,0.0,0.0,0.0,0.0,0.0,0.0,0.0,0.0,0.0,0.0,0.0,0.0,0.0,0.0,0.0,0.0,0.0,0.0,0.0,0.0,0.0,0.0,0.0,0.0,0.0,0.0,0.0,0.0,0.0,0.0,0.0,0.0,0.0,0.0,0.0,0.0,0.0,0.0,0.0,0.0,0.0,0.0,0.0,0.0,0.0,0.0,0.0,0.0,0.0,0.0,0.0,0.0,0.0,0.0,0.0,0.0,0.0,0.0,0.0,0.0,0.0,0.0,0.0,0.0,0.0,0.0,0.0,0.0,0.0,0.0,0.0,0.0,0.0,0.0,0.0,0.0,0.0,0.0,0.0,0.0,0.0,0.0,0.0,0.0,0.0,0.0,0.0,0.0,0.0,0.0,0.0,0.0,0.0,0.0,0.0,0.0,0.0,0.0,0.0,0.0,0.0,0.0,0.0,0.0,0.0,0.0,0.0,0.0,0.0,0.0,0.0,0.0,0.0,0.0,0.0,0.0,0.0,0.0,0.0,0.0,0.0,0.0,0.0,0.0,0.0,0.0,0.0,0.0,0.0,0.0,0.0,0.0,0.0,0.0,0.0,0.0,0.0,0.0,0.0,0.0,0.0,0.0,0.0,0.0,0.0,0.0,0.0,0.0,0.0,0.0,0.0,0.0,0.0,0.0,0.0,0.0,0.0,0.0,0.0,0.0,0.0,0.0,0.0,0.0,0.0,0.0,0.0,0.0,0.0,0.0,0.0,0.0,0.0,0.0,0.0,0.0,0.0,0.0,0.0,0.0,0.0,0.0,0.0,0.0,0.0,0.0,0.0,0.0,0.0,0.0,0.0,0.0,0.0,0.0,0.0,0.0,0.0,0.0,0.0,0.0,0.0,0.0,0.0,0.0,0.0,0.0,0.0,0.0,0.0,0.0,0.0,1.4639,0.0,0.0,0.0,1.2922,0.0,0.0,0.0,0.0,0.0,0.0,0.0,0.0,0.0,0.0,0.0,0.0,0.0,0.0,0.0,0.0,0.0,0.0,0.0,0.0,0.0,0.0,0.0,0.0,0.0,0.0,0.0,0.0,0.0,0.0,0.0,0.0,0.0,0.0,0.0,0.0,0.0,0.0,0.0,0.0,0.0,0.0,0.0,0.0,0.0,0.0,0.0,0.0,0.0,0.0,0.0,0.0,0.0,0.0,0.0,0.0,0.0,0.0,0.0,0.0,0.0,0.0,0.0,0.0,0.0,0.0,0.0,0.0,0.0,0.0,0.0,0.0,0.0,0.0,0.0,0.0,0.0,0.0,0.0,0.0,0.0,0.0,0.0,0.0,0.0,0.0,0.0,0.0,0.0,0.0,0.0,0.0,0.0,0.0,0.0,0.0,0.0,0.0,0.0,0.0,0.0,0.0,0.0,0.0,0.0,0.0,0.0,0.0,0.0,0.0,1.49,1.48,1.4484,1.3861,1.2954,0.0,0.0,0.0,0.0,0.0,0.0,0.0,0.0,0.0,0.0,0.0,0.0,0.0,0.0,0.0,0.0,0.0,0.0,0.0,0.0,0.0,0.0,0.0,0.0,0.0,0.0,0.0,0.0,0.0,0.0,0.0,0.0,0.0,0.0,0.0,0.0,0.0,0.0,0.0,0.0,0.0,0.0,0.0,0.0,0.0,0.0,0.0,0.0,0.0,0.0,0.0,0.0,0.0,0.0,0.0,0.0,0.0,0.0,0.0,0.0,0.0,0.0,0.0,0.0,0.0,0.0,0.0,0.0,0.0,0.0,0.0,0.0,0.0,0.0,0.0,0.0,0.0,0.0,0.0,0.0,0.0,0.0,0.0,0.0,0.0,0.0,0.0,0.0,0.0,0.0,0.0,0.0,0.0,0.0,0.0,0.0,0.0,0.0,0.0,0.0,0.0,0.0,0.0,0.0,0.0,0.0,0.0,0.0,0.0,0.0,0.0,0.0,1.5004,1.4283,1.3086,0.0,0.0,0.0,0.0,0.0,0.0,0.0,0.0,0.0,0.0,0.0,0.0,0.0,0.0,0.0,0.0,0.0,0.0,0.0,0.0,0.0,0.0,0.0,0.0,0.0,0.0,0.0,0.0,0.0,0.0,0.0,0.0,0.0,0.0,0.0,0.0,0.0,0.0,0.0,0.0,0.0,0.0,0.0,0.0,0.0,0.0,0.0,0.0,0.0,0.0,0.0,0.0,0.0,0.0,0.0,0.0,0.0,0.0,0.0,0.0,0.0,0.0,0.0,0.0,0.0,0.0,0.0,0.0,0.0,0.0,0.0,0.0,0.0,0.0,0.0,0.0,0.0,0.0,0.0,0.0,0.0,0.0,0.0,0.0,0.0,0.0,0.0,0.0,0.0,0.0,0.0,0.0,0.0,0.0,0.0,0.0,0.0,0.0,0.0,0.0,0.0,0.0,0.0,0.0,0.0,0.0,0.0,0.0,0.0,0.0,1.4179,1.5774,1.5308,0.0,1.3195,0.0,0.0,0.0,0.0,0.0,0.0,0.0,0.0,0.0,0.0,0.0,0.0,0.0,0.0,0.0,0.0,0.0,0.0,0.0,0.0,0.0,0.0,0.0,0.0,0.0,0.0,0.0,0.0,0.0,0.0,0.0,0.0,0.0,0.0,0.0,0.0,0.0,0.0,0.0,0.0,0.0,0.0,0.0,0.0,0.0,0.0,0.0,0.0,0.0,0.0,0.0,0.0,0.0,0.0,0.0,0.0,0.0,0.0,0.0,0.0,0.0,0.0,0.0,0.0,0.0,0.0,0.0,0.0,0.0,0.0,0.0,0.0,0.0,0.0,0.0,0.0,0.0,0.0,0.0,0.0,0.0,0.0,0.0,0.0,0.0,0.0,0.0,0.0,0.0,0.0,0.0,0.0,0.0,0.0,0.0,0.0,0.0,0.0,0.0,0.0,0.0,0.0,0.0,0.0,0.0,0.0,0.0,0.0,0.0,0.0,1.4715,1.5567,1.4615,1.363,0.0,0.0,0.0,0.0,0.0,0.0,0.0,0.0,0.0,0.0,0.0,0.0,0.0,0.0,0.0,0.0,0.0,0.0,0.0,0.0,0.0,0.0,0.0,0.0,0.0,0.0,0.0,0.0,0.0,0.0,0.0,0.0,0.0,0.0,0.0,0.0,0.0,0.0,0.0,0.0,0.0,0.0,0.0,0.0,0.0,0.0,0.0,0.0,0.0,0.0,0.0,0.0,0.0,0.0,0.0,0.0,0.0,0.0,0.0,0.0,0.0,0.0,0.0,0.0,0.0,0.0,0.0,0.0,0.0,0.0,0.0,0.0,0.0,0.0,0.0,0.0,0.0,0.0,0.0,0.0,0.0,0.0,0.0,0.0,0.0,0.0,0.0,0.0,0.0,0.0,0.0,0.0,0.0,0.0,0.0,0.0,0.0,0.0,0.0,0.0,0.0,0.0,0.0,0.0,0.0,0.0,0.0,0.0,0.0,0.0,1.4759,1.5268,1.5484,1.4449,1.3361,1.2349,0.0,0.0,0.0,0.0,0.0,0.0,0.0,0.0,0.0,0.0,0.0,0.0,0.0,0.0,0.0,0.0,0.0,0.0,0.0,0.0,0.0,0.0,0.0,0.0,0.0,0.0,0.0,0.0,0.0,0.0,0.0,0.0,0.0,0.0,0.0,0.0,0.0,0.0,0.0,0.0,0.0,0.0,0.0,0.0,0.0,0.0,0.0,0.0,0.0,0.0,0.0,0.0,0.0,0.0,0.0,0.0,0.0,0.0,0.0,0.0,0.0,0.0,0.0,0.0,0.0,0.0,0.0,0.0,0.0,0.0,0.0,0.0,0.0,0.0,0.0,0.0,0.0,0.0,0.0,0.0,0.0,0.0,0.0,0.0,0.0,0.0,0.0,0.0,0.0,0.0,0.0,0.0,0.0,0.0,0.0,0.0,0.0,0.0,0.0,0.0,0.0,0.0,0.0,0.0,0.0,0.0,0.0,0.0,1.5744,1.5592,1.5628,1.5951,1.5296,1.4095,0.0,0.0,0.0,0.0,0.0,0.0,0.0,0.0,0.0,0.0,0.0,0.0,0.0,0.0,0.0,0.0,0.0,0.0,0.0,0.0,0.0,0.0,0.0,0.0,0.0,0.0,0.0,0.0,0.0,0.0,0.0,0.0,0.0,0.0,0.0,0.0,0.0,0.0,0.0,0.0,0.0,0.0,0.0,0.0,0.0,0.0,0.0,0.0,0.0,0.0,0.0,0.0,0.0,0.0,0.0,0.0,0.0,0.0,0.0,0.0,0.0,0.0,0.0,0.0,0.0,0.0,0.0,0.0,0.0,0.0,0.0,0.0,0.0,0.0,0.0,0.0,0.0,0.0,0.0,0.0,0.0,0.0,0.0,0.0,0.0,0.0,0.0,0.0,0.0,0.0,0.0,0.0,0.0,0.0,0.0,0.0,0.0,0.0,0.0,0.0,0.0,0.0,0.0,0.0,0.0,0.0,0.0,0.0,0.0,1.4409,1.4631,1.5287,1.6332,1.4525,1.3359,0.0,0.0,0.0,0.0,0.0,0.0,0.0,0.0,0.0,0.0,0.0,0.0,0.0,0.0,0.0,0.0,0.0,0.0,0.0,0.0,0.0,0.0,0.0,0.0,0.0,0.0,0.0,0.0,0.0,0.0,0.0,0.0,0.0,0.0,0.0,0.0,0.0,0.0,0.0,0.0,0.0,0.0,0.0,0.0,0.0,0.0,0.0,0.0,0.0,0.0,0.0,0.0,0.0,0.0,0.0,0.0,0.0,0.0,0.0,0.0,0.0,0.0,0.0,0.0,0.0,0.0,0.0,0.0,0.0,0.0,0.0,0.0,0.0,0.0,0.0,0.0,0.0,0.0,0.0,0.0,0.0,0.0,0.0,0.0,0.0,0.0,0.0,0.0,0.0,0.0,0.0,0.0,0.0,0.0,0.0,0.0,0.0,0.0,0.0,0.0,0.0,0.0,0.0,0.0,0.0,0.0,0.0,0.0,0.0,1.4827,1.5401,1.5949,1.6326,1.4418,1.3161,0.0,0.0,0.0,0.0,0.0,0.0,0.0,0.0,0.0,0.0,0.0,0.0,0.0,0.0,0.0,0.0,0.0,0.0,0.0,0.0,0.0,0.0,0.0,0.0,0.0,0.0,0.0,0.0,0.0,0.0,0.0,0.0,0.0,0.0,0.0,0.0,0.0,0.0,0.0,0.0,0.0,0.0,0.0,0.0,0.0,0.0,0.0,0.0,0.0,0.0,0.0,0.0,0.0,0.0,0.0,0.0,0.0,0.0,0.0,0.0,0.0,0.0,0.0,0.0,0.0,0.0,0.0,0.0,0.0,0.0,0.0,0.0,0.0,0.0,0.0,0.0,0.0,0.0,0.0,0.0,0.0,0.0,0.0,0.0,0.0,0.0,0.0,0.0,0.0,0.0,0.0,0.0,0.0,0.0,0.0,0.0,0.0,0.0,0.0,0.0,0.0,0.0,0.0,0.0,0.0,0.0,0.0,0.0,1.5113,1.7341,1.8085,1.7608,1.6005,1.5209,1.3564,0.0,0.0,0.0,0.0,0.0,0.0,0.0,0.0,0.0,0.0,0.0,0.0,0.0,0.0,0.0,0.0,0.0,0.0,0.0,0.0,0.0,0.0,0.0,0.0,0.0,0.0,0.0,0.0,0.0,0.0,0.0,0.0,0.0,0.0,0.0,0.0,0.0,0.0,0.0,0.0,0.0,0.0,0.0,0.0,0.0,0.0,0.0,0.0,0.0,0.0,0.0,0.0,0.0,0.0,0.0,0.0,0.0,0.0,0.0,0.0,0.0,0.0,0.0,0.0,0.0,0.0,0.0,0.0,0.0,0.0,0.0,0.0,0.0,0.0,0.0,0.0,0.0,0.0,0.0,0.0,0.0,0.0,0.0,0.0,0.0,0.0,0.0,0.0,0.0,0.0,0.0,0.0,0.0,0.0,0.0,0.0,0.0,0.0,0.0,0.0,0.0,0.0,0.0,0.0,0.0,0.0,0.0,0.0,0.0,1.6405,1.7288,1.7418,1.6587,1.513,1.3806,0.0,0.0,0.0,0.0,0.0,0.0,0.0,0.0,0.0,0.0,0.0,0.0,0.0,0.0,0.0,0.0,0.0,0.0,0.0,0.0,0.0,0.0,0.0,0.0,0.0,0.0,0.0,0.0,0.0,0.0,0.0,0.0,0.0,0.0,0.0,0.0,0.0,0.0,0.0,0.0,0.0,0.0,0.0,0.0,0.0,0.0,0.0,0.0,0.0,0.0,0.0,0.0,0.0,0.0,0.0,0.0,0.0,0.0,0.0,0.0,0.0,0.0,0.0,0.0,0.0,0.0,0.0,0.0,0.0,0.0,0.0,0.0,0.0,0.0,0.0,0.0,0.0,0.0,0.0,0.0,0.0,0.0,0.0,0.0,0.0,0.0,0.0,0.0,0.0,0.0,0.0,0.0,0.0,0.0,0.0,0.0,0.0,0.0,0.0,0.0,0.0,0.0,0.0,0.0,0.0,0.0,0.0,0.0,0.0,1.8014,1.878,1.8659,1.7476,1.5997,1.465,1.3457,0.0,0.0,0.0,0.0,0.0,0.0,0.0,0.0,0.0,0.0,0.0,0.0,0.0,0.0,0.0,0.0,0.0,0.0,0.0,0.0,0.0,0.0,0.0,0.0,0.0,0.0,0.0,0.0,0.0,0.0,0.0,0.0,0.0,0.0,0.0,0.0,0.0,0.0,0.0,0.0,0.0,0.0,0.0,0.0,0.0,0.0,0.0,0.0,0.0,0.0,0.0,0.0,0.0,0.0,0.0,0.0,0.0,0.0,0.0,0.0,0.0,0.0,0.0,0.0,0.0,0.0,0.0,0.0,0.0,0.0,0.0,0.0,0.0,0.0,0.0,0.0,0.0,0.0,0.0,0.0,0.0,0.0,0.0,0.0,0.0,0.0,0.0,0.0,0.0,0.0,0.0,0.0,0.0,0.0,0.0,0.0,0.0,0.0,0.0,0.0,0.0,0.0,0.0,0.0,0.0,0.0,0.0,0.0,2.1511,2.2163,2.1217,1.8588,1.7612,1.5947,0.0,0.0,0.0,0.0,0.0,0.0,0.0,0.0,0.0,0.0,0.0,0.0,0.0,0.0,0.0,0.0,0.0,0.0,0.0,0.0,0.0,0.0,0.0,0.0,0.0,0.0,0.0,0.0,0.0,0.0,0.0,0.0,0.0,0.0,0.0,0.0,0.0,0.0,0.0,0.0,0.0,0.0,0.0,0.0,0.0,0.0,0.0,0.0,0.0,0.0,0.0,0.0,0.0,0.0,0.0,0.0,0.0,0.0,0.0,0.0,0.0,0.0,0.0,0.0,0.0,0.0,0.0,0.0,0.0,0.0,0.0,0.0,0.0,0.0,0.0,0.0,0.0,0.0,0.0,0.0,0.0,0.0,0.0,0.0,0.0,0.0,0.0,0.0,0.0,0.0,0.0,0.0,0.0,0.0,0.0,0.0,0.0,0.0,0.0,0.0,0.0,0.0,0.0,0.0,0.0,0.0,0.0,0.0,0.0,2.315,2.444,2.348,2.0138,1.8293,1.6423,0.0,0.0,0.0,0.0,0.0,0.0,0.0,0.0,0.0,0.0,0.0,0.0,0.0,0.0,0.0,0.0,0.0,0.0,0.0,0.0,0.0,0.0,0.0,0.0,0.0,0.0,0.0,0.0,0.0,0.0,0.0,0.0,0.0,0.0,0.0,0.0,0.0,0.0,0.0,0.0,0.0,0.0,0.0,0.0,0.0,0.0,0.0,0.0,0.0,0.0,0.0,0.0,0.0,0.0,0.0,0.0,0.0,0.0,0.0,0.0,0.0,0.0,0.0,0.0,0.0,0.0,0.0,0.0,0.0,0.0,0.0,0.0,0.0,0.0,0.0,0.0,0.0,0.0,0.0,0.0,0.0,0.0,0.0,0.0,0.0,0.0,0.0,0.0,0.0,0.0,0.0,0.0,0.0,0.0,0.0,0.0,0.0,0.0,0.0,0.0,0.0,0.0,0.0,0.0,0.0,0.0,0.0,0.0,2.3071,2.5081,2.5682,2.4884,2.2678,2.0056,1.7826,0.0,0.0,0.0,0.0,0.0,0.0,0.0,0.0,0.0,0.0,0.0,0.0,0.0,0.0,0.0,0.0,0.0,0.0,0.0,0.0,0.0,0.0,0.0,0.0,0.0,0.0,0.0,0.0,0.0,0.0,0.0,0.0,0.0,0.0,0.0,0.0,0.0,0.0,0.0,0.0,0.0,0.0,0.0,0.0,0.0,0.0,0.0,0.0,0.0,0.0,0.0,0.0,0.0,0.0,0.0,0.0,0.0,0.0,0.0,0.0,0.0,0.0,0.0,0.0,0.0,0.0,0.0,0.0,0.0,0.0,0.0,0.0,0.0,0.0,0.0,0.0,0.0,0.0,0.0,0.0,0.0,0.0,0.0,0.0,0.0,0.0,0.0,0.0,0.0,0.0,0.0,0.0,0.0,0.0,0.0,0.0,0.0,0.0,0.0,0.0,0.0,0.0,0.0,0.0,0.0,0.0,0.0,0.0,2.4542,2.6924,2.6512,2.6058,2.5553,2.2202,1.9561,0.0,0.0,0.0,0.0,0.0,0.0,0.0,0.0,0.0,0.0,0.0,0.0,0.0,0.0,0.0,0.0,0.0,0.0,0.0,0.0,0.0,0.0,0.0,0.0,0.0,0.0,0.0,0.0,0.0,0.0,0.0,0.0,0.0,0.0,0.0,0.0,0.0,0.0,0.0,0.0,0.0,0.0,0.0,0.0,0.0,0.0,0.0,0.0,0.0,0.0,0.0,0.0,0.0,0.0,0.0,0.0,0.0,0.0,0.0,0.0,0.0,0.0,0.0,0.0,0.0,0.0,0.0,0.0,0.0,0.0,0.0,0.0,0.0,0.0,0.0,0.0,0.0,0.0,0.0,0.0,0.0,0.0,0.0,0.0,0.0,0.0,0.0,0.0,0.0,0.0,0.0,0.0,0.0,0.0,0.0,0.0,0.0,0.0,0.0,0.0,0.0,0.0,0.0,0.0,0.0,0.0,0.0,0.0,2.68,2.7515,2.8729,2.8628,2.7079,2.2921,1.9876,0.0,0.0,0.0,0.0,0.0,0.0,0.0,0.0,0.0,0.0,0.0,0.0,0.0,0.0,0.0,0.0,0.0,0.0,0.0,0.0,0.0,0.0,0.0,0.0,0.0,0.0,0.0,0.0,0.0,0.0,0.0,0.0,0.0,0.0,0.0,0.0,0.0,0.0,0.0,0.0,0.0,0.0,0.0,0.0,0.0,0.0,0.0,0.0,1.8578,0.0,0.0,0.0,0.0,0.0,0.0,0.0,0.0,0.0,0.0,0.0,0.0,0.0,0.0,0.0,0.0,0.0,0.0,0.0,0.0,0.0,0.0,0.0,0.0,0.0,0.0,0.0,0.0,0.0,0.0,0.0,0.0,0.0,0.0,0.0,0.0,0.0,0.0,0.0,0.0,0.0,0.0,0.0,0.0,0.0,0.0,0.0,0.0,0.0,0.0,0.0,0.0,0.0,0.0,0.0,0.0,0.0,0.0,0.0,2.7507,2.7988,2.951,2.9355,2.7342,2.4381,2.1616,0.0,0.0,0.0,0.0,0.0,0.0,0.0,0.0,0.0,0.0,0.0,0.0,0.0,0.0,0.0,0.0,0.0,0.0,0.0,0.0,0.0,0.0,0.0,0.0,0.0,0.0,0.0,0.0,0.0,0.0,0.0,0.0,0.0,0.0,0.0,0.0,0.0,0.0,0.0,0.0,0.0,0.0,0.0,0.0,0.0,0.0,0.0,0.0,0.0,0.0,0.0,0.0,0.0,0.0,0.0,0.0,0.0,0.0,0.0,0.0,0.0,0.0,0.0,0.0,0.0,0.0,0.0,0.0,0.0,0.0,0.0,0.0,0.0,0.0,0.0,0.0,0.0,0.0,0.0,0.0,0.0,0.0,0.0,0.0,0.0,0.0,0.0,0.0,0.0,0.0,0.0,0.0,0.0,0.0,0.0,0.0,0.0,0.0,0.0,0.0,0.0,0.0,0.0,0.0,0.0,0.0,0.0,2.5385,2.7683,2.8743,2.981,2.9352,2.7158,2.5816,2.3549,2.0292,0.0,0.0,0.0,0.0,0.0,0.0,0.0,0.0,0.0,0.0,0.0,0.0,0.0,0.0,0.0,0.0,0.0,0.0,0.0,0.0,0.0,0.0,0.0,0.0,0.0,0.0,0.0,0.0,0.0,0.0,0.0,0.0,0.0,0.0,0.0,0.0,0.0,0.0,1.7319,1.7442,0.0,0.0,0.0,0.0,0.0,0.0,0.0,0.0,1.8382,0.0,0.0,0.0,0.0,0.0,0.0,0.0,0.0,0.0,0.0,0.0,0.0,0.0,0.0,0.0,0.0,0.0,0.0,0.0,0.0,0.0,0.0,0.0,0.0,0.0,0.0,0.0,0.0,0.0,0.0,0.0,0.0,0.0,0.0,0.0,0.0,0.0,0.0,0.0,0.0,0.0,0.0,0.0,0.0,0.0,0.0,0.0,0.0,0.0,0.0,0.0,0.0,0.0,0.0,0.0,0.0,2.551,2.6611,2.8262,3.0572,3.0748,2.9467,2.672,2.5992,2.4048,2.0693,0.0,0.0,0.0,0.0,0.0,0.0,0.0,0.0,0.0,0.0,0.0,0.0,0.0,0.0,0.0,0.0,0.0,0.0,0.0,0.0,0.0,0.0,0.0,0.0,0.0,0.0,0.0,0.0,0.0,0.0,0.0,0.0,0.0,0.0,0.0,0.0,0.0,0.0,0.0,1.8469,1.8438,0.0,0.0,0.0,0.0,0.0,0.0,0.0,0.0,1.8934,0.0,0.0,0.0,0.0,0.0,0.0,0.0,0.0,0.0,0.0,0.0,0.0,0.0,0.0,0.0,0.0,0.0,0.0,0.0,0.0,0.0,0.0,0.0,0.0,0.0,0.0,0.0,0.0,0.0,0.0,0.0,0.0,0.0,0.0,0.0,0.0,0.0,0.0,0.0,0.0,0.0,0.0,0.0,0.0,0.0,0.0,0.0,0.0,0.0,0.0,0.0,0.0,0.0,0.0,0.0,2.4838,2.7885,2.9926,3.083,3.1306,3.0428,2.8087,2.6939,2.4802,0.0,0.0,0.0,0.0,0.0,0.0,0.0,0.0,0.0,0.0,0.0,0.0,0.0,0.0,0.0,0.0,0.0,0.0,0.0,0.0,0.0,0.0,0.0,0.0,0.0,0.0,0.0,0.0,0.0,0.0,0.0,0.0,0.0,0.0,0.0,0.0,0.0,0.0,0.0,0.0,1.953,1.9744,2.0047,0.0,0.0,0.0,0.0,0.0,0.0,1.9404,1.8753,0.0,0.0,0.0,0.0,0.0,0.0,0.0,0.0,0.0,0.0,0.0,0.0,0.0,0.0,0.0,0.0,0.0,0.0,0.0,0.0,0.0,0.0,0.0,0.0,0.0,0.0,0.0,0.0,0.0,0.0,0.0,0.0,0.0,0.0,0.0,0.0,0.0,0.0,0.0,0.0,0.0,0.0,0.0,0.0,0.0,0.0,0.0,0.0,0.0,0.0,0.0,0.0,0.0,0.0,0.0,2.4162,2.8608,3.1029,3.1149,3.1674,3.105,2.9104,2.7571,2.5213,0.0,0.0,0.0,0.0,0.0,0.0,0.0,0.0,0.0,0.0,0.0,0.0,0.0,0.0,0.0,0.0,0.0,0.0,0.0,0.0,0.0,0.0,0.0,0.0,0.0,0.0,0.0,0.0,0.0,0.0,0.0,0.0,0.0,0.0,0.0,0.0,0.0,0.0,0.0,0.0,0.0,2.1118,2.128,2.1378,0.0,0.0,0.0,0.0,2.0276,1.9727,0.0,0.0,0.0,0.0,0.0,0.0,0.0,0.0,0.0,0.0,0.0,0.0,0.0,0.0,0.0,0.0,0.0,0.0,0.0,0.0,0.0,0.0,0.0,0.0,0.0,0.0,0.0,0.0,0.0,0.0,0.0,0.0,0.0,0.0,0.0,0.0,0.0,0.0,0.0,0.0,0.0,0.0,0.0,0.0,0.0,0.0,0.0,0.0,0.0,0.0,0.0,0.0,0.0,0.0,0.0,0.0,2.6543,2.7882,2.9936,3.2684,3.1797,3.0142,2.7896,2.6853,2.4663,0.0,0.0,0.0,0.0,0.0,0.0,0.0,0.0,0.0,0.0,0.0,0.0,0.0,0.0,0.0,0.0,0.0,0.0,0.0,0.0,0.0,0.0,0.0,0.0,0.0,0.0,0.0,0.0,0.0,0.0,0.0,0.0,0.0,0.0,0.0,0.0,0.0,0.0,0.0,0.0,0.0,2.2082,2.0858,2.0951,2.1008,0.0,0.0,2.0976,2.2833,2.252,0.0,0.0,0.0,0.0,0.0,0.0,0.0,0.0,0.0,0.0,0.0,0.0,0.0,0.0,0.0,0.0,0.0,0.0,0.0,0.0,0.0,0.0,0.0,0.0,0.0,0.0,0.0,0.0,0.0,0.0,0.0,0.0,0.0,0.0,0.0,0.0,0.0,0.0,0.0,0.0,0.0,0.0,0.0,0.0,0.0,0.0,0.0,0.0,0.0,0.0,0.0,0.0,0.0,0.0,0.0,2.3994,2.6254,2.9328,3.1568,3.2828,3.2191,3.0995,2.9282,2.7893,2.5299,0.0,0.0,0.0,0.0,0.0,0.0,0.0,0.0,0.0,0.0,0.0,0.0,0.0,0.0,0.0,0.0,0.0,0.0,0.0,0.0,0.0,0.0,0.0,0.0,0.0,0.0,0.0,0.0,0.0,0.0,0.0,0.0,0.0,0.0,0.0,0.0,0.0,0.0,0.0,0.0,0.0,0.0,2.3805,2.3694,0.0,0.0,0.0,2.206,2.2598,0.0,0.0,0.0,0.0,0.0,0.0,0.0,0.0,0.0,0.0,0.0,0.0,0.0,0.0,0.0,0.0,0.0,0.0,0.0,0.0,0.0,0.0,0.0,0.0,0.0,0.0,0.0,0.0,0.0,0.0,0.0,0.0,0.0,0.0,0.0,0.0,0.0,0.0,0.0,0.0,0.0,0.0,0.0,0.0,0.0,0.0,0.0,0.0,0.0,0.0,0.0,0.0,0.0,0.0,0.0,0.0,0.0,2.5904,3.0628,3.2939,3.2636,3.2463,3.1759,3.0464,2.8767,0.0,0.0,0.0,0.0,0.0,0.0,0.0,0.0,0.0,0.0,0.0,0.0,0.0,0.0,0.0,0.0,0.0,0.0,0.0,0.0,0.0,0.0,0.0,0.0,0.0,0.0,0.0,1.33,0.0,0.0,0.0,0.0,0.0,0.0,0.0,0.0,0.0,0.0,0.0,0.0,0.0,0.0,2.5424,2.6081,2.5742,2.5353,0.0,0.0,2.305,2.2983,2.3426,2.3103,0.0,0.0,0.0,0.0,0.0,0.0,0.0,0.0,0.0,0.0,0.0,0.0,0.0,0.0,0.0,0.0,0.0,0.0,0.0,0.0,0.0,0.0,0.0,0.0,0.0,0.0,0.0,0.0,0.0,0.0,0.0,0.0,0.0,0.0,0.0,0.0,0.0,0.0,0.0,0.0,0.0,0.0,0.0,0.0,0.0,0.0,0.0,0.0,0.0,0.0,0.0,0.0,0.0,0.0,0.0,2.6549,3.0849,3.2853,3.2444,3.2422,3.1693,3.026,2.8812,2.6104,0.0,0.0,0.0,0.0,0.0,0.0,0.0,0.0,0.0,0.0,0.0,0.0,0.0,0.0,0.0,0.0,0.0,0.0,0.0,0.0,0.0,0.0,0.0,0.0,0.0,0.0,0.0,0.0,0.0,0.0,0.0,0.0,0.0,0.0,0.0,0.0,0.0,0.0,0.0,0.0,0.0,2.5402,2.5931,2.551,2.5283,0.0,0.0,2.3742,2.5384,2.5447,2.4537,2.2091,0.0,0.0,0.0,0.0,0.0,0.0,0.0,0.0,0.0,0.0,0.0,0.0,0.0,0.0,0.0,0.0,0.0,0.0,0.0,0.0,0.0,0.0,0.0,0.0,0.0,0.0,0.0,0.0,0.0,0.0,0.0,0.0,0.0,0.0,0.0,0.0,0.0,0.0,0.0,0.0,0.0,0.0,0.0,0.0,0.0,0.0,0.0,0.0,0.0,0.0,0.0,0.0,0.0,2.5502,2.6756,3.0782,3.2615,3.2157,3.2135,3.1516,3.0238,2.897,2.6626,0.0,0.0,0.0,0.0,0.0,0.0,0.0,0.0,0.0,0.0,0.0,0.0,0.0,0.0,0.0,0.0,0.0,0.0,0.0,0.0,0.0,0.0,0.0,0.0,0.0,0.0,0.0,0.0,1.7426,1.7447,1.6835,0.0,0.0,0.0,0.0,0.0,0.0,0.0,0.0,0.0,0.0,2.7983,2.8898,2.8412,0.0,0.0,2.6428,2.5607,2.5868,2.5126,2.4071,2.2693,2.1624,0.0,0.0,0.0,0.0,0.0,0.0,0.0,0.0,0.0,0.0,0.0,0.0,0.0,0.0,0.0,0.0,0.0,0.0,0.0,0.0,0.0,0.0,0.0,0.0,0.0,0.0,0.0,0.0,0.0,0.0,0.0,0.0,0.0,0.0,0.0,0.0,0.0,0.0,0.0,0.0,0.0,0.0,0.0,0.0,0.0,0.0,0.0,0.0,0.0,0.0,0.0,0.0,2.5585,2.6894,3.072,3.2484,3.2003,3.2094,3.1627,3.0666,2.924,2.7239,0.0,0.0,0.0,0.0,0.0,0.0,0.0,0.0,0.0,0.0,0.0,0.0,0.0,0.0,0.0,0.0,0.0,0.0,0.0,0.0,0.0,0.0,0.0,0.0,0.0,0.0,0.0,0.0,1.8599,1.8353,1.713,0.0,0.0,0.0,0.0,0.0,0.0,0.0,0.0,0.0,0.0,2.9562,3.0649,3.0138,2.9362,2.8545,2.7535,2.6509,2.5576,2.4857,2.4051,2.3084,0.0,0.0,0.0,0.0,0.0,0.0,0.0,0.0,0.0,0.0,0.0,0.0,0.0,0.0,0.0,0.0,0.0,0.0,0.0,0.0,0.0,0.0,0.0,0.0,0.0,0.0,0.0,0.0,0.0,0.0,1.3567,0.0,0.0,0.0,0.0,0.0,0.0,0.0,0.0,0.0,0.0,0.0,0.0,0.0,0.0,0.0,0.0,0.0,0.0,0.0,0.0,0.0,0.0,2.5822,2.6944,3.0769,3.2484,3.2028,3.2247,3.2135,3.1605,2.9738,2.7833,2.5992,0.0,0.0,0.0,0.0,0.0,0.0,0.0,0.0,0.0,0.0,0.0,0.0,0.0,0.0,0.0,0.0,0.0,0.0,0.0,0.0,0.0,0.0,0.0,0.0,0.0,0.0,1.6182,1.7054,1.758,0.0,0.0,0.0,0.0,0.0,0.0,0.0,0.0,0.0,0.0,2.8332,2.9486,3.0482,2.9901,2.909,2.8054,2.714,2.6066,2.463,2.4965,2.49,0.0,0.0,0.0,0.0,0.0,0.0,0.0,0.0,0.0,0.0,0.0,0.0,0.0,0.0,0.0,0.0,0.0,0.0,0.0,0.0,0.0,0.0,0.0,0.0,0.0,0.0,0.0,1.7866,1.7372,0.0,0.0,0.0,0.0,0.0,0.0,0.0,0.0,0.0,0.0,0.0,2.0201,2.1119,0.0,0.0,0.0,0.0,0.0,0.0,0.0,0.0,0.0,0.0,0.0,0.0,2.6827,2.8369,3.1431,3.2808,3.2361,3.2065,3.1871,3.1695,2.9738,2.7102,2.3738,0.0,0.0,0.0,0.0,0.0,0.0,0.0,0.0,0.0,0.0,0.0,0.0,0.0,0.0,0.0,0.0,0.0,0.0,0.0,0.0,0.0,0.0,0.0,0.0,0.0,1.7838,0.0,0.0,0.0,0.0,0.0,0.0,0.0,0.0,0.0,0.0,0.0,2.5759,2.86,3.022,3.1427,3.216,3.1882,3.1145,0.0,0.0,0.0,0.0,0.0,0.0,0.0,0.0,0.0,0.0,0.0,0.0,0.0,0.0,2.3753,2.17,2.1093,2.1236,2.2313,0.0,0.0,0.0,0.0,0.0,0.0,0.0,0.0,0.0,0.0,0.0,0.0,0.0,0.0,2.0577,0.0,1.983,0.0,0.0,0.0,0.0,0.0,0.0,0.0,0.0,2.2336,2.2811,2.2271,2.3245,2.3452,0.0,2.2648,2.163,0.0,0.0,0.0,0.0,0.0,0.0,0.0,0.0,2.7501,2.9596,3.2073,3.3165,3.2801,3.2316,3.2026,3.1937,2.9943,2.7265,2.3941,2.3099,2.2227,0.0,0.0,0.0,0.0,0.0,0.0,0.0,0.0,0.0,0.0,0.0,0.0,0.0,0.0,0.0,0.0,0.0,0.0,0.0,0.0,0.0,0.0,0.0,1.8766,0.0,0.0,0.0,0.0,0.0,0.0,0.0,0.0,0.0,2.3196,2.5498,2.8031,3.0343,3.1888,3.2643,3.2207,0.0,0.0,0.0,0.0,0.0,0.0,0.0,2.335,2.3894,2.3088,2.261,2.3459,2.4401,2.5031,2.4937,0.0,0.0,2.4027,2.3453,2.3738,2.4935,2.5367,2.5753,2.6379,2.7376,2.8152,0.0,0.0,0.0,0.0,0.0,0.0,0.0,0.0,2.3283,2.2498,0.0,2.2129,0.0,0.0,0.0,0.0,0.0,2.2747,0.0,0.0,2.6255,2.6349,2.5257,2.5414,2.5773,2.6183,2.5573,2.5251,2.5065,2.2289,0.0,0.0,0.0,0.0,0.0,0.0,2.799,3.074,3.2674,3.3539,3.3307,3.2985,3.2672,3.233,3.0239,2.8281,2.6536,2.4784,2.3872,2.3825,2.0671,0.0,0.0,0.0,0.0,0.0,0.0,0.0,0.0,0.0,0.0,0.0,0.0,0.0,0.0,0.0,0.0,0.0,0.0,0.0,0.0,1.9123,0.0,0.0,0.0,0.0,0.0,0.0,0.0,0.0,0.0,0.0,2.5488,2.7869,3.0327,3.2031,0.0,0.0,0.0,0.0,3.014,2.7074,2.6543,2.5909,2.4047,2.4886,2.5595,2.5113,0.0,0.0,2.6512,2.6983,2.7266,2.7078,2.8138,2.8675,2.7252,2.6609,2.6609,2.7427,2.7622,2.7686,2.798,2.956,3.1182,2.2881,0.0,0.0,0.0,0.0,2.3751,2.5265,2.7987,2.7753,2.6719,2.5224,2.527,0.0,0.0,0.0,0.0,0.0,0.0,2.5446,2.6803,2.6767,2.6943,2.7306,2.6914,2.7013,2.7611,2.7613,2.7534,2.73,2.6464,2.4241,2.0804,0.0,0.0,0.0,0.0,3.0552,3.2118,3.3645,3.4236,3.379,3.3402,3.2344,3.0671,2.9811,2.8483,2.6589,2.5804,2.4928,2.387,2.2757,0.0,0.0,0.0,0.0,0.0,0.0,0.0,0.0,0.0,0.0,0.0,0.0,0.0,0.0,0.0,0.0,0.0,0.0,0.0,1.8522,2.0055,2.0635,0.0,0.0,0.0,0.0,0.0,0.0,0.0,0.0,0.0,2.8896,3.0531,3.2152,0.0,0.0,3.3527,3.1718,3.1878,3.1424,2.9205,2.8844,0.0,0.0,2.6665,2.6487,2.7198,2.7682,2.7904,2.7786,2.7911,2.8022,2.7957,2.9006,2.9806,2.9644,2.8879,2.8758,2.9749,3.0079,3.0414,3.1385,3.2107,3.2857,2.623,2.523,2.3788,2.4361,2.6181,2.6339,2.7912,3.0359,2.9894,2.8814,2.7423,2.7318,2.5434,2.2304,2.2162,0.0,0.0,0.0,2.7672,2.9062,2.8984,2.8733,2.8376,2.8256,2.8233,2.8399,2.8472,2.8727,2.9059,2.8527,2.6895,2.4301,0.0,0.0,2.7598,3.0339,3.2489,3.3973,3.4748,3.4969,3.4631,3.3529,3.1801,2.944,2.9176,2.8331,2.6705,2.6344,2.5793,2.4924,2.421,2.3143,0.0,0.0,0.0,0.0,0.0,0.0,0.0,0.0,0.0,0.0,0.0,1.656,1.5098,0.0,0.0,0.0,1.9151,2.0038,2.0762,2.2066,0.0,0.0,0.0,0.0,0.0,0.0,0.0,2.6642,2.9091,3.0785,3.1056,3.2063,3.3148,3.4239,3.4638,3.428,3.2842,0.0,3.2004,3.0232,2.9532,2.9052,2.8621,2.7898,2.7715,2.866,2.8496,2.8613,2.9238,2.918,2.9238,2.9766,3.0478,3.1064,3.1259,3.0732,3.0585,3.1496,3.1705,3.1976,3.2645,3.3357,3.43,2.941,2.9329,2.6873,2.6439,2.7509,2.9299,3.0359,3.0804,3.0343,2.9315,2.8031,2.8366,2.6954,2.4325,2.4158,0.0,2.8016,2.9331,3.0511,3.1646,3.2183,3.1176,2.8953,2.9416,2.9357,2.88,2.864,2.9193,3.0256,2.9153,2.8614,2.8681,2.8702,2.9577,3.1307,3.2374,3.3903,3.5891,3.5717,3.5617,3.5568,3.356,3.1283,2.8824,2.8582,2.7982,2.6859,2.6497,2.6374,2.64,2.5217,2.4263,2.3631,0.0,0.0,0.0,0.0,0.0,0.0,0.0,0.0,0.0,0.0,0.0,0.0,0.0,0.0,0.0,2.3038,0.0,2.4506,2.4652,0.0,0.0,0.0,2.4918,2.5516,2.6846,2.7923,2.8416,0.0,0.0,3.2284,3.2801,3.3622,3.4918,3.5257,3.4896,3.3691,3.2965,3.2102,3.0416,2.9287,2.8601,2.8843,2.8984,2.9355,2.9794,2.9149,2.9316,3.0615,3.0625,3.0928,3.1827,3.2198,3.2218,3.2237,3.219,3.2398,3.2783,3.2824,3.2733,3.2761,3.4084,3.5708,3.0684,3.0706,3.0606,3.0787,3.1178,3.1234,3.1656,3.2176,3.0954,2.9828,2.8786,2.8114,2.7484,2.6939,2.7905,2.9365,3.1227,3.2079,3.3124,3.4126,3.259,3.1639,3.1318,3.0072,2.9546,2.9699,2.9846,2.9993,3.0107,3.0021,3.0052,3.0186,3.1521,3.18,3.0997,3.3337,3.4969,3.5691,3.584,3.5791,3.5543,3.391,3.2243,3.0662,2.9302,2.7987,2.677,2.6178,2.5864,2.5868,2.5765,2.5471,2.496,2.2029,0.0,0.0,0.0,0.0,0.0,0.0,0.0,0.0,0.0,1.9644,1.7673,0.0,2.1197,0.0,2.5007,2.6014,2.4842,2.5886,0.0,0.0,2.5927,2.689,2.847,2.9232,2.995,3.0761,3.232,3.3289,3.3099,3.3677,3.4388,3.512,3.4128,3.2996,3.2093,3.2317,3.2119,3.1042,3.0747,3.0742,3.0723,3.1113,3.1397,3.1553,3.1377,3.1436,3.1827,3.1807,3.1846,3.2159,3.2472,3.2617,3.2687,3.2891,3.3554,3.4431,3.4441,3.4288,3.4585,3.58,3.7194,3.2292,3.2495,3.3611,3.4002,3.3814,3.2816,3.2366,3.2157,3.088,2.9848,2.9037,2.8264,2.8253,2.8875,2.961,3.0968,3.2775,3.3556,3.4444,3.5307,3.4355,3.344,3.2559,3.1885,3.1164,3.0432,3.0752,3.0901,3.0983,3.095,3.1361,3.2182,3.3769,3.4204,3.3602,3.4978,3.5693,3.5617,3.5958,3.5532,3.4213,3.3302,3.1696,2.9335,2.8562,2.7528,2.6161,2.6114,2.5864,2.5295,2.5535,2.5581,2.5259,2.3363,2.239,0.0,0.0,0.0,0.0,0.0,0.0,0.0,0.0,0.0,0.0,0.0,2.3206,2.3865,2.6393,2.7521,2.6455,2.7781,2.8528,2.8104,2.8796,2.9715,3.0806,3.1165,3.1529,3.2037,3.2749,3.3208,3.3218,3.3685,3.4076,3.4275,3.4062,3.3944,3.4074,3.367,3.3111,3.3102,3.2365,3.1816,3.1816,3.2042,3.2198,3.2198,3.2198,3.2257,3.2433,3.2472,3.2531,3.2695,3.291,3.3144,3.3352,3.4084,3.4945,3.58,3.6803,3.7079,3.642,3.7248,3.8417,3.4092,3.4428,3.559,3.5847,3.5369,3.3886,3.2652,3.1633,3.0555,2.9643,2.8824,2.8463,2.9013,3.0255,3.0318,3.1629,3.3855,3.4481,3.5174,3.6025,3.6406,3.5408,3.3426,3.3834,3.2994,3.1133,3.1426,3.1797,3.2179,3.1807,3.2455,3.4016,3.5249,3.6175,3.6787,3.6677,3.6314,3.5737,3.605,3.5069,3.279,3.245,3.0635,2.733,2.7558,2.7109,2.5682,2.6216,2.6033,2.4924,2.5119,2.5254,2.5251,2.486,2.4325,0.0,2.3166,0.0,0.0,0.0,0.0,0.0,0.0,0.0,0.0,2.5064,2.5571,2.5325,2.7577,2.89,2.8707,2.9888,3.0778,3.1057,3.1943,3.2494,3.2435,3.2624,3.2701,3.2701,3.2488,3.2562,3.308,3.3302,3.3352,3.3384,3.4426,3.5597,3.6822,3.5509,3.4576,3.5574,3.3768,3.2413,3.2413,3.2452,3.2531,3.255,3.2648,3.2617,3.3027,3.3086,3.3246,3.3729,3.3974,3.4124,3.4576,3.5763,3.6708,3.7371,3.9086,3.9847,3.8467,3.8867,3.96,3.5511,3.5839,3.4748,3.4511,3.4688,3.3507,3.2698,3.2161,3.0712,2.9101,2.7495,2.8028,2.9407,3.1192,3.1511,3.3371,3.6282,3.6037,3.6721,3.8134,3.6287,3.5394,3.5228,3.3464,3.2365,3.1994,3.2042,3.212,3.2198,3.2312,3.2774,3.3559,3.4898,3.5675,3.5903,0.0,0.0,0.0,3.5472,3.4843,3.4307,3.2655,3.0916,2.918,2.8669,0.0,2.6616,2.6128,2.5766,2.5532,2.5584,0.0,0.0,0.0,0.0,0.0,0.0,0.0,0.0,0.0,0.0,0.0,2.5811,2.5881,2.5602,2.7126,2.81,2.8091,2.9311,3.0269,3.0707,3.1505,3.1856,3.1496,3.2424,3.303,3.2774,3.3054,3.3246,3.3246,3.3215,3.3207,3.335,3.339,3.3432,3.3559,3.4554,3.5451,3.5828,3.6012,3.5537,3.4215,3.3418,3.3164,3.3184,3.3469,3.3743,3.4134,3.4219,3.4251,3.4303,3.4342,3.4814,3.5826,3.6154,3.6548,3.7666,3.8253,3.8735,3.9817,4.0456,4.0663,4.0266,4.1181,4.212,3.6019,0.0,3.6152,3.5669,0.0,3.4701,3.3714,3.2358,3.117,2.9996,2.8984,2.9824,3.1125,3.2729,3.3536,3.515,3.7356,3.7737,3.8009,3.8184,3.6963,3.585,3.4896,3.3889,3.3072,3.2511,3.2511,3.2628,3.2785,3.2712,3.3579,3.5333,3.604,3.7045,3.8355,3.8906,3.8527,3.7204,3.6651,3.5685,3.4331,3.3568,3.1694,2.8691,2.8794,0.0,0.0,0.0,0.0,0.0,0.0,0.0,0.0,0.0,0.0,2.5851,2.4956,2.4634,2.5271,2.5955,2.6814,2.7849,2.8609,2.8681,2.7846,2.908,2.9957,3.0063,3.0697,3.1383,3.1988,3.2374,3.2561,3.2472,3.3007,3.3262,3.3156,3.3281,3.3386,3.3386,3.3386,3.3639,3.4309,3.4974,3.5294,3.5386,3.6429,3.6794,3.5694,3.5781,3.5373,3.3694,3.3386,3.3464,3.3711,3.3938,3.4251,3.457,3.4687,3.4982,3.5646,3.5743,3.6207,3.7498,3.7847,3.8196,3.9003,3.9708,4.0516,4.1358,4.2071,4.2503,4.251,4.2674,4.2789,3.6237,3.7268,3.7177,3.6606,3.5685,3.5513,3.4309,3.2391,0.0,0.0,0.0,3.1749,3.2765,3.398,3.4867,3.6193,3.7833,3.8606,3.855,3.7828,3.76,3.6326,3.4219,3.4298,3.386,3.2941,3.291,3.3086,3.3367,3.3066,3.4411,3.7054,3.7309,3.8595,4.1004,4.0763,3.985,3.8482,3.8048,3.6697,3.4379,3.4494,3.2509,2.8092,2.8998,2.8727,2.7017,2.7673,2.7864,2.7404,2.7105,2.7125,2.7424,2.6784,2.6902,2.8022,2.8058,2.8233,2.8707,2.9166,2.9626,3.0118,3.0902,3.097,3.0116,3.077,3.1317,3.1523,3.187,3.2293,3.2843,3.291,3.3047,3.3347,3.3386,3.3386,3.3386,3.3386,3.3386,3.3386,3.3386,3.3922,3.516,3.5909,3.6712,3.7037,3.773,3.8358,3.646,3.551,3.4747,3.4059,3.3933,3.3966,3.4361,3.4944,3.4963,3.527,3.533,3.5723,3.6679,3.7014,3.7688,3.933,3.9493,3.9796,4.0319,4.1354,4.2195,4.258,4.3514,4.4316,4.4244,4.3673,4.315,3.6622,3.743,3.4848,3.3946,3.4148,3.3153,3.2545,3.2155,3.1338,3.0936,3.0947,3.1387,3.2545,3.4031,3.3125,3.4774,3.8142,3.7014,3.7094,3.8223,3.7176,3.6153,3.5159,3.4095,3.3477,3.3308,3.3289,3.3328,3.3367,3.3328,3.4664,3.6985,3.7309,3.8595,4.0976,4.1129,4.0768,4.0042,3.8265,3.688,3.6046,3.4662,3.2941,3.0787,3.049,2.9595,2.7909,2.8127,2.8061,2.7676,2.7597,2.7754,2.8119,2.7754,2.7845,2.8679,2.8773,2.9113,2.9878,3.0368,3.0976,3.177,3.2176,3.2097,3.1483,3.1649,3.1959,3.2365,3.2557,3.2824,3.3262,3.3289,3.3308,3.3367,3.3386,3.3386,3.3386,3.3386,3.3386,3.3386,3.3386,3.3902,3.5191,3.4819,3.485,3.5664,3.6946,3.77,3.7714,3.5756,3.434,3.485,3.5129,3.5283,3.5473,3.7066,3.7254,3.7032,3.7205,3.7488,3.7897,3.8127,3.8957,4.1289,4.1633,4.2198,4.3161,4.3738,4.3824,4.3857,4.4161,4.4316,4.4316,4.4124,4.4027,3.601,3.736,3.5389,3.4421,3.4193,3.3259,3.2851,3.2812,3.2441,3.2129,3.1973,3.2363,3.2995,3.3707,3.3861,3.5344,3.7792,3.7715,3.7708,3.7762,3.722,3.6003,3.4383,3.3702,3.3386,3.3386,3.3386,3.3386,3.3386,3.3386,3.4403,3.6246,3.764,3.9298,4.1028,4.0461,4.0224,4.035,3.8729,3.7293,3.6128,3.5002,3.3318,3.1099,3.1189,3.0655,2.9254,2.9528,2.9755,2.9746,2.9766,2.9941,3.038,2.9813,2.9687,3.0245,3.0117,3.0254,3.0859,3.1328,3.1885,3.2472,3.2653,3.2686,3.2631,3.245,3.2498,3.2695,3.2953,3.3203,3.3367,3.3386,3.3386,3.3386,3.3386,3.3386,3.3386,3.3386,3.3386,3.3386,3.3386,3.4184,3.6185,3.5879,3.6001,3.7158,3.7037,3.6698,3.7362,3.5478,3.4148,3.5097,3.4808,3.4521,3.4975,3.5794,3.6662,3.7233,3.7786,3.8399,3.9068,3.9703,4.0807,4.2016,4.2831,4.3545,4.4254,4.4316,4.4316,4.4316,4.4316,4.4316,4.4316,4.4316,4.4316,3.5277,3.7061,3.5725,3.4858,3.4268,3.3669,3.3386,3.3386,3.3367,3.3242,3.3008,3.325,3.3386,3.3513,3.4496,3.5633,3.6885,3.791,3.7798,3.6946,3.6885,3.5633,3.3576,3.3386,3.3386,3.3386,3.3386,3.3386,3.3386,3.3386,3.4247,3.5848,3.782,3.9445,4.0687,3.9445,3.9091,3.9578,3.8381,3.7204,3.619,3.5114,3.3524,3.1547,3.1612,3.1345,3.0448,3.0879,3.1289,3.1474,3.1494,3.166,3.1983,3.1436,3.1133,3.1328,3.125,3.1367,3.1747,3.2207,3.2598,3.291,3.293,3.3066,3.3308,3.3094,3.293,3.2969,3.3223,3.3367,3.3386,3.3386,3.3386,3.3386,3.3386,3.3445,3.3555,3.3464,3.3503,3.3601,3.3601,3.449,3.6429,3.6881,3.7047,3.7771,3.6903,3.5988,3.6279,3.5495,3.5078,3.5267,3.4779,3.4517,3.4695,3.5525,3.6384,3.7437,3.7819,3.8642,3.9768,4.1087,4.2166,4.261,4.3576,4.413,4.4285,4.4316,4.4316,4.4316,4.4316,4.4316,4.4316,4.4316,4.4316,3.4971,3.5364,3.4242,3.3572,3.3529,3.343,3.3386,3.3386,3.3386,3.3386,3.3328,3.3367,3.3386,3.3386,3.3576,3.4372,3.5592,3.5715,3.5725,3.5654,3.5561,3.4788,3.3481,3.3386,3.3386,3.3386,3.3386,3.3386,3.3386,3.3386,3.4632,3.6855,3.7347,3.8119,3.9098,3.8119,3.7506,3.7574,3.6304,3.6083,3.673,3.4705,3.3207,3.2563,3.1867,3.1329,3.0869,3.1651,3.1875,3.1562,3.1494,3.1513,3.1582,3.1504,3.1309,3.1055,3.167,3.2257,3.2656,3.3066,3.3281,3.3328,3.3328,3.3379,3.3406,3.3398,3.3379,3.3367,3.3418,3.3425,3.3386,3.3425,3.3484,3.3535,3.3484,3.3542,3.3887,3.3652,3.3711,3.4512,3.4121,3.4732,3.6222,3.5931,3.5735,3.7213,3.6718,3.6621,3.7604,3.6851,3.6123,3.6394,3.6362,3.6245,3.6348,3.789,3.795,3.7565,3.7819,3.884,4.0029,4.07,4.1055,4.3051,4.4068,4.4254,4.4316,4.4316,4.434,4.446,4.4436,4.4357,4.434,4.4412,4.446,3.449,3.5253,3.3933,3.3386,3.3386,3.3386,3.3386,3.3386,3.3386,3.3386,3.3386,3.3386,3.3386,3.3386,3.3386,3.4121,3.5345,3.5407,3.5407,3.5407,3.5407,3.4694,3.3481,3.3386,3.3386,3.3386,3.3386,3.3386,3.3386,3.3386,3.4372,3.6001,3.6185,3.6824,3.788,3.6824,3.6392,3.6774,3.4891,3.4297,3.4893,3.3802,3.2695,3.2036,3.1663,3.1328,3.0996,3.1484,3.1699,3.1562,3.1758,3.1894,3.1894,3.1925,3.1934,3.2031,3.2578,3.2988,3.3133,3.3289,3.3386,3.3386,3.3672,3.3809,3.3828,3.4023,3.418,3.416,3.3965,3.3906,3.4121,3.418,3.4147,3.418,3.418,3.4238,3.4394,3.4062,3.3984,3.429,3.3965,3.4358,3.5822,3.6065,3.6444,3.7265,3.6658,3.6253,3.7461,3.6734,3.6155,3.6223,3.6303,3.6043,3.5834,3.6289,3.7319,3.8367,3.9011,3.9834,4.0926,4.2206,4.2925,4.3169,4.3842,4.4302,4.4316,4.4628,4.4796,4.482,4.5109,4.5253,4.5253,4.5253,4.5253,3.3933,3.4621,3.3796,3.3386,3.3386,3.3386,3.3386,3.3386,3.3386,3.3386,3.3386,3.3386,3.3386,3.3386,3.3386,3.3933,3.4757,3.485,3.485,3.487,3.485,3.434,3.3449,3.3386,3.3386,3.3386,3.3386,3.3386,3.3386,3.3386,3.4059,3.5191,3.5036,3.55,3.652,3.55,3.5118,3.5416,3.3797,3.3186,3.3508,3.3078,3.2441,3.1777,3.1816,3.1719,3.1445,3.1816,3.2031,3.2051,3.2344,3.255,3.255,3.2519,3.2656,3.2949,3.3211,3.3445,3.3574,3.3711,3.3769,3.3789,3.4082,3.4271,3.4297,3.4531,3.4746,3.4844,3.4492,3.4355,3.4505,3.4531,3.4492,3.4375,3.4355,3.4375,3.4453,3.4192,3.3965,3.4173,3.3945,3.4127,3.5489,3.6087,3.6591,3.7265,3.6244,3.5614,3.6905,3.6516,3.5832,3.6398,3.6302,3.5795,3.5248,3.6031,3.7085,3.7805,3.8833,3.967,4.1087,4.2206,4.3128,4.2052,4.3419,4.4245,4.4231,4.4579,4.5349,4.5397,4.5638,4.5902,4.5758,4.5854,4.5878,3.3449,3.3481,3.3418,3.3386,3.3386,3.3386,3.3386,3.3386,3.3386,3.3386,3.3386,3.3386,3.3386,3.3386,3.3386,3.3418,3.3513,3.3607,3.3607,3.3607,3.3576,3.3481,3.3386,3.3386,3.3386,3.3386,3.3386,3.3386,3.3386,3.3418,3.409,3.5222,3.4184,3.4184,3.5129,3.4247,3.3524,3.3686,3.3466,3.3215,3.2936,3.2855,3.2617,3.2296,3.25,3.2617,3.2676,3.3086,3.323,3.3269,3.3211,3.3301,3.3289,3.332,3.3289,3.3347,3.3437,3.3633,3.4023,3.4375,3.457,3.4609,3.4629,3.4668,3.4668,3.4726,3.4922,3.5326,3.4883,3.4512,3.4231,3.4238,3.4095,3.373,3.3542,3.3789,3.4101,3.3848,3.3887,3.4355,3.4219,3.4355,3.5244,3.5452,3.5736,3.6121,3.598,3.6338,3.7185,3.6695,3.6567,3.7059,3.6795,3.5996,3.6059,3.6394,3.6804,3.756,3.8336,3.8615,3.8805,3.9287,4.0246,4.1438,4.3322,4.4307,4.4175,4.4645,4.5589,4.595,4.6022,4.6118,4.6286,4.6022,4.607,3.3386,3.3386,3.3386,3.3386,3.3386,3.3386,3.3386,3.3386,3.3386,3.3386,3.3386,3.3386,3.3386,3.3386,3.3386,3.3386,3.3386,3.3386,3.3386,3.3386,3.3386,3.3386,3.3386,3.3386,3.3386,3.3386,3.3386,3.3386,3.3386,3.3386,3.3639,3.3965,3.367,3.3702,3.3933,3.367,3.3386,3.3386,3.3386,3.334,3.3203,3.3203,3.3105,3.2969,3.2578,3.2433,3.2433,3.2589,3.2617,3.2617,3.2617,3.2617,3.2676,3.3125,3.3386,3.3445,3.3945,3.4316,3.4505,3.4609,3.4687,3.4726,3.498,3.5117,3.5137,3.5137,3.5215,3.5273,3.498,3.4531,3.4238,3.4316,3.4414,3.4277,3.4219,3.4238,3.4355,3.4101,3.3984,3.4199,3.4192,3.4271,3.459,3.5039,3.543,3.5605,3.5859,3.6268,3.6525,3.6287,3.6273,3.6598,3.6606,3.6445,3.6426,3.6459,3.6775,3.7675,3.8461,3.9401,3.984,4.0738,4.18,4.207,4.3682,4.4827,4.4865,4.5571,4.6415,4.6752,4.6743,4.6671,4.6911,4.6671,4.6776,3.3386,3.3386,3.3386,3.3386,3.3386,3.3386,3.3386,3.3386,3.3386,3.3464,3.3594,3.3496,3.3496,3.3613,3.3633,3.3633,3.3633,3.3633,3.3633,3.3652,3.3769,3.3828,3.3796,3.3796,3.3796,3.3848,3.3848,3.3796,3.3828,3.3828,3.3796,3.3848,3.3828,3.3738,3.3652,3.3633,3.3594,3.3425,3.3386,3.3386,3.3386,3.3386,3.3386,3.3308,3.2871,3.2578,3.2609,3.2578,3.2578,3.2578,3.2559,3.2609,3.2637,3.3105,3.3386,3.3464,3.4082,3.4492,3.4531,3.4609,3.4687,3.4707,3.4961,3.5176,3.5176,3.5312,3.5391,3.5312,3.5137,3.4785,3.4642,3.4629,3.459,3.4375,3.4277,3.4297,3.4277,3.4023,3.3867,3.3867,3.4036,3.4134,3.4368,3.4994,3.5391,3.5566,3.5859,3.6137,3.6717,3.647,3.6548,3.6955,3.7026,3.6905,3.6875,3.6872,3.6878,3.7662,3.8639,3.9717,4.0458,4.1628,4.2632,4.2938,4.3806,4.5019,4.5951,4.6621,4.7064,4.7425,4.7353,4.7185,4.7329,4.7401,4.7329,3.3386,3.3386,3.3386,3.3386,3.3386,3.3425,3.3406,3.3445,3.3425,3.3691,3.3958,3.3613,3.3613,3.3958,3.3958,3.4036,3.3977,3.3997,3.4075,3.4134,3.4434,3.459,3.459,3.4551,3.4551,3.457,3.4648,3.4648,3.459,3.4512,3.4512,3.4609,3.4473,3.4219,3.4023,3.3958,3.3821,3.3516,3.3386,3.3386,3.3386,3.3386,3.3386,3.3386,3.3308,3.3289,3.3359,3.3328,3.3269,3.3308,3.334,3.3367,3.332,3.3406,3.3457,3.3535,3.3887,3.4114,3.418,3.4512,3.4687,3.4707,3.4726,3.4805,3.4922,3.5137,3.5351,3.5391,3.5312,3.5273,3.5176,3.4922,3.4434,3.362,3.373,3.373,3.3601,3.3484,3.3425,3.3613,3.3926,3.4258,3.4648,3.5137,3.5566,3.5859,3.6094,3.6631,3.7676,3.7227,3.7564,3.8324,3.8012,3.732,3.7305,3.7305,3.734,3.7566,3.8627,3.9562,3.9783,4.0618,4.219,4.2859,4.4987,4.6228,4.6592,4.7185,4.7257,4.7497,4.7497,4.7497,4.7497,4.7497,4.7497,3.3386,3.3386,3.3386,3.3386,3.3425,3.373,3.3867,3.3867,3.3899,3.3977,3.4016,3.3613,3.3464,3.3594,3.3633,3.3633,3.3652,3.3926,3.4219,3.4492,3.4629,3.4687,3.4687,3.4687,3.4687,3.4687,3.4687,3.4687,3.4648,3.4466,3.429,3.4219,3.3984,3.3769,3.3672,3.3633,3.3503,3.3406,3.3386,3.3386,3.3386,3.3386,3.3386,3.3386,3.3386,3.3386,3.3386,3.3386,3.3386,3.3386,3.3386,3.3386,3.3425,3.3711,3.3867,3.3938,3.429,3.4512,3.4512,3.4609,3.4687,3.4687,3.4687,3.4863,3.5078,3.5,3.5098,3.5293,3.5117,3.4922,3.4883,3.4805,3.459,3.4336,3.4297,3.4258,3.4238,3.4258,3.4297,3.4297,3.4434,3.457,3.4805,3.5312,3.5845,3.6094,3.6469,3.7227,3.7485,3.7475,3.7179,3.7792,3.7516,3.7734,3.7754,3.7832,3.793,3.7955,3.8663,3.9562,3.968,4.0473,4.1895,4.3713,4.5816,4.6935,4.7326,4.7497,4.7497,4.7497,4.7497,4.7497,4.7497,4.7497,4.7497,3.3386,3.3386,3.3386,3.3386,3.3406,3.373,3.3828,3.386,3.3828,3.3958,3.3945,3.3613,3.3516,3.3633,3.3672,3.3672,3.3711,3.4134,3.4486,3.4668,3.4687,3.4687,3.4687,3.4687,3.4687,3.4687,3.4687,3.4687,3.4687,3.4486,3.4349,3.4238,3.4023,3.3828,3.3691,3.3652,3.3613,3.3425,3.3386,3.3386,3.3386,3.3386,3.3386,3.3386,3.3386,3.3386,3.3386,3.3386,3.3386,3.3386,3.3386,3.3386,3.3406,3.3672,3.386,3.3938,3.4231,3.4453,3.4473,3.4466,3.4473,3.4473,3.4473,3.4603,3.4877,3.4805,3.5137,3.5273,3.5312,3.5195,3.5215,3.5195,3.5195,3.5176,3.4844,3.4726,3.4687,3.4687,3.4687,3.4687,3.4824,3.5,3.5312,3.5742,3.6328,3.6523,3.6953,3.7402,3.7461,3.7519,3.7578,3.7715,3.7988,3.8164,3.8184,3.832,3.8552,3.8593,3.8751,3.9567,4.0083,4.1416,4.2829,4.4924,4.7022,4.7154,4.7497,4.7497,4.7497,4.7497,4.7497,4.7497,4.7497,4.7497,4.7497,3.3386,3.3386,3.3386,3.3386,3.3406,3.3516,3.3555,3.3496,3.3484,3.375,3.3958,3.3613,3.3613,3.3945,3.3887,3.3887,3.4114,3.4277,3.4434,3.4492,3.4531,3.4551,3.4687,3.4687,3.4687,3.4687,3.4687,3.4687,3.4687,3.459,3.4668,3.4551,3.4434,3.4375,3.3997,3.4036,3.375,3.3457,3.3386,3.3386,3.3386,3.3386,3.3386,3.3386,3.3386,3.3386,3.3386,3.3386,3.3386,3.3386,3.3386,3.3386,3.3386,3.3437,3.3503,3.3594,3.3887,3.4141,3.4173,3.4192,3.4212,3.4238,3.418,3.4153,3.4446,3.498,3.5351,3.5508,3.5723,3.5903,3.585,3.5816,3.5816,3.5777,3.5265,3.4941,3.4805,3.4863,3.5039,3.5059,3.5234,3.5644,3.6074,3.6504,3.6894,3.7187,3.7402,3.7676,3.7708,3.7864,3.8056,3.8156,3.8108,3.8091,3.7962,3.7982,3.8173,3.8224,3.8593,3.96,4.1073,4.2705,4.3717,4.5807,4.7331,4.7431,4.7497,4.7497,4.7497,4.7497,4.7497,4.7497,4.7497,4.7497,4.7497,3.3386,3.3386,3.3386,3.3386,3.3445,3.375,3.3919,3.3906,3.3887,3.3958,3.3997,3.3613,3.3445,3.3594,3.3594,3.3594,3.3652,3.373,3.3769,3.3718,3.3718,3.416,3.459,3.4687,3.4668,3.4648,3.4609,3.4687,3.4668,3.4375,3.4238,3.4219,3.3945,3.375,3.3594,3.3613,3.3535,3.3406,3.3386,3.3386,3.3386,3.3386,3.3386,3.3386,3.3386,3.3386,3.3386,3.3386,3.3386,3.3386,3.3386,3.3386,3.3406,3.3691,3.3848,3.3958,3.4258,3.4531,3.4473,3.429,3.4238,3.4473,3.4316,3.4388,3.5053,3.5234,3.5547,3.5762,3.5942,3.5879,3.5694,3.5606,3.5504,3.528,3.5389,3.5558,3.5616,3.5957,3.6186,3.6191,3.6469,3.6703,3.6883,3.7176,3.7507,3.7682,3.7861,3.8039,3.7919,3.7868,3.7945,3.7692,3.7621,3.764,3.766,3.766,3.7679,3.7715,3.8387,3.9685,4.1883,4.4436,4.5096,4.6079,4.7108,4.7464,4.7497,4.7497,4.7497,4.7497,4.7497,4.7497,4.7497,4.7497,4.7497,3.3386,3.3386,3.3386,3.3386,3.3425,3.3691,3.3789,3.3789,3.3789,3.3809,3.375,3.3555,3.3386,3.3386,3.3386,3.3386,3.3386,3.3386,3.3406,3.3406,3.3425,3.3679,3.4062,3.4128,3.416,3.416,3.418,3.416,3.4121,3.3906,3.3828,3.3769,3.3555,3.3386,3.3406,3.3386,3.3386,3.3386,3.3386,3.3386,3.3386,3.3386,3.3386,3.3386,3.3386,3.3386,3.3386,3.3386,3.3386,3.3386,3.3386,3.3386,3.3425,3.3848,3.4095,3.4134,3.4473,3.4766,3.4883,3.459,3.457,3.4863,3.4726,3.4902,3.5293,3.5527,3.5767,3.5719,3.5777,3.5606,3.5333,3.5264,3.5204,3.5252,3.5548,3.5789,3.5808,3.6294,3.6526,3.6607,3.6778,3.7064,3.7093,3.7328,3.7485,3.7622,3.7778,3.7784,3.7751,3.7752,3.7679,3.7402,3.7292,3.7384,3.7421,3.7421,3.7458,3.7421,3.8153,3.9458,4.1947,4.4914,4.582,4.6214,4.6974,4.7497,4.7497,4.7497,4.7497,4.7497,4.7497,4.7521,4.7545,4.7617,4.7593,3.3386,3.3386,3.3386,3.3386,3.3386,3.3386,3.3425,3.3406,3.3425,3.3425,3.3406,3.3386,3.3386,3.3386,3.3386,3.3386,3.3386,3.3386,3.3386,3.3386,3.3386,3.3464,3.3503,3.3562,3.3542,3.3523,3.3406,3.3464,3.3523,3.3445,3.3406,3.3445,3.3437,3.3386,3.3386,3.3386,3.3386,3.3386,3.3386,3.3386,3.3386,3.3386,3.3386,3.3386,3.3386,3.3445,3.3484,3.3535,3.3555,3.3574,3.3445,3.3425,3.3535,3.3958,3.4231,3.4407,3.4726,3.5117,3.5293,3.5059,3.4961,3.5332,3.5391,3.543,3.5527,3.5714,3.5738,3.5572,3.547,3.523,3.4921,3.4856,3.4941,3.517,3.5371,3.552,3.5646,3.6229,3.6584,3.6247,3.6568,3.6744,3.6829,3.6891,3.7041,3.7486,3.7585,3.753,3.7439,3.7329,3.7255,3.7107,3.7107,3.72,3.7181,3.7181,3.7218,3.7292,3.808,3.9349,4.1397,4.3806,4.5515,4.6516,4.6974,4.7298,4.7497,4.7497,4.7521,4.7666,4.7786,4.7714,4.7642,4.7762,4.781,3.3386,3.3386,3.3386,3.3386,3.3386,3.3386,3.3386,3.3386,3.3386,3.3386,3.3386,3.3386,3.3386,3.3406,3.3425,3.3386,3.3464,3.3464,3.3386,3.3386,3.3386,3.3386,3.3425,3.3464,3.3406,3.3386,3.3386,3.3386,3.3386,3.3386,3.3386,3.3386,3.3386,3.3386,3.3386,3.3386,3.3386,3.3386,3.3386,3.3386,3.3386,3.3386,3.3406,3.3425,3.3476,3.3601,3.3887,3.3958,3.4082,3.418,3.3848,3.3652,3.3945,3.4336,3.4687,3.5053,3.541,3.5689,3.5728,3.5488,3.543,3.5708,3.5572,3.5527,3.5825,3.5665,3.5626,3.5436,3.523,3.4925,3.4655,3.4513,3.4647,3.4869,3.5276,3.5591,3.5719,3.63,3.6664,3.672,3.691,3.7248,3.7214,3.7122,3.7234,3.7365,3.7292,3.7237,3.7107,3.696,3.6849,3.6738,3.6701,3.6775,3.6775,3.6794,3.6887,3.7017,3.7756,3.9079,4.115,4.2958,4.4663,4.589,4.6774,4.7074,4.7464,4.7617,4.7666,4.7882,4.8098,4.8122,4.8122,4.8122,4.8122,3.3613,3.3386,3.3386,3.3386,3.3386,3.3386,3.3386,3.3386,3.3386,3.3386,3.3386,3.3386,3.3535,3.373,3.373,3.3809,3.3984,3.4023,3.4023,3.4043,3.4043,3.4011,3.4023,3.3965,3.3867,3.3484,3.3386,3.3386,3.3386,3.3406,3.3386,3.3386,3.3406,3.3386,3.3386,3.3406,3.3386,3.3386,3.3386,3.3386,3.3386,3.3386,3.3574,3.375,3.3906,3.416,3.4336,3.4407,3.4492,3.4531,3.4277,3.4101,3.4375,3.4766,3.5137,3.5391,3.5566,3.584,3.5806,3.5495,3.5278,3.5704,3.553,3.5588,3.5685,3.5572,3.5401,3.5253,3.5057,3.4845,3.4719,3.4709,3.4733,3.5009,3.5302,3.5632,3.5907,3.6422,3.6715,3.6679,3.6847,3.6885,3.6923,3.696,3.6886,3.6775,3.6738,3.6701,3.6664,3.6497,3.6479,3.6405,3.6312,3.6275,3.6275,3.6367,3.6552,3.6737,3.7129,3.8714,4.0655,4.2315,4.3956,4.5279,4.6671,4.7165,4.7521,4.7666,4.793,4.8147,4.8363,4.8531,4.8686,4.8686,4.8686,3.3809,3.3386,3.3386,3.3386,3.3386,3.3386,3.3386,3.3386,3.3386,3.3445,3.3535,3.3484,3.3809,3.4134,3.4212,3.4427,3.457,3.4648,3.4551,3.4551,3.4551,3.4551,3.457,3.4492,3.4297,3.364,3.3679,3.3679,3.3659,3.3613,3.3738,3.362,3.3652,3.375,3.364,3.3601,3.3699,3.3718,3.3738,3.3699,3.3711,3.3711,3.3906,3.416,3.4414,3.4668,3.4766,3.4824,3.4863,3.4883,3.4902,3.4902,3.498,3.5137,3.5449,3.5488,3.5586,3.5675,3.5748,3.537,3.5143,3.5436,3.5497,3.5497,3.5501,3.5437,3.5321,3.5177,3.5051,3.4978,3.5008,3.5082,3.5265,3.5504,3.5596,3.5834,3.6146,3.6497,3.646,3.6368,3.6516,3.6571,3.646,3.6386,3.6275,3.6201,3.6201,3.6219,3.6219,3.6219,3.6219,3.6256,3.6201,3.6384,3.6421,3.6659,3.6752,3.6863,3.7048,3.8518,4.0375,4.224,4.3978,4.5462,4.6623,4.7294,4.7882,4.8219,4.8435,4.8531,4.8772,4.9143,4.9239,4.9239,4.9239,3.3828,3.3386,3.3386,3.3386,3.3386,3.3386,3.3406,3.3386,3.3425,3.3633,3.3945,3.3965,3.4199,3.4512,3.459,3.4668,3.4785,3.4844,3.4805,3.4805,3.4805,3.4805,3.4844,3.4863,3.4687,3.4551,3.4492,3.4492,3.4414,3.4492,3.4336,3.4434,3.4414,3.4394,3.4375,3.4473,3.4355,3.4316,3.4336,3.4355,3.4355,3.4414,3.4453,3.4609,3.4785,3.498,3.5234,3.5293,3.543,3.5762,3.5767,3.5762,3.565,3.5547,3.5644,3.584,3.5859,3.5836,3.5752,3.5485,3.5241,3.515,3.5313,3.5502,3.5468,3.5331,3.5304,3.5319,3.5165,3.5008,3.5027,3.5321,3.5522,3.5669,3.5852,3.6091,3.6182,3.6275,3.6312,3.6238,3.6275,3.6312,3.6238,3.6201,3.6201,3.6201,3.6201,3.6274,3.6347,3.6292,3.6256,3.6237,3.6201,3.6457,3.664,3.6988,3.7228,3.7322,3.7682,3.8671,4.0502,4.2455,4.4161,4.5912,4.7187,4.8069,4.8531,4.8772,4.9071,4.9239,4.9504,4.9744,4.9769,4.9793,4.9769,3.4004,3.3406,3.3386,3.3386,3.3386,3.3386,3.3555,3.375,3.3769,3.4004,3.4297,3.4414,3.4648,3.4961,3.5059,3.5156,3.5312,3.5391,3.5391,3.5371,3.5391,3.5391,3.5351,3.5351,3.5391,3.5391,3.5338,3.5098,3.4746,3.4668,3.4746,3.4687,3.4687,3.4687,3.4687,3.4648,3.4726,3.4726,3.4726,3.4726,3.4746,3.4902,3.5039,3.5098,3.5273,3.5488,3.5644,3.5723,3.5801,3.5923,3.6016,3.6035,3.6035,3.6094,3.6152,3.6289,3.6157,3.6098,3.5985,3.5812,3.5442,3.5339,3.5456,3.5531,3.5515,3.5446,3.5436,3.5499,3.5502,3.5394,3.5614,3.576,3.5907,3.5944,3.6091,3.6182,3.6201,3.6201,3.6237,3.6256,3.6293,3.6293,3.6238,3.6201,3.6201,3.6201,3.6219,3.6347,3.6512,3.6457,3.6439,3.6659,3.6714,3.6861,3.7079,3.7318,3.7629,3.7761,3.8128,3.9127,4.0709,4.2691,4.4793,4.6753,4.783,4.8749,4.8988,4.9181,4.9552,4.9889,5.0081,5.0191,5.0298,5.0346,5.0274,3.4121,3.3386,3.3386,3.3386,3.3406,3.3535,3.375,3.4075,3.4192,3.4486,3.4805,3.4863,3.5098,3.543,3.5547,3.5703,3.6016,3.5976,3.5957,3.5903,3.5937,3.5976,3.6016,3.6035,3.5937,3.5859,3.5864,3.563,3.5195,3.5078,3.5,3.5078,3.5,3.4961,3.5039,3.5117,3.4961,3.4961,3.4961,3.4961,3.5059,3.5312,3.5527,3.5527,3.5859,3.5976,3.5942,3.5942,3.6055,3.6152,3.6211,3.6211,3.6294,3.6532,3.6712,3.6731,3.64,3.6356,3.6182,3.5939,3.551,3.5344,3.5513,3.5569,3.5624,3.5644,3.5684,3.5632,3.5687,3.5779,3.6036,3.6164,3.6182,3.6182,3.6164,3.6219,3.6256,3.6255,3.6383,3.6383,3.6384,3.6421,3.6476,3.6457,3.6475,3.6732,3.6769,3.6787,3.6897,3.6769,3.6824,3.7173,3.7356,3.7409,3.7556,3.7666,3.794,3.8144,3.8554,3.9273,4.1067,4.2988,4.515,4.7273,4.8411,4.9186,4.9371,4.9638,4.9998,5.0311,5.0527,5.06,5.0527,5.0527,5.0503,3.3867,3.3386,3.3386,3.3386,3.3464,3.3828,3.4055,3.4192,3.4492,3.4883,3.5312,3.5332,3.5527,3.582,3.5918,3.5957,3.6016,3.6035,3.6035,3.6035,3.6035,3.6035,3.6035,3.6035,3.6035,3.6035,3.6035,3.5962,3.5742,3.5723,3.5801,3.5762,3.5723,3.5786,3.5684,3.5664,3.5859,3.5806,3.582,3.5801,3.5801,3.5859,3.5864,3.5903,3.5976,3.6035,3.6001,3.604,3.6211,3.6558,3.6616,3.6777,3.7035,3.6816,3.6961,3.7022,3.6855,3.6377,3.5978,3.5779,3.5529,3.5427,3.5484,3.5595,3.5723,3.5889,3.5926,3.565,3.5852,3.6091,3.6182,3.6219,3.6219,3.6274,3.6347,3.6329,3.6329,3.6621,3.6695,3.6768,3.6842,3.6841,3.6878,3.6841,3.6841,3.7079,3.7244,3.7244,3.7299,3.7264,3.7154,3.7484,3.7794,3.7904,3.794,3.8069,3.8179,3.8417,3.879,3.9458,4.1612,4.3572,4.5568,4.7445,4.8597,4.9499,4.9793,5.0076,5.0457,5.06,5.0648,5.0672,5.0696,5.0696,5.0696,3.418,3.3789,3.3789,3.3789,3.3809,3.4004,3.4407,3.4805,3.5019,3.5332,3.5684,3.5742,3.5859,3.6016,3.6035,3.6016,3.6035,3.6035,3.6035,3.6035,3.6035,3.6035,3.6035,3.6035,3.6035,3.6035,3.6035,3.6035,3.6035,3.6035,3.6035,3.6035,3.6035,3.5942,3.6035,3.6035,3.6016,3.5996,3.6016,3.6016,3.6035,3.6035,3.6035,3.6035,3.6035,3.6035,3.6074,3.6309,3.6445,3.6753,3.6855,3.709,3.7234,3.7145,3.711,3.6937,3.6853,3.6599,3.6363,3.6066,3.5813,3.576,3.5834,3.5944,3.5999,3.6072,3.6164,3.5981,3.6091,3.6201,3.6292,3.6439,3.6493,3.6566,3.664,3.675,3.6824,3.6989,3.7153,3.7208,3.7299,3.7336,3.7373,3.7318,3.7281,3.7354,3.7501,3.7537,3.7739,3.7959,3.7812,3.7759,3.805,3.8325,3.8362,3.8417,3.838,3.8527,3.8527,3.969,4.2172,4.4285,4.5766,4.7347,4.8637,4.9438,4.9997,5.0222,5.034,5.053,5.0696,5.0696,5.0696,5.0696,5.0696,3.4844,3.4551,3.4349,3.4212,3.4134,3.4329,3.4766,3.5351,3.5508,3.5723,3.5923,3.6016,3.6016,3.6035,3.6035,3.6035,3.6035,3.6035,3.6035,3.6035,3.6035,3.6035,3.6035,3.6035,3.6035,3.6035,3.6035,3.6035,3.6035,3.6035,3.6035,3.6035,3.6035,3.6035,3.6035,3.6035,3.6035,3.6035,3.6035,3.6035,3.6035,3.6035,3.6035,3.6035,3.6035,3.6035,3.6094,3.6426,3.6695,3.6949,3.7246,3.7484,3.752,3.7429,3.7166,3.6897,3.6699,3.6571,3.6441,3.6293,3.622,3.6202,3.6201,3.6146,3.6164,3.6201,3.6201,3.6146,3.631,3.6366,3.6439,3.6751,3.6896,3.7024,3.7134,3.7281,3.7428,3.7482,3.7556,3.7611,3.7721,3.7961,3.7904,3.7812,3.7757,3.7721,3.7757,3.7812,3.8069,3.838,3.8307,3.8105,3.8252,3.8508,3.8545,3.8582,3.86,3.86,3.86,3.955,4.1828,4.3549,4.4907,4.6551,4.8268,4.9196,4.964,4.9926,5.0175,5.0341,5.0519,5.0625,5.0696,5.0696,5.0696,3.5918,3.582,3.5,3.4525,3.4231,3.4994,3.5351,3.5547,3.5859,3.6016,3.604,3.6074,3.6099,3.6001,3.6074,3.6074,3.6035,3.6035,3.6035,3.6035,3.6035,3.6035,3.6035,3.6035,3.6035,3.6035,3.6035,3.6035,3.6035,3.6035,3.6035,3.6035,3.6035,3.6035,3.6035,3.6035,3.6035,3.6035,3.6035,3.6035,3.6035,3.6035,3.6035,3.6035,3.6035,3.6001,3.6021,3.6504,3.6968,3.7246,3.7585,3.7792,3.7771,3.7486,3.716,3.6848,3.6497,3.6349,3.6294,3.6257,3.6201,3.6182,3.6201,3.6201,3.6201,3.6201,3.6201,3.6237,3.6438,3.6658,3.6805,3.7079,3.7318,3.7409,3.7519,3.7629,3.7757,3.7886,3.7979,3.8014,3.8124,3.827,3.8325,3.8197,3.8179,3.8142,3.816,3.8215,3.8289,3.8527,3.8545,3.8472,3.849,3.8582,3.8582,3.86,3.86,3.86,3.86,3.9569,4.1055,4.2578,4.3777,4.5431,4.703,4.8186,4.9257,4.9544,4.983,5.0104,5.0341,5.059,5.0696,5.0696,5.0696,3.6035,3.5982,3.5937,3.5664,3.5312,3.5918,3.6206,3.625,3.6621,3.6641,3.6445,3.666,3.6504,3.6177,3.6309,3.625,3.6021,3.6035,3.6035,3.6035,3.6035,3.6035,3.6035,3.6035,3.6035,3.6035,3.6035,3.6035,3.6035,3.6035,3.6035,3.6035,3.6035,3.6035,3.6035,3.6035,3.6035,3.6035,3.6035,3.6035,3.6035,3.6035,3.6035,3.6035,3.6035,3.6191,3.6426,3.6836,3.7246,3.7585,3.7834,3.7887,3.7824,3.7365,3.6997,3.6775,3.6386,3.6238,3.6201,3.6201,3.6201,3.6201,3.6201,3.6201,3.6201,3.6219,3.6201,3.6329,3.6585,3.6841,3.6878,3.7336,3.7796,3.7812,3.7904,3.7995,3.8087,3.8197,3.8252,3.8289,3.838,3.8508,3.8545,3.8545,3.8545,3.8545,3.8582,3.86,3.86,3.86,3.86,3.86,3.86,3.86,3.86,3.86,3.86,3.86,3.86,3.949,4.0451,4.1132,4.2463,4.4155,4.5639,4.6714,4.7799,4.8874,4.9544,5.0033,5.0377,5.0625,5.0696,5.0696,5.0696,3.6289,3.6445,3.689,3.6719,3.6309,3.668,3.689,3.6949,3.7129,3.7148,3.691,3.7031,3.6894,3.6543,3.6348,3.6445,3.6211,3.6113,3.6055,3.6035,3.6035,3.6035,3.6035,3.6035,3.6035,3.6035,3.6035,3.6035,3.6035,3.6035,3.6035,3.6035,3.6035,3.6035,3.6035,3.6035,3.6035,3.6035,3.6035,3.6035,3.6035,3.6035,3.6035,3.5967,3.5899,3.6044,3.6359,3.6697,3.7016,3.7369,3.7609,3.7695,3.7495,3.72,3.6775,3.659,3.6386,3.6201,3.6201,3.6201,3.6201,3.6201,3.6201,3.6201,3.6219,3.6311,3.6457,3.6476,3.675,3.7006,3.7079,3.7686,3.8089,3.8124,3.827,3.838,3.8398,3.8472,3.8508,3.8527,3.86,3.86,3.86,3.86,3.86,3.86,3.86,3.86,3.86,3.86,3.86,3.86,3.86,3.86,3.86,3.86,3.86,3.86,3.8679,3.8996,3.9765,4.0412,4.1132,4.254,4.3928,4.5132,4.6396,4.7667,4.891,5.0033,5.0377,5.0625,5.0696,5.0696,5.0696,3.691,3.7305,3.766,3.7402,3.6851,3.7129,3.7305,3.7305,3.7383,3.7363,3.7266,3.7066,3.7047,3.6992,3.6562,3.6445,3.6445,3.6191,3.6035,3.6035,3.6035,3.6035,3.6035,3.6035,3.6035,3.6035,3.6035,3.6035,3.6035,3.6035,3.6035,3.6035,3.6035,3.6035,3.6035,3.6035,3.6035,3.6035,3.6035,3.6035,3.6035,3.6001,3.5982,3.5845,3.5709,3.5819,3.6201,3.6352,3.6666,3.7108,3.7323,3.7273,3.6997,3.6849,3.6571,3.6275,3.6238,3.6201,3.6201,3.6201,3.6237,3.6237,3.6256,3.6329,3.6347,3.6512,3.6786,3.6842,3.7134,3.7539,3.7796,3.8034,3.8234,3.8398,3.8545,3.86,3.86,3.86,3.86,3.86,3.86,3.86,3.86,3.86,3.86,3.86,3.86,3.86,3.86,3.86,3.86,3.86,3.86,3.86,3.86,3.86,3.86,3.86,3.8679,3.8956,3.9254,3.9825,4.0568,4.1249,4.2309,4.3625,4.5095,4.6529,4.8091,4.9652,5.0306,5.059,5.0625,5.0696,5.0696,3.7105,3.7715,3.7835,3.793,3.7985,3.8102,3.7988,3.7757,3.7969,3.7988,3.7812,3.7812,3.7598,3.7305,3.7031,3.6777,3.6616,3.623,3.6035,3.6035,3.6035,3.6035,3.6035,3.6035,3.6035,3.6035,3.6035,3.6035,3.6035,3.6035,3.6035,3.6035,3.6035,3.6035,3.6035,3.6035,3.6035,3.6035,3.6035,3.6035,3.6001,3.5982,3.5879,3.5675,3.5504,3.564,3.6023,3.6093,3.6384,3.6859,3.7069,3.6904,3.6738,3.6627,3.6349,3.6201,3.6201,3.6201,3.6292,3.6384,3.6476,3.6421,3.6439,3.653,3.6621,3.697,3.7134,3.7244,3.7558,3.7851,3.7979,3.8252,3.8472,3.8508,3.86,3.86,3.86,3.86,3.86,3.86,3.86,3.86,3.86,3.86,3.86,3.86,3.86,3.86,3.86,3.86,3.86,3.86,3.86,3.86,3.86,3.86,3.86,3.86,3.86,3.8679,3.9056,3.9411,3.949,3.9903,4.1016,4.2194,4.3777,4.5506,4.7704,4.9198,4.9961,5.0519,5.066,5.0696,5.0696,3.7285,3.7894,3.8086,3.8301,3.8591,3.8611,3.8398,3.8223,3.8493,3.8398,3.8223,3.8301,3.8164,3.7734,3.7402,3.7207,3.6871,3.6465,3.6074,3.6074,3.6035,3.6035,3.6035,3.5967,3.6035,3.6001,3.5967,3.6035,3.6035,3.6035,3.6035,3.6035,3.6001,3.6035,3.6035,3.6035,3.6035,3.6001,3.5913,3.5777,3.5743,3.5641,3.547,3.5299,3.5204,3.5259,3.5633,3.5886,3.6115,3.6568,3.6682,3.6571,3.6516,3.6405,3.6201,3.6201,3.6201,3.6347,3.6659,3.6621,3.6695,3.6713,3.6786,3.686,3.697,3.7226,3.7428,3.7649,3.7888,3.8071,3.8215,3.8527,3.8472,3.849,3.86,3.86,3.86,3.86,3.86,3.86,3.86,3.86,3.86,3.86,3.86,3.86,3.86,3.86,3.86,3.86,3.86,3.86,3.86,3.86,3.86,3.86,3.86,3.86,3.86,3.86,3.864,3.8956,3.8719,3.86,3.9668,4.088,4.2596,4.4511,4.6986,4.8779,4.983,5.0341,5.0625,5.0696,5.0696,3.7559,3.7988,3.8398,3.8591,3.8611,3.8428,3.8409,3.8555,3.8611,3.8591,3.8591,3.8164,3.8164,3.8301,3.7676,3.7285,3.709,3.6738,3.6141,3.5957,3.5845,3.5777,3.5592,3.5577,3.5322,3.5542,3.5459,3.4985,3.5699,3.5654,3.5688,3.5592,3.5444,3.5493,3.5508,3.5512,3.563,3.5713,3.5606,3.547,3.5401,3.5196,3.5116,3.4982,3.4884,3.4957,3.5192,3.5367,3.552,3.5834,3.6054,3.6183,3.6201,3.6201,3.6201,3.6237,3.6274,3.6751,3.7061,3.7006,3.7134,3.7208,3.7079,3.7153,3.7318,3.7556,3.7776,3.7922,3.8105,3.8307,3.8508,3.8398,3.8289,3.8417,3.8582,3.86,3.86,3.86,3.86,3.86,3.86,3.86,3.86,3.86,3.86,3.86,3.86,3.86,3.86,3.86,3.86,3.86,3.86,3.86,3.86,3.86,3.86,3.86,3.86,3.86,3.86,3.86,3.86,3.86,3.86,3.9864,4.2366,4.4548,4.6618,4.8068,4.909,5.0068,5.0377,5.0625,5.0696,3.8008,3.8435,3.8552,3.8611,3.8428,3.7364,3.7511,3.8501,3.8611,3.8611,3.8611,3.8457,3.811,3.8532,3.7695,3.7296,3.6926,3.6448,3.5421,3.5165,3.5242,3.4336,3.3976,3.4037,3.3807,3.3405,3.3178,3.3551,3.3515,3.4043,3.386,3.2998,3.4178,3.435,3.4297,3.4283,3.4887,3.5295,3.5188,3.5184,3.5135,3.4982,3.4922,3.4864,3.4871,3.503,3.5262,3.5429,3.565,3.6017,3.6146,3.6219,3.6201,3.6219,3.6274,3.6621,3.686,3.7171,3.7373,3.7537,3.7666,3.7757,3.7666,3.7723,3.7849,3.7995,3.8197,3.827,3.8325,3.849,3.8545,3.8472,3.8398,3.849,3.86,3.86,3.86,3.86,3.86,3.86,3.86,3.86,3.86,3.86,3.86,3.86,3.86,3.86,3.86,3.86,3.86,3.86,3.86,3.86,3.86,3.86,3.86,3.86,3.86,3.86,3.86,3.86,3.86,3.86,3.86,4.0354,4.2882,4.4586,4.5596,4.6912,4.8018,4.9162,5.0068,5.0139,5.0519,3.684,3.67,3.6645,3.6645,3.6497,3.5625,3.5811,3.6571,3.6645,3.6682,3.6645,3.6571,3.6645,3.6479,3.598,3.5648,3.5444,3.4916,3.4177,3.3871,3.4307,3.3428,3.2877,3.2787,3.2876,3.2215,3.1998,3.2584,3.2315,3.2747,3.2823,3.2325,3.3072,3.2877,3.2966,3.3304,3.3874,3.4382,3.4724,3.4874,3.4963,3.4936,3.4952,3.5067,3.5126,3.5391,3.5595,3.5705,3.5998,3.6347,3.6457,3.6549,3.6622,3.6695,3.6897,3.7208,3.7244,3.7574,3.7849,3.7943,3.8089,3.816,3.8197,3.8215,3.816,3.8215,3.8362,3.8472,3.8545,3.86,3.86,3.86,3.86,3.86,3.86,3.86,3.86,3.86,3.86,3.86,3.86,3.86,3.86,3.86,3.86,3.86,3.86,3.86,3.86,3.86,3.86,3.86,3.86,3.86,3.86,3.86,3.86,3.86,3.86,3.86,3.86,3.86,3.86,3.86,3.86,4.051,4.2366,4.3034,4.3983,4.5415,4.6633,4.7428,4.8341,4.8946,4.9509,3.4746,3.3809,3.3696,3.3809,3.3524,3.3524,3.3487,3.3318,3.3318,3.3507,3.3827,3.3809,3.4073,3.4414,3.4184,3.3881,3.3783,3.3501,3.2985,3.2402,3.2883,3.2358,3.1736,3.218,3.1766,3.1999,3.1886,3.117,3.1833,3.2089,3.216,3.2213,3.1953,3.1679,3.1564,3.1986,3.2481,3.298,3.3749,3.4269,3.4927,3.5058,3.5083,3.5284,3.5522,3.5779,3.5833,3.6034,3.6251,3.6468,3.6328,3.632,3.6732,3.6893,3.7206,3.7739,3.7702,3.7959,3.8197,3.8234,3.8289,3.8435,3.86,3.8527,3.8435,3.8362,3.8453,3.8545,3.86,3.86,3.86,3.86,3.86,3.86,3.86,3.86,3.86,3.86,3.86,3.86,3.86,3.86,3.86,3.86,3.86,3.86,3.86,3.86,3.8728,3.8728,3.8692,3.8673,3.8618,3.8618,3.86,3.86,3.86,3.86,3.8637,3.86,3.86,3.86,3.86,3.86,3.8679,3.9746,4.119,4.2082,4.3124,4.431,4.5315,4.5685,4.6387,4.7291,4.8437,3.3966,3.3696,3.3696,3.3015,3.1944,3.1868,3.1178,3.0075,3.006,3.1469,3.3356,3.3583,3.3545,3.3264,3.3006,3.28,3.2811,3.223,3.1782,3.1548,3.1695,3.1,2.9887,3.0638,3.0366,2.9425,2.9192,2.9722,2.994,3.0385,3.0426,2.9397,2.9877,3.0566,3.0046,3.0489,3.0931,3.1577,3.2326,3.3668,3.492,3.5449,3.5687,3.5979,3.6306,3.6263,3.6086,3.5578,3.5411,3.5167,3.3831,3.4133,3.5271,3.5683,3.6603,3.7647,3.7946,3.8146,3.8453,3.8472,3.849,3.8527,3.86,3.86,3.8563,3.849,3.849,3.8563,3.86,3.86,3.86,3.86,3.86,3.86,3.86,3.86,3.86,3.86,3.86,3.86,3.86,3.86,3.86,3.8618,3.86,3.86,3.86,3.8673,3.8985,3.9076,3.893,3.8875,3.8692,3.8655,3.8655,3.8783,3.8915,3.8801,3.882,3.8728,3.8655,3.8765,3.8915,3.8673,3.8877,3.9877,4.0798,4.1739,4.2733,4.353,4.4019,4.4408,4.4726,4.5502,4.6873,3.2195,3.1622,3.1545,3.1085,3.0346,3.023,2.9688,2.9003,2.8886,2.9881,3.1392,3.1584,3.1622,3.1622,3.1337,3.1393,3.1323,3.0984,3.04,3.0186,3.0297,2.9785,2.9442,2.9426,2.9273,2.8591,2.8749,2.9007,2.8918,2.9436,2.9679,2.8668,2.9419,2.9399,2.886,2.9162,2.9685,3.0408,3.1019,3.2471,3.4232,3.4339,3.4246,3.4732,3.4994,3.5245,3.5018,3.4367,3.4269,3.4057,3.3363,3.3307,3.4149,3.4401,3.5446,3.6552,3.725,3.7787,3.8264,3.8521,3.8521,3.856,3.86,3.86,3.86,3.8527,3.8545,3.86,3.86,3.86,3.86,3.86,3.86,3.86,3.86,3.86,3.86,3.86,3.86,3.86,3.86,3.86,3.8673,3.8875,3.8875,3.9025,3.897,3.9135,3.9392,3.9502,3.9355,3.9263,3.919,3.8966,3.8948,3.9153,3.9318,3.9226,3.908,3.9208,3.9263,3.9245,3.919,3.9116,3.9237,3.9749,4.0643,4.1379,4.1655,4.213,4.2665,4.3141,4.3539,4.4115,4.568,3.023,2.8964,2.8964,2.8925,2.8886,2.8925,2.8925,2.8886,2.8886,2.8886,2.9158,2.9197,2.8886,2.8886,2.8886,2.8886,2.9075,2.9537,2.9147,2.9046,2.9123,2.9073,2.9079,2.9017,2.9022,2.9154,2.932,2.954,2.9712,2.9851,2.957,2.9153,2.8763,2.8356,2.837,2.8735,2.9408,2.9679,3.0313,3.1385,3.1978,3.2338,3.269,3.2674,3.2665,3.2855,3.2912,3.2716,3.2899,3.2554,3.2427,3.2453,3.2723,3.3,3.4075,3.5097,3.5621,3.6551,3.753,3.7946,3.8225,3.8481,3.8521,3.8521,3.8481,3.8521,3.8521,3.86,3.86,3.86,3.86,3.86,3.86,3.86,3.86,3.86,3.86,3.8618,3.8618,3.8637,3.8673,3.8673,3.8838,3.9058,3.9263,3.9392,3.9579,3.9781,3.9987,3.9964,3.985,3.9905,3.9983,3.9722,3.941,3.9465,3.9707,3.9634,3.9542,3.9744,3.9836,3.9652,3.9615,3.9707,3.9907,4.0032,4.0269,4.0793,4.0949,4.1268,4.2206,4.2991,4.3114,4.3859,4.4994,2.9197,2.8886,2.8886,2.8886,2.8886,2.8886,2.8886,2.8886,2.8886,2.8886,2.8886,2.8886,2.8886,2.8886,2.8886,2.8886,2.8886,2.8886,2.8886,2.8925,2.8886,2.8886,2.8988,2.9193,2.9467,2.9603,2.972,2.9807,2.9879,2.9592,2.9241,2.9045,2.8606,2.8289,2.8188,2.8482,2.8496,2.88,2.8731,2.9322,3.011,3.0985,3.2788,3.307,3.3213,3.3301,3.2975,3.1883,3.1418,3.0883,3.0289,3.0497,3.0856,3.1395,3.2289,3.3381,3.3887,3.4904,3.585,3.6414,3.6752,3.7747,3.7787,3.8026,3.8066,3.8264,3.8362,3.86,3.86,3.86,3.86,3.86,3.86,3.86,3.86,3.86,3.86,3.8637,3.8673,3.8801,3.893,3.9003,3.9171,3.941,3.9726,3.9817,3.9891,4.0134,4.0368,4.0387,4.0368,4.0478,4.0588,4.0295,3.9928,3.9872,3.9983,3.9946,3.9964,4.0111,4.0111,3.9891,3.9891,4.0111,4.0038,4.0069,4.0284,4.0688,4.1013,4.1496,4.2395,4.3063,4.3089,4.3587,4.4744]},{"header":{"parameterUnit":"m.s-1","parameterCategory":1,"la1":31.0,"la2":29.5877,"lo1":-88.7671,"lo2":-86.6584,"dx":0.0162,"dy":0.0185,"nx":115,"ny":88,"refTime":"2022-11-07T18:00:00:Z","depth":0,"parameterNumber":3,"parameterNumberName":"V-component_of_WINDS"},"data":[0.0,0.0,0.0,0.0,0.0,0.0,0.0,0.0,0.0,0.0,0.0,0.0,0.0,0.0,0.0,0.0,0.0,0.0,0.0,0.0,0.0,0.0,0.0,0.0,0.0,0.0,0.0,0.0,0.0,0.0,0.0,0.0,0.0,0.0,0.0,0.0,0.0,0.0,0.0,0.0,0.0,0.0,0.0,0.0,0.0,0.0,0.0,0.0,0.0,0.0,0.0,0.0,0.0,0.0,0.0,0.0,0.0,0.0,0.0,0.0,0.0,0.0,0.0,0.0,0.0,0.0,0.0,0.0,0.0,0.0,0.0,0.0,0.0,0.0,0.0,0.0,0.0,0.0,0.0,0.0,0.0,0.0,0.0,0.0,0.0,0.0,0.0,0.0,0.0,0.0,0.0,0.0,0.0,0.0,0.0,0.0,0.0,0.0,0.0,0.0,0.0,0.0,0.0,0.0,0.0,0.0,0.0,0.0,0.0,0.0,0.0,0.0,0.0,0.0,0.0,0.0,0.0,0.0,0.0,0.0,0.0,0.0,0.0,0.0,0.0,0.0,0.0,0.0,0.0,0.0,0.0,0.0,0.0,0.0,0.0,0.0,0.0,0.0,0.0,0.0,0.0,0.0,0.0,0.0,0.0,0.0,0.0,0.0,0.0,0.0,0.0,0.0,0.0,0.0,0.0,0.0,0.0,0.0,0.0,0.0,0.0,0.0,0.0,0.0,0.0,0.0,0.0,0.0,0.0,0.0,0.0,0.0,0.0,0.0,0.0,0.0,0.0,0.0,0.0,0.0,0.0,0.0,0.0,0.0,0.0,0.0,0.0,0.0,0.0,0.0,0.0,0.0,0.0,0.0,0.0,0.0,0.0,0.0,0.0,0.0,0.0,0.0,0.0,0.0,0.0,0.0,0.0,0.0,0.0,0.0,0.0,0.0,0.0,0.0,0.0,0.0,0.0,0.0,0.0,0.0,0.0,0.0,0.0,0.0,0.0,0.0,0.0,0.0,0.0,0.0,0.0,0.0,0.0,0.0,0.0,0.0,0.0,0.0,0.0,0.0,0.0,0.0,0.0,0.0,0.0,0.0,0.0,0.0,0.0,0.0,0.0,0.0,0.0,0.0,0.0,0.0,0.0,0.0,0.0,0.0,0.0,0.0,0.0,0.0,0.0,0.0,0.0,0.0,0.0,0.0,0.0,0.0,0.0,0.0,0.0,0.0,0.0,0.0,0.0,0.0,0.0,0.0,0.0,0.0,0.0,0.0,0.0,0.0,0.0,0.0,0.0,0.0,0.0,0.0,0.0,0.0,0.0,0.0,0.0,0.0,0.0,0.0,0.0,0.0,0.0,0.0,0.0,0.0,0.0,0.0,0.0,0.0,0.0,0.0,0.0,0.0,0.0,0.0,0.0,0.0,0.0,0.0,0.0,0.0,0.0,0.0,0.0,0.0,0.0,0.0,0.0,0.0,0.0,0.0,0.0,0.0,0.0,0.0,0.0,0.0,0.0,0.0,0.0,0.0,0.0,0.0,0.0,0.0,0.0,0.0,0.0,0.0,0.0,0.0,0.0,0.0,0.0,0.0,0.0,0.0,0.0,0.0,0.0,0.0,0.0,0.0,0.0,0.0,0.0,0.0,0.0,0.0,0.0,0.0,0.0,0.0,0.0,0.0,0.0,0.0,0.0,0.0,0.0,0.0,0.0,0.0,0.0,0.0,0.0,0.0,0.0,0.0,0.0,0.0,0.0,0.0,0.0,0.0,0.0,0.0,0.0,0.0,0.0,0.0,0.0,0.0,0.0,0.0,0.0,0.0,0.0,0.0,0.0,0.0,0.0,0.0,0.0,0.0,0.0,0.0,0.0,0.0,0.0,0.0,0.0,0.0,0.0,0.0,0.0,0.0,0.0,0.0,0.0,0.0,0.0,0.0,0.0,0.0,0.0,0.0,0.0,0.0,0.0,0.0,0.0,0.0,0.0,0.0,0.0,0.0,0.0,0.0,0.0,0.0,0.0,0.0,0.0,0.0,0.0,0.0,0.0,0.0,0.0,0.0,0.0,0.0,0.0,0.0,0.0,0.0,0.0,0.0,0.0,0.0,0.0,0.0,0.0,0.0,0.0,0.0,0.0,0.0,0.0,0.0,0.0,0.0,0.0,0.0,0.0,0.0,0.0,0.0,0.0,0.0,0.0,0.0,0.0,0.0,0.0,0.0,0.0,0.0,0.0,0.0,0.0,0.0,0.0,0.0,0.0,0.0,0.0,0.0,0.0,0.0,0.0,0.0,0.0,0.0,0.0,0.0,0.0,0.0,0.0,0.0,0.0,0.0,0.0,0.0,0.0,0.0,0.0,0.0,0.0,0.0,0.0,0.0,0.0,0.0,0.0,0.0,0.0,0.0,0.0,0.0,0.0,0.0,0.0,0.0,0.0,0.0,0.0,0.0,0.0,0.0,0.0,0.0,0.0,0.0,0.0,0.0,0.0,0.0,0.0,0.0,0.0,0.0,0.0,0.0,0.0,0.0,0.0,0.0,0.0,0.0,0.0,0.0,0.0,0.0,0.0,0.0,0.0,0.0,0.0,0.0,0.0,0.0,0.0,0.0,0.0,0.0,0.0,0.0,0.0,0.0,0.0,0.0,0.0,0.0,0.0,0.0,0.0,0.0,0.0,0.0,0.0,0.0,0.0,0.0,0.0,0.0,0.0,0.0,0.0,0.0,0.0,0.0,0.0,0.0,0.0,0.0,0.0,0.0,0.0,0.0,0.0,0.0,0.0,0.0,0.0,0.0,0.0,0.0,0.0,0.0,0.0,0.0,0.0,0.0,0.0,0.0,0.0,0.0,0.0,0.0,0.0,0.0,0.0,0.0,0.0,0.0,0.0,0.0,0.0,0.0,0.0,0.0,0.0,0.0,0.0,0.0,0.0,0.0,0.0,0.0,0.0,0.0,0.0,0.0,0.0,0.0,0.0,0.0,0.0,0.0,0.0,0.0,0.0,0.0,0.0,0.0,0.0,0.0,0.0,0.0,0.0,0.0,0.0,0.0,0.0,0.0,0.0,0.0,0.0,0.0,0.0,0.0,0.0,0.0,0.0,0.0,0.0,0.0,0.0,0.0,0.0,0.0,0.0,0.0,0.0,0.0,0.0,0.0,0.0,0.0,0.0,0.0,0.0,0.0,0.0,0.0,0.0,0.0,0.0,0.0,0.0,0.0,0.0,0.0,0.0,0.0,0.0,0.0,0.0,0.0,0.0,0.0,0.0,0.0,0.0,0.0,0.0,0.0,0.0,0.0,0.0,0.0,0.0,0.0,0.0,0.0,0.0,0.0,0.0,0.0,0.0,0.0,0.0,0.0,0.0,0.0,0.0,0.0,0.0,0.0,0.0,0.0,0.0,0.0,0.0,0.0,0.0,0.0,0.0,0.0,0.0,0.0,0.0,0.0,0.0,0.0,0.0,0.0,0.0,0.0,0.0,0.0,0.0,0.0,0.0,0.0,0.0,0.0,0.0,0.0,0.0,0.0,0.0,0.0,0.0,0.0,0.0,0.0,0.0,0.0,0.0,0.0,0.0,0.0,0.0,0.0,0.0,0.0,0.0,0.0,0.0,0.0,0.0,0.0,0.0,0.0,0.0,0.0,0.0,0.0,0.0,0.0,0.0,0.0,0.0,0.0,0.0,0.0,0.0,0.0,0.0,0.0,0.0,0.0,0.0,0.0,0.0,0.0,0.0,0.0,0.0,0.0,0.0,0.0,0.0,0.0,0.0,0.0,0.0,0.0,0.0,0.0,0.0,0.0,0.0,0.0,0.0,0.0,0.0,0.0,0.0,0.0,0.0,0.0,0.0,0.0,0.0,0.0,0.0,0.0,0.0,0.0,0.0,0.0,0.0,0.0,0.0,0.0,0.0,0.0,0.0,0.0,0.0,0.0,0.0,0.0,0.0,0.0,0.0,0.0,0.0,0.0,0.0,0.0,0.0,0.0,0.0,0.0,0.0,0.0,0.0,0.0,0.0,0.0,0.0,0.0,0.0,0.0,0.0,0.0,0.0,0.0,0.0,0.0,0.0,0.0,0.0,0.0,0.0,0.0,0.0,0.0,0.0,0.0,0.0,0.0,0.0,0.0,0.0,0.0,0.0,0.0,0.0,0.0,0.0,0.0,0.0,0.0,0.0,0.0,0.0,0.0,0.0,0.0,0.0,0.0,0.0,0.0,0.0,0.0,0.0,0.0,0.0,0.0,0.0,0.0,0.0,0.0,2.0265,0.0,0.0,0.0,1.9272,0.0,0.0,0.0,0.0,0.0,0.0,0.0,0.0,0.0,0.0,0.0,0.0,0.0,0.0,0.0,0.0,0.0,0.0,0.0,0.0,0.0,0.0,0.0,0.0,0.0,0.0,0.0,0.0,0.0,0.0,0.0,0.0,0.0,0.0,0.0,0.0,0.0,0.0,0.0,0.0,0.0,0.0,0.0,0.0,0.0,0.0,0.0,0.0,0.0,0.0,0.0,0.0,0.0,0.0,0.0,0.0,0.0,0.0,0.0,0.0,0.0,0.0,0.0,0.0,0.0,0.0,0.0,0.0,0.0,0.0,0.0,0.0,0.0,0.0,0.0,0.0,0.0,0.0,0.0,0.0,0.0,0.0,0.0,0.0,0.0,0.0,0.0,0.0,0.0,0.0,0.0,0.0,0.0,0.0,0.0,0.0,0.0,0.0,0.0,0.0,0.0,0.0,0.0,0.0,0.0,0.0,0.0,0.0,0.0,0.0,2.0414,2.1014,2.0806,2.0192,1.925,0.0,0.0,0.0,0.0,0.0,0.0,0.0,0.0,0.0,0.0,0.0,0.0,0.0,0.0,0.0,0.0,0.0,0.0,0.0,0.0,0.0,0.0,0.0,0.0,0.0,0.0,0.0,0.0,0.0,0.0,0.0,0.0,0.0,0.0,0.0,0.0,0.0,0.0,0.0,0.0,0.0,0.0,0.0,0.0,0.0,0.0,0.0,0.0,0.0,0.0,0.0,0.0,0.0,0.0,0.0,0.0,0.0,0.0,0.0,0.0,0.0,0.0,0.0,0.0,0.0,0.0,0.0,0.0,0.0,0.0,0.0,0.0,0.0,0.0,0.0,0.0,0.0,0.0,0.0,0.0,0.0,0.0,0.0,0.0,0.0,0.0,0.0,0.0,0.0,0.0,0.0,0.0,0.0,0.0,0.0,0.0,0.0,0.0,0.0,0.0,0.0,0.0,0.0,0.0,0.0,0.0,0.0,0.0,0.0,0.0,0.0,0.0,2.1205,2.0709,1.9538,0.0,0.0,0.0,0.0,0.0,0.0,0.0,0.0,0.0,0.0,0.0,0.0,0.0,0.0,0.0,0.0,0.0,0.0,0.0,0.0,0.0,0.0,0.0,0.0,0.0,0.0,0.0,0.0,0.0,0.0,0.0,0.0,0.0,0.0,0.0,0.0,0.0,0.0,0.0,0.0,0.0,0.0,0.0,0.0,0.0,0.0,0.0,0.0,0.0,0.0,0.0,0.0,0.0,0.0,0.0,0.0,0.0,0.0,0.0,0.0,0.0,0.0,0.0,0.0,0.0,0.0,0.0,0.0,0.0,0.0,0.0,0.0,0.0,0.0,0.0,0.0,0.0,0.0,0.0,0.0,0.0,0.0,0.0,0.0,0.0,0.0,0.0,0.0,0.0,0.0,0.0,0.0,0.0,0.0,0.0,0.0,0.0,0.0,0.0,0.0,0.0,0.0,0.0,0.0,0.0,0.0,0.0,0.0,0.0,0.0,1.997,2.1662,2.2041,0.0,2.0588,0.0,0.0,0.0,0.0,0.0,0.0,0.0,0.0,0.0,0.0,0.0,0.0,0.0,0.0,0.0,0.0,0.0,0.0,0.0,0.0,0.0,0.0,0.0,0.0,0.0,0.0,0.0,0.0,0.0,0.0,0.0,0.0,0.0,0.0,0.0,0.0,0.0,0.0,0.0,0.0,0.0,0.0,0.0,0.0,0.0,0.0,0.0,0.0,0.0,0.0,0.0,0.0,0.0,0.0,0.0,0.0,0.0,0.0,0.0,0.0,0.0,0.0,0.0,0.0,0.0,0.0,0.0,0.0,0.0,0.0,0.0,0.0,0.0,0.0,0.0,0.0,0.0,0.0,0.0,0.0,0.0,0.0,0.0,0.0,0.0,0.0,0.0,0.0,0.0,0.0,0.0,0.0,0.0,0.0,0.0,0.0,0.0,0.0,0.0,0.0,0.0,0.0,0.0,0.0,0.0,0.0,0.0,0.0,0.0,0.0,1.9774,2.099,2.1191,2.0864,0.0,0.0,0.0,0.0,0.0,0.0,0.0,0.0,0.0,0.0,0.0,0.0,0.0,0.0,0.0,0.0,0.0,0.0,0.0,0.0,0.0,0.0,0.0,0.0,0.0,0.0,0.0,0.0,0.0,0.0,0.0,0.0,0.0,0.0,0.0,0.0,0.0,0.0,0.0,0.0,0.0,0.0,0.0,0.0,0.0,0.0,0.0,0.0,0.0,0.0,0.0,0.0,0.0,0.0,0.0,0.0,0.0,0.0,0.0,0.0,0.0,0.0,0.0,0.0,0.0,0.0,0.0,0.0,0.0,0.0,0.0,0.0,0.0,0.0,0.0,0.0,0.0,0.0,0.0,0.0,0.0,0.0,0.0,0.0,0.0,0.0,0.0,0.0,0.0,0.0,0.0,0.0,0.0,0.0,0.0,0.0,0.0,0.0,0.0,0.0,0.0,0.0,0.0,0.0,0.0,0.0,0.0,0.0,0.0,0.0,1.8806,1.9697,2.076,2.0974,2.0574,1.9644,0.0,0.0,0.0,0.0,0.0,0.0,0.0,0.0,0.0,0.0,0.0,0.0,0.0,0.0,0.0,0.0,0.0,0.0,0.0,0.0,0.0,0.0,0.0,0.0,0.0,0.0,0.0,0.0,0.0,0.0,0.0,0.0,0.0,0.0,0.0,0.0,0.0,0.0,0.0,0.0,0.0,0.0,0.0,0.0,0.0,0.0,0.0,0.0,0.0,0.0,0.0,0.0,0.0,0.0,0.0,0.0,0.0,0.0,0.0,0.0,0.0,0.0,0.0,0.0,0.0,0.0,0.0,0.0,0.0,0.0,0.0,0.0,0.0,0.0,0.0,0.0,0.0,0.0,0.0,0.0,0.0,0.0,0.0,0.0,0.0,0.0,0.0,0.0,0.0,0.0,0.0,0.0,0.0,0.0,0.0,0.0,0.0,0.0,0.0,0.0,0.0,0.0,0.0,0.0,0.0,0.0,0.0,0.0,1.9771,1.9191,1.9713,2.1581,2.205,2.1447,0.0,0.0,0.0,0.0,0.0,0.0,0.0,0.0,0.0,0.0,0.0,0.0,0.0,0.0,0.0,0.0,0.0,0.0,0.0,0.0,0.0,0.0,0.0,0.0,0.0,0.0,0.0,0.0,0.0,0.0,0.0,0.0,0.0,0.0,0.0,0.0,0.0,0.0,0.0,0.0,0.0,0.0,0.0,0.0,0.0,0.0,0.0,0.0,0.0,0.0,0.0,0.0,0.0,0.0,0.0,0.0,0.0,0.0,0.0,0.0,0.0,0.0,0.0,0.0,0.0,0.0,0.0,0.0,0.0,0.0,0.0,0.0,0.0,0.0,0.0,0.0,0.0,0.0,0.0,0.0,0.0,0.0,0.0,0.0,0.0,0.0,0.0,0.0,0.0,0.0,0.0,0.0,0.0,0.0,0.0,0.0,0.0,0.0,0.0,0.0,0.0,0.0,0.0,0.0,0.0,0.0,0.0,0.0,0.0,1.7077,1.7908,1.9633,2.2173,2.1158,2.0621,0.0,0.0,0.0,0.0,0.0,0.0,0.0,0.0,0.0,0.0,0.0,0.0,0.0,0.0,0.0,0.0,0.0,0.0,0.0,0.0,0.0,0.0,0.0,0.0,0.0,0.0,0.0,0.0,0.0,0.0,0.0,0.0,0.0,0.0,0.0,0.0,0.0,0.0,0.0,0.0,0.0,0.0,0.0,0.0,0.0,0.0,0.0,0.0,0.0,0.0,0.0,0.0,0.0,0.0,0.0,0.0,0.0,0.0,0.0,0.0,0.0,0.0,0.0,0.0,0.0,0.0,0.0,0.0,0.0,0.0,0.0,0.0,0.0,0.0,0.0,0.0,0.0,0.0,0.0,0.0,0.0,0.0,0.0,0.0,0.0,0.0,0.0,0.0,0.0,0.0,0.0,0.0,0.0,0.0,0.0,0.0,0.0,0.0,0.0,0.0,0.0,0.0,0.0,0.0,0.0,0.0,0.0,0.0,0.0,1.6558,1.8233,2.0006,2.1691,2.0567,2.0051,0.0,0.0,0.0,0.0,0.0,0.0,0.0,0.0,0.0,0.0,0.0,0.0,0.0,0.0,0.0,0.0,0.0,0.0,0.0,0.0,0.0,0.0,0.0,0.0,0.0,0.0,0.0,0.0,0.0,0.0,0.0,0.0,0.0,0.0,0.0,0.0,0.0,0.0,0.0,0.0,0.0,0.0,0.0,0.0,0.0,0.0,0.0,0.0,0.0,0.0,0.0,0.0,0.0,0.0,0.0,0.0,0.0,0.0,0.0,0.0,0.0,0.0,0.0,0.0,0.0,0.0,0.0,0.0,0.0,0.0,0.0,0.0,0.0,0.0,0.0,0.0,0.0,0.0,0.0,0.0,0.0,0.0,0.0,0.0,0.0,0.0,0.0,0.0,0.0,0.0,0.0,0.0,0.0,0.0,0.0,0.0,0.0,0.0,0.0,0.0,0.0,0.0,0.0,0.0,0.0,0.0,0.0,0.0,1.6457,1.876,2.0352,2.0869,2.0212,2.0624,1.9828,0.0,0.0,0.0,0.0,0.0,0.0,0.0,0.0,0.0,0.0,0.0,0.0,0.0,0.0,0.0,0.0,0.0,0.0,0.0,0.0,0.0,0.0,0.0,0.0,0.0,0.0,0.0,0.0,0.0,0.0,0.0,0.0,0.0,0.0,0.0,0.0,0.0,0.0,0.0,0.0,0.0,0.0,0.0,0.0,0.0,0.0,0.0,0.0,0.0,0.0,0.0,0.0,0.0,0.0,0.0,0.0,0.0,0.0,0.0,0.0,0.0,0.0,0.0,0.0,0.0,0.0,0.0,0.0,0.0,0.0,0.0,0.0,0.0,0.0,0.0,0.0,0.0,0.0,0.0,0.0,0.0,0.0,0.0,0.0,0.0,0.0,0.0,0.0,0.0,0.0,0.0,0.0,0.0,0.0,0.0,0.0,0.0,0.0,0.0,0.0,0.0,0.0,0.0,0.0,0.0,0.0,0.0,0.0,0.0,1.7496,1.9649,2.1129,2.1689,2.073,2.0325,0.0,0.0,0.0,0.0,0.0,0.0,0.0,0.0,0.0,0.0,0.0,0.0,0.0,0.0,0.0,0.0,0.0,0.0,0.0,0.0,0.0,0.0,0.0,0.0,0.0,0.0,0.0,0.0,0.0,0.0,0.0,0.0,0.0,0.0,0.0,0.0,0.0,0.0,0.0,0.0,0.0,0.0,0.0,0.0,0.0,0.0,0.0,0.0,0.0,0.0,0.0,0.0,0.0,0.0,0.0,0.0,0.0,0.0,0.0,0.0,0.0,0.0,0.0,0.0,0.0,0.0,0.0,0.0,0.0,0.0,0.0,0.0,0.0,0.0,0.0,0.0,0.0,0.0,0.0,0.0,0.0,0.0,0.0,0.0,0.0,0.0,0.0,0.0,0.0,0.0,0.0,0.0,0.0,0.0,0.0,0.0,0.0,0.0,0.0,0.0,0.0,0.0,0.0,0.0,0.0,0.0,0.0,0.0,0.0,1.9573,2.125,2.2535,2.327,2.1693,2.1167,2.1853,0.0,0.0,0.0,0.0,0.0,0.0,0.0,0.0,0.0,0.0,0.0,0.0,0.0,0.0,0.0,0.0,0.0,0.0,0.0,0.0,0.0,0.0,0.0,0.0,0.0,0.0,0.0,0.0,0.0,0.0,0.0,0.0,0.0,0.0,0.0,0.0,0.0,0.0,0.0,0.0,0.0,0.0,0.0,0.0,0.0,0.0,0.0,0.0,0.0,0.0,0.0,0.0,0.0,0.0,0.0,0.0,0.0,0.0,0.0,0.0,0.0,0.0,0.0,0.0,0.0,0.0,0.0,0.0,0.0,0.0,0.0,0.0,0.0,0.0,0.0,0.0,0.0,0.0,0.0,0.0,0.0,0.0,0.0,0.0,0.0,0.0,0.0,0.0,0.0,0.0,0.0,0.0,0.0,0.0,0.0,0.0,0.0,0.0,0.0,0.0,0.0,0.0,0.0,0.0,0.0,0.0,0.0,0.0,2.4049,2.4723,2.4979,2.478,2.3266,2.2356,0.0,0.0,0.0,0.0,0.0,0.0,0.0,0.0,0.0,0.0,0.0,0.0,0.0,0.0,0.0,0.0,0.0,0.0,0.0,0.0,0.0,0.0,0.0,0.0,0.0,0.0,0.0,0.0,0.0,0.0,0.0,0.0,0.0,0.0,0.0,0.0,0.0,0.0,0.0,0.0,0.0,0.0,0.0,0.0,0.0,0.0,0.0,0.0,0.0,0.0,0.0,0.0,0.0,0.0,0.0,0.0,0.0,0.0,0.0,0.0,0.0,0.0,0.0,0.0,0.0,0.0,0.0,0.0,0.0,0.0,0.0,0.0,0.0,0.0,0.0,0.0,0.0,0.0,0.0,0.0,0.0,0.0,0.0,0.0,0.0,0.0,0.0,0.0,0.0,0.0,0.0,0.0,0.0,0.0,0.0,0.0,0.0,0.0,0.0,0.0,0.0,0.0,0.0,0.0,0.0,0.0,0.0,0.0,0.0,2.4934,2.6613,2.731,2.6937,2.461,2.3455,0.0,0.0,0.0,0.0,0.0,0.0,0.0,0.0,0.0,0.0,0.0,0.0,0.0,0.0,0.0,0.0,0.0,0.0,0.0,0.0,0.0,0.0,0.0,0.0,0.0,0.0,0.0,0.0,0.0,0.0,0.0,0.0,0.0,0.0,0.0,0.0,0.0,0.0,0.0,0.0,0.0,0.0,0.0,0.0,0.0,0.0,0.0,0.0,0.0,0.0,0.0,0.0,0.0,0.0,0.0,0.0,0.0,0.0,0.0,0.0,0.0,0.0,0.0,0.0,0.0,0.0,0.0,0.0,0.0,0.0,0.0,0.0,0.0,0.0,0.0,0.0,0.0,0.0,0.0,0.0,0.0,0.0,0.0,0.0,0.0,0.0,0.0,0.0,0.0,0.0,0.0,0.0,0.0,0.0,0.0,0.0,0.0,0.0,0.0,0.0,0.0,0.0,0.0,0.0,0.0,0.0,0.0,0.0,2.4311,2.6925,2.7965,2.8626,2.8928,2.6706,2.5429,0.0,0.0,0.0,0.0,0.0,0.0,0.0,0.0,0.0,0.0,0.0,0.0,0.0,0.0,0.0,0.0,0.0,0.0,0.0,0.0,0.0,0.0,0.0,0.0,0.0,0.0,0.0,0.0,0.0,0.0,0.0,0.0,0.0,0.0,0.0,0.0,0.0,0.0,0.0,0.0,0.0,0.0,0.0,0.0,0.0,0.0,0.0,0.0,0.0,0.0,0.0,0.0,0.0,0.0,0.0,0.0,0.0,0.0,0.0,0.0,0.0,0.0,0.0,0.0,0.0,0.0,0.0,0.0,0.0,0.0,0.0,0.0,0.0,0.0,0.0,0.0,0.0,0.0,0.0,0.0,0.0,0.0,0.0,0.0,0.0,0.0,0.0,0.0,0.0,0.0,0.0,0.0,0.0,0.0,0.0,0.0,0.0,0.0,0.0,0.0,0.0,0.0,0.0,0.0,0.0,0.0,0.0,0.0,2.6146,2.9318,2.9059,2.9519,3.0724,2.9099,2.7742,0.0,0.0,0.0,0.0,0.0,0.0,0.0,0.0,0.0,0.0,0.0,0.0,0.0,0.0,0.0,0.0,0.0,0.0,0.0,0.0,0.0,0.0,0.0,0.0,0.0,0.0,0.0,0.0,0.0,0.0,0.0,0.0,0.0,0.0,0.0,0.0,0.0,0.0,0.0,0.0,0.0,0.0,0.0,0.0,0.0,0.0,0.0,0.0,0.0,0.0,0.0,0.0,0.0,0.0,0.0,0.0,0.0,0.0,0.0,0.0,0.0,0.0,0.0,0.0,0.0,0.0,0.0,0.0,0.0,0.0,0.0,0.0,0.0,0.0,0.0,0.0,0.0,0.0,0.0,0.0,0.0,0.0,0.0,0.0,0.0,0.0,0.0,0.0,0.0,0.0,0.0,0.0,0.0,0.0,0.0,0.0,0.0,0.0,0.0,0.0,0.0,0.0,0.0,0.0,0.0,0.0,0.0,0.0,2.7662,2.9994,3.0573,3.1517,3.2959,3.0417,2.8618,0.0,0.0,0.0,0.0,0.0,0.0,0.0,0.0,0.0,0.0,0.0,0.0,0.0,0.0,0.0,0.0,0.0,0.0,0.0,0.0,0.0,0.0,0.0,0.0,0.0,0.0,0.0,0.0,0.0,0.0,0.0,0.0,0.0,0.0,0.0,0.0,0.0,0.0,0.0,0.0,0.0,0.0,0.0,0.0,0.0,0.0,0.0,0.0,2.8036,0.0,0.0,0.0,0.0,0.0,0.0,0.0,0.0,0.0,0.0,0.0,0.0,0.0,0.0,0.0,0.0,0.0,0.0,0.0,0.0,0.0,0.0,0.0,0.0,0.0,0.0,0.0,0.0,0.0,0.0,0.0,0.0,0.0,0.0,0.0,0.0,0.0,0.0,0.0,0.0,0.0,0.0,0.0,0.0,0.0,0.0,0.0,0.0,0.0,0.0,0.0,0.0,0.0,0.0,0.0,0.0,0.0,0.0,0.0,2.8391,3.0779,3.1233,3.2176,3.3652,3.2837,3.1452,0.0,0.0,0.0,0.0,0.0,0.0,0.0,0.0,0.0,0.0,0.0,0.0,0.0,0.0,0.0,0.0,0.0,0.0,0.0,0.0,0.0,0.0,0.0,0.0,0.0,0.0,0.0,0.0,0.0,0.0,0.0,0.0,0.0,0.0,0.0,0.0,0.0,0.0,0.0,0.0,0.0,0.0,0.0,0.0,0.0,0.0,0.0,0.0,0.0,0.0,0.0,0.0,0.0,0.0,0.0,0.0,0.0,0.0,0.0,0.0,0.0,0.0,0.0,0.0,0.0,0.0,0.0,0.0,0.0,0.0,0.0,0.0,0.0,0.0,0.0,0.0,0.0,0.0,0.0,0.0,0.0,0.0,0.0,0.0,0.0,0.0,0.0,0.0,0.0,0.0,0.0,0.0,0.0,0.0,0.0,0.0,0.0,0.0,0.0,0.0,0.0,0.0,0.0,0.0,0.0,0.0,0.0,2.6692,2.8981,3.1782,3.1862,3.2706,3.445,3.537,3.4626,3.2045,0.0,0.0,0.0,0.0,0.0,0.0,0.0,0.0,0.0,0.0,0.0,0.0,0.0,0.0,0.0,0.0,0.0,0.0,0.0,0.0,0.0,0.0,0.0,0.0,0.0,0.0,0.0,0.0,0.0,0.0,0.0,0.0,0.0,0.0,0.0,0.0,0.0,0.0,2.4734,2.6352,0.0,0.0,0.0,0.0,0.0,0.0,0.0,0.0,2.8305,0.0,0.0,0.0,0.0,0.0,0.0,0.0,0.0,0.0,0.0,0.0,0.0,0.0,0.0,0.0,0.0,0.0,0.0,0.0,0.0,0.0,0.0,0.0,0.0,0.0,0.0,0.0,0.0,0.0,0.0,0.0,0.0,0.0,0.0,0.0,0.0,0.0,0.0,0.0,0.0,0.0,0.0,0.0,0.0,0.0,0.0,0.0,0.0,0.0,0.0,0.0,0.0,0.0,0.0,0.0,0.0,2.7326,2.8382,3.0474,3.3657,3.3813,3.4884,3.7031,3.6735,3.6033,3.4869,0.0,0.0,0.0,0.0,0.0,0.0,0.0,0.0,0.0,0.0,0.0,0.0,0.0,0.0,0.0,0.0,0.0,0.0,0.0,0.0,0.0,0.0,0.0,0.0,0.0,0.0,0.0,0.0,0.0,0.0,0.0,0.0,0.0,0.0,0.0,0.0,0.0,0.0,0.0,2.8714,2.9012,0.0,0.0,0.0,0.0,0.0,0.0,0.0,0.0,2.99,0.0,0.0,0.0,0.0,0.0,0.0,0.0,0.0,0.0,0.0,0.0,0.0,0.0,0.0,0.0,0.0,0.0,0.0,0.0,0.0,0.0,0.0,0.0,0.0,0.0,0.0,0.0,0.0,0.0,0.0,0.0,0.0,0.0,0.0,0.0,0.0,0.0,0.0,0.0,0.0,0.0,0.0,0.0,0.0,0.0,0.0,0.0,0.0,0.0,0.0,0.0,0.0,0.0,0.0,0.0,2.7676,3.0767,3.3345,3.531,3.5463,3.6424,3.8306,3.8074,3.7032,0.0,0.0,0.0,0.0,0.0,0.0,0.0,0.0,0.0,0.0,0.0,0.0,0.0,0.0,0.0,0.0,0.0,0.0,0.0,0.0,0.0,0.0,0.0,0.0,0.0,0.0,0.0,0.0,0.0,0.0,0.0,0.0,0.0,0.0,0.0,0.0,0.0,0.0,0.0,0.0,2.9091,2.9653,3.0577,0.0,0.0,0.0,0.0,0.0,0.0,2.9737,2.9829,0.0,0.0,0.0,0.0,0.0,0.0,0.0,0.0,0.0,0.0,0.0,0.0,0.0,0.0,0.0,0.0,0.0,0.0,0.0,0.0,0.0,0.0,0.0,0.0,0.0,0.0,0.0,0.0,0.0,0.0,0.0,0.0,0.0,0.0,0.0,0.0,0.0,0.0,0.0,0.0,0.0,0.0,0.0,0.0,0.0,0.0,0.0,0.0,0.0,0.0,0.0,0.0,0.0,0.0,0.0,2.7856,3.2478,3.5499,3.6633,3.6801,3.7583,3.9109,3.8967,3.7556,0.0,0.0,0.0,0.0,0.0,0.0,0.0,0.0,0.0,0.0,0.0,0.0,0.0,0.0,0.0,0.0,0.0,0.0,0.0,0.0,0.0,0.0,0.0,0.0,0.0,0.0,0.0,0.0,0.0,0.0,0.0,0.0,0.0,0.0,0.0,0.0,0.0,0.0,0.0,0.0,0.0,3.0229,3.1586,3.0285,0.0,0.0,0.0,0.0,2.9955,3.0413,0.0,0.0,0.0,0.0,0.0,0.0,0.0,0.0,0.0,0.0,0.0,0.0,0.0,0.0,0.0,0.0,0.0,0.0,0.0,0.0,0.0,0.0,0.0,0.0,0.0,0.0,0.0,0.0,0.0,0.0,0.0,0.0,0.0,0.0,0.0,0.0,0.0,0.0,0.0,0.0,0.0,0.0,0.0,0.0,0.0,0.0,0.0,0.0,0.0,0.0,0.0,0.0,0.0,0.0,0.0,0.0,2.8872,3.2075,3.4896,3.7269,3.7518,3.8364,3.9979,3.8754,3.7218,0.0,0.0,0.0,0.0,0.0,0.0,0.0,0.0,0.0,0.0,0.0,0.0,0.0,0.0,0.0,0.0,0.0,0.0,0.0,0.0,0.0,0.0,0.0,0.0,0.0,0.0,0.0,0.0,0.0,0.0,0.0,0.0,0.0,0.0,0.0,0.0,0.0,0.0,0.0,0.0,0.0,3.0887,3.107,3.0771,3.0495,0.0,0.0,3.2767,3.4213,3.4886,0.0,0.0,0.0,0.0,0.0,0.0,0.0,0.0,0.0,0.0,0.0,0.0,0.0,0.0,0.0,0.0,0.0,0.0,0.0,0.0,0.0,0.0,0.0,0.0,0.0,0.0,0.0,0.0,0.0,0.0,0.0,0.0,0.0,0.0,0.0,0.0,0.0,0.0,0.0,0.0,0.0,0.0,0.0,0.0,0.0,0.0,0.0,0.0,0.0,0.0,0.0,0.0,0.0,0.0,0.0,2.7846,2.997,3.449,3.7455,3.8692,3.892,3.9582,4.0769,3.9743,3.764,0.0,0.0,0.0,0.0,0.0,0.0,0.0,0.0,0.0,0.0,0.0,0.0,0.0,0.0,0.0,0.0,0.0,0.0,0.0,0.0,0.0,0.0,0.0,0.0,0.0,0.0,0.0,0.0,0.0,0.0,0.0,0.0,0.0,0.0,0.0,0.0,0.0,0.0,0.0,0.0,0.0,0.0,3.2097,3.1301,0.0,0.0,0.0,3.2898,3.39,0.0,0.0,0.0,0.0,0.0,0.0,0.0,0.0,0.0,0.0,0.0,0.0,0.0,0.0,0.0,0.0,0.0,0.0,0.0,0.0,0.0,0.0,0.0,0.0,0.0,0.0,0.0,0.0,0.0,0.0,0.0,0.0,0.0,0.0,0.0,0.0,0.0,0.0,0.0,0.0,0.0,0.0,0.0,0.0,0.0,0.0,0.0,0.0,0.0,0.0,0.0,0.0,0.0,0.0,0.0,0.0,0.0,3.0837,3.646,3.9517,3.9768,3.991,4.0422,4.131,4.0752,0.0,0.0,0.0,0.0,0.0,0.0,0.0,0.0,0.0,0.0,0.0,0.0,0.0,0.0,0.0,0.0,0.0,0.0,0.0,0.0,0.0,0.0,0.0,0.0,0.0,0.0,0.0,2.0286,0.0,0.0,0.0,0.0,0.0,0.0,0.0,0.0,0.0,0.0,0.0,0.0,0.0,0.0,3.1083,3.301,3.2182,3.2341,0.0,0.0,3.3973,3.5097,3.6949,3.7107,0.0,0.0,0.0,0.0,0.0,0.0,0.0,0.0,0.0,0.0,0.0,0.0,0.0,0.0,0.0,0.0,0.0,0.0,0.0,0.0,0.0,0.0,0.0,0.0,0.0,0.0,0.0,0.0,0.0,0.0,0.0,0.0,0.0,0.0,0.0,0.0,0.0,0.0,0.0,0.0,0.0,0.0,0.0,0.0,0.0,0.0,0.0,0.0,0.0,0.0,0.0,0.0,0.0,0.0,0.0,3.157,3.6683,3.9589,3.9975,3.9993,4.0474,4.1411,4.1388,3.8792,0.0,0.0,0.0,0.0,0.0,0.0,0.0,0.0,0.0,0.0,0.0,0.0,0.0,0.0,0.0,0.0,0.0,0.0,0.0,0.0,0.0,0.0,0.0,0.0,0.0,0.0,0.0,0.0,0.0,0.0,0.0,0.0,0.0,0.0,0.0,0.0,0.0,0.0,0.0,0.0,0.0,3.034,3.3079,3.3699,3.4839,0.0,0.0,3.772,4.0426,4.1122,3.9894,3.5482,0.0,0.0,0.0,0.0,0.0,0.0,0.0,0.0,0.0,0.0,0.0,0.0,0.0,0.0,0.0,0.0,0.0,0.0,0.0,0.0,0.0,0.0,0.0,0.0,0.0,0.0,0.0,0.0,0.0,0.0,0.0,0.0,0.0,0.0,0.0,0.0,0.0,0.0,0.0,0.0,0.0,0.0,0.0,0.0,0.0,0.0,0.0,0.0,0.0,0.0,0.0,0.0,0.0,3.046,3.2314,3.7094,3.9785,4.0156,4.0174,4.0612,4.1476,4.1373,3.9383,0.0,0.0,0.0,0.0,0.0,0.0,0.0,0.0,0.0,0.0,0.0,0.0,0.0,0.0,0.0,0.0,0.0,0.0,0.0,0.0,0.0,0.0,0.0,0.0,0.0,0.0,0.0,0.0,2.7387,2.7651,2.6974,0.0,0.0,0.0,0.0,0.0,0.0,0.0,0.0,0.0,0.0,3.3018,3.4901,3.5047,0.0,0.0,3.8051,3.8279,4.0998,4.0356,3.8804,3.6671,3.4944,0.0,0.0,0.0,0.0,0.0,0.0,0.0,0.0,0.0,0.0,0.0,0.0,0.0,0.0,0.0,0.0,0.0,0.0,0.0,0.0,0.0,0.0,0.0,0.0,0.0,0.0,0.0,0.0,0.0,0.0,0.0,0.0,0.0,0.0,0.0,0.0,0.0,0.0,0.0,0.0,0.0,0.0,0.0,0.0,0.0,0.0,0.0,0.0,0.0,0.0,0.0,0.0,3.09,3.2807,3.7349,3.9892,4.0279,4.0257,4.0526,4.116,4.147,4.0006,0.0,0.0,0.0,0.0,0.0,0.0,0.0,0.0,0.0,0.0,0.0,0.0,0.0,0.0,0.0,0.0,0.0,0.0,0.0,0.0,0.0,0.0,0.0,0.0,0.0,0.0,0.0,0.0,2.9372,2.9158,2.7481,0.0,0.0,0.0,0.0,0.0,0.0,0.0,0.0,0.0,0.0,3.4804,3.6084,3.6157,3.679,3.8842,3.8513,3.8706,4.0535,3.9925,3.8771,3.744,0.0,0.0,0.0,0.0,0.0,0.0,0.0,0.0,0.0,0.0,0.0,0.0,0.0,0.0,0.0,0.0,0.0,0.0,0.0,0.0,0.0,0.0,0.0,0.0,0.0,0.0,0.0,0.0,0.0,0.0,2.1739,0.0,0.0,0.0,0.0,0.0,0.0,0.0,0.0,0.0,0.0,0.0,0.0,0.0,0.0,0.0,0.0,0.0,0.0,0.0,0.0,0.0,0.0,3.1464,3.2868,3.7409,3.9892,4.0309,4.0134,4.0174,4.0543,4.1788,4.064,3.6735,0.0,0.0,0.0,0.0,0.0,0.0,0.0,0.0,0.0,0.0,0.0,0.0,0.0,0.0,0.0,0.0,0.0,0.0,0.0,0.0,0.0,0.0,0.0,0.0,0.0,0.0,2.5493,2.716,2.8167,0.0,0.0,0.0,0.0,0.0,0.0,0.0,0.0,0.0,0.0,3.3542,3.4868,3.6327,3.7008,3.7698,3.8524,3.9031,3.9428,3.9561,4.064,4.0634,0.0,0.0,0.0,0.0,0.0,0.0,0.0,0.0,0.0,0.0,0.0,0.0,0.0,0.0,0.0,0.0,0.0,0.0,0.0,0.0,0.0,0.0,0.0,0.0,0.0,0.0,0.0,2.5018,2.4411,0.0,0.0,0.0,0.0,0.0,0.0,0.0,0.0,0.0,0.0,0.0,3.2884,3.4337,0.0,0.0,0.0,0.0,0.0,0.0,0.0,0.0,0.0,0.0,0.0,0.0,3.2508,3.5032,3.8684,4.0786,4.1142,4.0629,4.0383,4.0522,4.1788,4.085,3.7307,0.0,0.0,0.0,0.0,0.0,0.0,0.0,0.0,0.0,0.0,0.0,0.0,0.0,0.0,0.0,0.0,0.0,0.0,0.0,0.0,0.0,0.0,0.0,0.0,0.0,2.8512,0.0,0.0,0.0,0.0,0.0,0.0,0.0,0.0,0.0,0.0,0.0,3.3608,3.4388,3.5935,3.737,3.8285,3.8719,3.9464,0.0,0.0,0.0,0.0,0.0,0.0,0.0,0.0,0.0,0.0,0.0,0.0,0.0,0.0,3.9,3.4897,3.3756,3.3943,3.5665,0.0,0.0,0.0,0.0,0.0,0.0,0.0,0.0,0.0,0.0,0.0,0.0,0.0,0.0,2.7682,0.0,2.7262,0.0,0.0,0.0,0.0,0.0,0.0,0.0,0.0,3.3746,3.572,3.6792,3.8166,3.8177,0.0,3.6377,3.4573,0.0,0.0,0.0,0.0,0.0,0.0,0.0,0.0,3.3623,3.6752,3.9873,4.1601,4.1889,4.1177,4.0808,4.0878,4.1881,4.1586,3.9845,3.8254,3.6316,0.0,0.0,0.0,0.0,0.0,0.0,0.0,0.0,0.0,0.0,0.0,0.0,0.0,0.0,0.0,0.0,0.0,0.0,0.0,0.0,0.0,0.0,0.0,2.9959,0.0,0.0,0.0,0.0,0.0,0.0,0.0,0.0,0.0,3.1527,3.3953,3.5999,3.6443,3.8003,3.9205,3.9463,0.0,0.0,0.0,0.0,0.0,0.0,0.0,3.9151,4.0464,3.8807,3.791,3.9677,4.1117,4.1969,4.1707,0.0,0.0,3.8969,3.8085,3.8643,4.0245,4.0942,4.1668,4.2889,4.4293,4.5052,0.0,0.0,0.0,0.0,0.0,0.0,0.0,0.0,3.0584,3.0439,0.0,2.9838,0.0,0.0,0.0,0.0,0.0,3.0254,0.0,0.0,3.8879,4.1062,4.1879,4.183,4.216,4.2779,4.1275,4.0509,4.021,3.5497,0.0,0.0,0.0,0.0,0.0,0.0,3.4836,3.8088,4.0893,4.2401,4.2584,4.1794,4.1444,4.1661,4.2102,4.2881,4.3891,4.1298,3.9339,3.8221,3.365,0.0,0.0,0.0,0.0,0.0,0.0,0.0,0.0,0.0,0.0,0.0,0.0,0.0,0.0,0.0,0.0,0.0,0.0,0.0,0.0,3.0566,0.0,0.0,0.0,0.0,0.0,0.0,0.0,0.0,0.0,0.0,3.4642,3.6075,3.7618,3.8342,0.0,0.0,0.0,0.0,4.0918,4.1197,4.1216,4.1064,4.0419,4.1829,4.2861,4.2421,0.0,0.0,4.4452,4.5581,4.623,4.557,4.7121,4.7664,4.469,4.4121,4.4394,4.5087,4.5242,4.5569,4.6624,4.8773,5.0206,3.6046,0.0,0.0,0.0,0.0,3.2282,3.315,3.4638,3.4425,3.4198,3.4011,3.4268,0.0,0.0,0.0,0.0,0.0,0.0,3.4624,3.668,3.8719,4.1096,4.3646,4.4027,4.4515,4.5112,4.4514,4.4333,4.4386,4.2974,3.7959,2.9781,0.0,0.0,0.0,0.0,3.7687,4.0288,4.1968,4.2945,4.3297,4.2609,4.2439,4.2801,4.3073,4.3496,4.4087,4.3373,4.1849,3.9386,3.7319,0.0,0.0,0.0,0.0,0.0,0.0,0.0,0.0,0.0,0.0,0.0,0.0,0.0,0.0,0.0,0.0,0.0,0.0,0.0,2.9605,3.2056,3.2983,0.0,0.0,0.0,0.0,0.0,0.0,0.0,0.0,0.0,3.9409,3.9744,4.006,0.0,0.0,4.131,4.1196,4.2448,4.3751,4.4704,4.5494,0.0,0.0,4.5496,4.5419,4.6813,4.7526,4.7848,4.7646,4.798,4.8232,4.7999,4.9738,5.0854,4.9952,4.8361,4.7979,4.9389,4.9874,5.0493,5.2234,5.3303,5.3487,4.0535,3.8436,3.6111,3.5158,3.51,3.4835,3.5645,3.724,3.7414,3.7467,3.7485,3.7947,3.6791,3.4468,3.4373,0.0,0.0,0.0,3.7058,3.914,4.0262,4.2249,4.4865,4.5494,4.6242,4.7147,4.6691,4.6993,4.7888,4.7069,4.3304,3.6802,0.0,0.0,3.4349,3.7508,4.0391,4.2805,4.3636,4.4159,4.4375,4.3746,4.372,4.4269,4.4396,4.4524,4.461,4.4779,4.3788,4.1533,4.0093,3.8091,0.0,0.0,0.0,0.0,0.0,0.0,0.0,0.0,0.0,0.0,0.0,2.6501,2.4191,0.0,0.0,0.0,3.0686,3.2067,3.3226,3.5313,0.0,0.0,0.0,0.0,0.0,0.0,0.0,4.3001,4.3797,4.3965,4.3439,4.3528,4.3102,4.1535,4.2066,4.276,4.314,0.0,4.5973,4.6832,4.7782,4.8531,4.8832,4.8078,4.8003,4.9578,4.9357,4.956,5.0642,5.0541,5.0642,5.1555,5.2723,5.3602,5.3534,5.2303,5.1665,5.2941,5.3226,5.3746,5.5076,5.5241,5.4891,4.4382,4.4576,3.8693,3.6896,3.7906,3.7586,3.7742,3.8338,3.9544,4.0118,4.0219,4.089,4.0245,3.8553,3.6803,0.0,3.7776,3.8792,4.0398,4.2476,4.305,4.4216,4.5887,4.6565,4.7615,4.8953,4.814,4.8766,5.0542,4.8699,4.7154,4.6011,4.3211,4.099,3.9535,4.0882,4.2861,4.5273,4.546,4.5588,4.5576,4.5044,4.5094,4.5738,4.5797,4.5663,4.5427,4.5549,4.5168,4.4155,4.2177,4.0381,3.88,0.0,0.0,0.0,0.0,0.0,0.0,0.0,0.0,0.0,0.0,0.0,0.0,0.0,0.0,0.0,3.6824,0.0,3.9362,3.9547,0.0,0.0,0.0,4.0072,4.1034,4.3702,4.579,4.6542,0.0,0.0,4.6919,4.7227,4.6597,4.38,4.3929,4.4614,4.5531,4.6969,4.7987,4.8382,4.8983,4.9476,4.9833,5.0202,5.0845,5.1539,5.0423,5.0777,5.296,5.3044,5.3501,5.5056,5.5699,5.5733,5.5767,5.5614,5.5764,5.5447,5.5378,5.5432,5.5687,5.5484,5.492,4.4179,4.4211,4.2271,4.1606,4.1704,4.1075,4.0701,4.0541,4.0846,4.1291,4.1786,4.2476,4.335,4.4286,4.3961,4.3896,4.4084,4.4001,4.3907,4.3926,4.5271,4.6414,4.7429,4.8596,4.9601,5.0419,5.0104,5.0289,5.0858,5.0273,4.9342,4.8249,4.7341,4.5257,4.2082,4.3055,4.4259,4.5529,4.5412,4.5451,4.5596,4.5514,4.5518,4.5566,4.5665,4.5614,4.5389,4.5057,4.4742,4.4468,4.385,4.3026,4.2058,3.6437,0.0,0.0,0.0,0.0,0.0,0.0,0.0,0.0,0.0,3.1437,2.8385,0.0,3.3922,0.0,3.997,4.1782,4.044,4.1678,0.0,0.0,4.257,4.4042,4.7149,4.8651,4.9906,5.1196,5.166,5.1507,5.0605,5.0223,4.9976,4.9751,4.8012,4.7233,4.8602,5.0182,5.1463,5.1984,5.2657,5.3247,5.3213,5.389,5.4312,5.4583,5.4279,5.438,5.5056,5.5023,5.509,5.5631,5.6172,5.6494,5.6544,5.6968,5.7034,5.6463,5.5861,5.568,5.6231,5.5791,5.5013,4.4908,4.5243,4.4909,4.4564,4.4118,4.2816,4.2324,4.2385,4.2699,4.3379,4.4394,4.5397,4.6275,4.6948,4.7043,4.6677,4.6003,4.5921,4.5553,4.4937,4.6059,4.7207,4.8385,4.9809,5.1043,5.2117,5.2337,5.2657,5.3062,5.2674,5.2065,5.1378,5.0959,4.9248,4.6515,4.5687,4.5429,4.5588,4.5767,4.6098,4.6554,4.6634,4.628,4.5551,4.6269,4.5984,4.4524,4.4778,4.4516,4.3537,4.3351,4.3051,4.2561,3.8643,3.6582,0.0,0.0,0.0,0.0,0.0,0.0,0.0,0.0,0.0,0.0,0.0,3.7273,3.8565,4.265,4.48,4.3757,4.5557,4.684,4.7005,4.7865,4.9272,5.1397,5.2319,5.3194,5.3983,5.4102,5.373,5.2711,5.2181,5.216,5.259,5.0858,4.9854,5.0756,5.2284,5.3377,5.3428,5.4333,5.5108,5.5108,5.5428,5.5699,5.5699,5.5699,5.58,5.6105,5.6172,5.6274,5.663,5.7002,5.7408,5.7694,5.7719,5.7659,5.7501,5.6537,5.5888,5.5948,5.5353,5.4548,4.5915,4.6686,4.6645,4.6349,4.5731,4.4112,4.3577,4.389,4.4458,4.5538,4.6979,4.8381,4.8646,4.8068,4.8167,4.7504,4.6331,4.6598,4.6519,4.6161,4.6755,4.7905,4.9497,5.1057,5.2482,5.3788,5.4431,5.5074,5.5665,5.5023,5.4552,5.4239,5.3446,5.2207,5.0575,4.8124,4.648,4.5741,4.6142,4.6696,4.7377,4.7326,4.6616,4.5373,4.6784,4.6368,4.3763,4.4673,4.4417,4.2577,4.2326,4.2291,4.2338,4.1069,3.9841,0.0,3.7573,0.0,0.0,0.0,0.0,0.0,0.0,0.0,0.0,4.0257,4.1322,4.1427,4.5223,4.7802,4.8192,4.9989,5.1413,5.2202,5.3493,5.4347,5.4382,5.5178,5.5723,5.5723,5.5847,5.5487,5.4313,5.3947,5.3962,5.408,5.333,5.265,5.2709,5.3649,5.4208,5.3746,5.5037,5.6071,5.6071,5.6139,5.6274,5.6308,5.6477,5.6494,5.7205,5.7306,5.7439,5.7836,5.7965,5.8148,5.8698,5.8075,5.776,5.8031,5.6937,5.5928,5.5514,5.4804,5.4132,4.5967,4.6601,4.6692,4.7013,4.7416,4.7686,4.6536,4.452,4.4634,4.5515,4.6911,4.8364,4.9184,4.9555,5.0185,5.0239,4.988,4.943,4.9119,4.8974,5.0406,5.1559,5.2475,5.4077,5.5014,5.5276,5.5428,5.5564,5.5699,5.5407,5.468,5.3511,5.2601,5.1127,4.919,0.0,0.0,0.0,4.5453,4.5051,4.5167,4.4741,4.4255,4.3878,4.5327,0.0,4.5072,4.4859,4.4573,4.4167,4.4091,0.0,0.0,0.0,0.0,0.0,0.0,0.0,0.0,0.0,0.0,0.0,4.264,4.2598,4.1072,4.3942,4.5911,4.6009,4.8421,5.0626,5.2001,5.289,5.3545,5.4074,5.5251,5.6073,5.6268,5.6964,5.7439,5.7439,5.7457,5.7372,5.6972,5.7039,5.6969,5.6759,5.625,5.5781,5.5633,5.4862,5.4984,5.6594,5.7159,5.7442,5.7476,5.7897,5.8371,5.9047,5.9268,5.925,5.9265,5.9333,5.9102,5.8678,5.8567,5.8277,5.7793,5.7453,5.7224,5.6667,5.6261,5.5967,5.5869,5.5149,5.4583,4.7153,0.0,4.7542,4.8149,0.0,4.9329,4.9112,4.8426,4.7713,4.8414,5.0202,5.1657,5.2252,5.2187,5.2138,5.1868,5.1417,5.0652,5.0497,5.0903,5.17,5.2715,5.3864,5.51,5.5866,5.624,5.624,5.6443,5.6713,5.6304,5.5472,5.4278,5.3811,5.26,5.0725,5.0304,4.9312,4.7619,4.6911,4.6769,4.7145,4.6202,4.5474,4.5036,4.5802,0.0,0.0,0.0,0.0,0.0,0.0,0.0,0.0,0.0,0.0,4.4162,4.2105,4.1251,4.2372,4.3465,4.4681,4.6064,4.7613,4.7615,4.5608,4.7922,4.9673,5.0157,5.1598,5.3144,5.4782,5.5235,5.5624,5.6172,5.6811,5.725,5.7356,5.7645,5.79,5.79,5.79,5.7753,5.7312,5.6863,5.6619,5.6561,5.5895,5.5656,5.6367,5.5895,5.6062,5.7631,5.79,5.8035,5.8389,5.8709,5.925,5.9877,6.008,5.9909,5.9471,5.9413,5.9085,5.8228,5.8002,5.7913,5.7892,5.7506,5.713,5.7055,5.6726,5.6404,5.6349,5.5488,5.4706,4.8749,4.8459,4.9168,4.9982,5.0787,5.0955,5.1773,5.2857,0.0,0.0,0.0,5.4921,5.5141,5.4446,5.3883,5.3095,5.2133,5.1465,5.1507,5.2185,5.2349,5.3289,5.4895,5.5628,5.6352,5.6984,5.7002,5.7306,5.7866,5.7273,5.6429,5.5389,5.5312,5.4422,5.2779,5.2175,5.1005,4.9199,4.8645,4.8698,4.9269,4.8136,4.7191,4.6465,4.6918,4.6764,4.5923,4.7214,4.76,4.6874,4.6189,4.6222,4.6907,4.5698,4.59,4.787,4.7396,4.7337,4.8192,4.8963,4.9735,5.0624,5.1749,5.1799,5.0307,5.1464,5.2639,5.3515,5.4308,5.5373,5.6815,5.7002,5.7239,5.7832,5.79,5.79,5.79,5.79,5.79,5.79,5.79,5.7588,5.6748,5.6231,5.5663,5.5495,5.5026,5.459,5.5876,5.6484,5.6911,5.7461,5.7536,5.7879,5.8553,5.8662,5.906,5.9876,6.0204,5.9971,5.9345,5.9091,5.8663,5.7764,5.7463,5.7634,5.7985,5.7444,5.7218,5.7807,5.7353,5.6785,5.6693,5.5899,5.5168,5.0405,5.146,5.24,5.322,5.3925,5.4634,5.5044,5.5137,5.3669,5.318,5.3534,5.4363,5.4635,5.446,5.5062,5.4453,5.2922,5.2861,5.2852,5.2912,5.3652,5.4815,5.6335,5.7167,5.7621,5.7764,5.773,5.7798,5.7866,5.7798,5.6915,5.5482,5.5312,5.4422,5.2802,5.2583,5.2122,5.1251,4.8922,4.7525,4.7083,4.695,4.6556,4.5859,4.7687,4.8294,4.7438,4.8351,4.848,4.7755,4.762,4.789,4.8582,4.789,4.8108,4.9612,4.9648,5.0173,5.149,5.2335,5.3382,5.4683,5.4898,5.4219,5.2721,5.3395,5.4256,5.5014,5.5897,5.6781,5.7611,5.773,5.7764,5.7866,5.79,5.79,5.79,5.79,5.79,5.79,5.79,5.7554,5.6729,5.6958,5.6939,5.6387,5.5555,5.5046,5.5131,5.6328,5.7293,5.6939,5.6768,5.7086,5.7886,5.7763,5.8477,5.977,6.049,6.0728,6.0428,6.0282,5.9703,5.8354,5.7965,5.7749,5.7277,5.6936,5.692,5.7091,5.6906,5.6785,5.6785,5.6539,5.6416,5.2273,5.2136,5.3025,5.403,5.5188,5.6392,5.69,5.6833,5.619,5.5649,5.5378,5.6055,5.6365,5.6307,5.6215,5.5479,5.4223,5.38,5.3853,5.4244,5.4665,5.5706,5.7222,5.7717,5.79,5.79,5.79,5.79,5.79,5.79,5.7256,5.6014,5.5087,5.3965,5.281,5.3148,5.2837,5.1704,5.0932,5.0398,5.0184,4.993,4.9805,4.989,5.0156,5.0209,5.0226,5.1016,5.1472,5.1522,5.1555,5.186,5.2554,5.1573,5.142,5.2452,5.2164,5.2401,5.345,5.4262,5.5158,5.6172,5.6203,5.6048,5.5673,5.5643,5.5796,5.6133,5.6932,5.7509,5.7866,5.79,5.79,5.79,5.79,5.79,5.79,5.79,5.79,5.79,5.79,5.7387,5.6054,5.625,5.6172,5.5414,5.5495,5.5906,5.5982,5.7332,5.8044,5.6925,5.7011,5.7595,5.828,5.8697,5.9172,5.9875,6.0543,6.0712,6.0376,5.9914,5.9167,5.8363,5.7817,5.733,5.6834,5.6785,5.6785,5.6785,5.6785,5.6785,5.6785,5.6785,5.6785,5.4128,5.3113,5.3974,5.5047,5.6196,5.7374,5.79,5.79,5.7866,5.7577,5.7171,5.7663,5.79,5.7827,5.72,5.6406,5.5595,5.4902,5.4932,5.5555,5.5595,5.6406,5.779,5.79,5.79,5.79,5.79,5.79,5.79,5.79,5.735,5.627,5.4964,5.3858,5.3024,5.3858,5.3681,5.2641,5.3375,5.3442,5.2719,5.2551,5.2748,5.3092,5.2416,5.2167,5.2605,5.3484,5.4194,5.4583,5.4617,5.4837,5.5327,5.438,5.3923,5.4262,5.4126,5.4329,5.5057,5.5784,5.6461,5.7002,5.7036,5.7273,5.7764,5.7392,5.7036,5.7103,5.7543,5.7866,5.79,5.79,5.79,5.79,5.79,5.8001,5.8118,5.8035,5.8103,5.8272,5.8272,5.7614,5.65,5.6253,5.6238,5.5801,5.6286,5.7245,5.7708,5.8422,5.8308,5.7692,5.7668,5.8234,5.89,5.927,5.9664,5.984,6.0523,6.0511,5.987,5.9021,5.8303,5.798,5.7306,5.693,5.681,5.6785,5.6785,5.6785,5.6785,5.6785,5.6785,5.6785,5.6785,5.5762,5.6252,5.6988,5.7566,5.7637,5.7829,5.79,5.79,5.79,5.79,5.7798,5.7866,5.79,5.79,5.779,5.7275,5.6478,5.64,5.6348,5.6439,5.6498,5.6977,5.7845,5.79,5.79,5.79,5.79,5.79,5.79,5.79,5.7072,5.5616,5.5239,5.4757,5.4062,5.4757,5.5084,5.4991,5.5837,5.458,5.1434,5.2495,5.2949,5.2429,5.3629,5.3991,5.3399,5.4752,5.5209,5.4668,5.4617,5.4651,5.4702,5.4566,5.4228,5.3788,5.4786,5.58,5.6562,5.7273,5.7645,5.7798,5.7798,5.7814,5.7934,5.7848,5.7814,5.7866,5.7881,5.7967,5.79,5.7967,5.8069,5.8084,5.8069,5.817,5.8693,5.8287,5.8389,5.9776,5.9099,5.8743,5.825,5.8705,5.8962,5.7854,5.8124,5.8323,5.7974,5.8547,5.9091,5.8741,5.8761,5.8787,5.8953,5.8766,5.9284,5.9898,6.0523,6.0384,5.9696,5.9288,5.9043,5.7653,5.6978,5.6834,5.6785,5.6785,5.6816,5.697,5.6939,5.6902,5.6816,5.6909,5.697,5.6838,5.6691,5.7536,5.79,5.79,5.79,5.79,5.79,5.79,5.79,5.79,5.79,5.79,5.79,5.79,5.7424,5.6633,5.6594,5.6594,5.6594,5.6594,5.7034,5.7845,5.79,5.79,5.79,5.79,5.79,5.79,5.79,5.7275,5.6172,5.6054,5.5636,5.4923,5.5636,5.564,5.4777,5.6041,5.5491,5.3539,5.4557,5.4819,5.3847,5.4293,5.4262,5.3687,5.4532,5.4905,5.4668,5.5006,5.5243,5.5243,5.5225,5.531,5.548,5.6427,5.7137,5.746,5.773,5.79,5.79,5.8321,5.8558,5.8592,5.893,5.9201,5.9167,5.8829,5.8727,5.9099,5.9201,5.9219,5.9201,5.9201,5.9302,5.9573,5.8998,5.8863,5.9317,5.8829,5.8328,5.8313,5.8852,5.8893,5.8424,5.8807,5.9378,5.9086,5.9725,6.0396,6.081,6.0944,6.0508,5.9859,5.995,5.9868,5.9434,5.9714,5.9827,5.9133,5.8226,5.7746,5.7613,5.7201,5.6895,5.6785,5.7186,5.7401,5.7432,5.7802,5.7986,5.7986,5.7986,5.7986,5.7536,5.7124,5.7662,5.79,5.79,5.79,5.79,5.79,5.79,5.79,5.79,5.79,5.79,5.79,5.79,5.7536,5.6996,5.6939,5.6939,5.6973,5.6939,5.7293,5.7863,5.79,5.79,5.79,5.79,5.79,5.79,5.79,5.7461,5.6729,5.6825,5.6536,5.5836,5.6536,5.6406,5.5526,5.6526,5.648,5.5424,5.6226,5.619,5.504,5.5108,5.4938,5.4465,5.5108,5.548,5.5513,5.6021,5.6308,5.6308,5.6325,5.6562,5.707,5.7595,5.8001,5.8152,5.8389,5.849,5.8524,5.9032,5.9284,5.9404,5.981,6.0182,6.0351,5.9742,5.9505,5.9689,5.981,5.9742,5.9539,5.9505,5.9539,5.9674,5.9148,5.8829,5.9115,5.8795,5.8373,5.87,5.925,5.9492,5.9348,6.0023,6.0535,6.0445,6.0999,6.1674,6.2023,6.2169,6.1921,6.0975,6.0788,6.0517,6.0208,6.0156,5.9935,5.9021,5.8226,5.7887,5.8818,5.7816,5.7532,5.8035,5.8359,5.811,5.8171,5.8479,5.8818,5.8633,5.8756,5.8787,5.7863,5.7845,5.7881,5.79,5.79,5.79,5.79,5.79,5.79,5.79,5.79,5.79,5.79,5.79,5.79,5.7881,5.7827,5.7772,5.7772,5.7772,5.779,5.7845,5.79,5.79,5.79,5.79,5.79,5.79,5.79,5.7881,5.7443,5.671,5.7387,5.7387,5.6768,5.735,5.7775,5.7545,5.7673,5.7457,5.6761,5.6763,5.6494,5.5868,5.6292,5.6494,5.6596,5.7306,5.7629,5.7697,5.7595,5.7679,5.773,5.7712,5.773,5.7832,5.7915,5.8254,5.893,5.9539,5.9877,5.9945,5.9979,6.0047,6.0047,6.0148,6.0486,6.111,6.0419,5.9776,5.9216,5.9302,5.8979,5.8423,5.817,5.8524,5.9066,5.8626,5.8693,5.9505,5.9268,5.928,6.0661,6.1173,6.1278,6.1551,6.2085,6.1922,6.128,6.1756,6.1923,6.1676,6.1924,6.2347,6.222,6.1708,6.1555,6.1143,6.0613,6.076,6.0546,6.0281,6.0162,5.9871,5.8814,5.8664,5.9495,5.9583,5.9012,5.8879,5.8972,5.9095,5.9311,5.8972,5.9033,5.79,5.79,5.79,5.79,5.79,5.79,5.79,5.79,5.79,5.79,5.79,5.79,5.79,5.79,5.79,5.79,5.79,5.79,5.79,5.79,5.79,5.79,5.79,5.79,5.79,5.79,5.79,5.79,5.79,5.79,5.7753,5.7517,5.7735,5.7717,5.7536,5.7735,5.79,5.79,5.79,5.7746,5.7509,5.7509,5.734,5.7103,5.6427,5.6105,5.6105,5.6375,5.6494,5.6494,5.6494,5.6494,5.6596,5.7374,5.79,5.8001,5.8795,5.9438,5.9689,5.9945,6.008,6.0148,6.0588,6.0825,6.0858,6.0858,6.0994,6.1095,6.0588,5.981,5.9302,5.9438,5.9607,5.937,5.9268,5.9302,5.9505,5.9066,5.8863,5.9235,5.9148,5.9284,5.9911,6.0689,6.1366,6.167,6.211,6.2189,6.2084,6.2223,6.2277,6.2131,6.2534,6.3125,6.3091,6.2439,6.189,6.1255,6.0811,6.0672,6.0478,6.0114,5.9905,6.0573,5.9712,5.9152,5.9808,5.9862,5.9408,5.9839,5.9896,5.9803,6.0111,5.9803,5.987,5.79,5.79,5.79,5.79,5.79,5.79,5.79,5.79,5.79,5.8035,5.8186,5.8017,5.8017,5.822,5.8254,5.8254,5.8254,5.8254,5.8254,5.8287,5.849,5.8592,5.861,5.861,5.861,5.8626,5.8626,5.861,5.8592,5.8592,5.861,5.8626,5.8592,5.8509,5.8287,5.8254,5.8186,5.7967,5.79,5.79,5.79,5.79,5.79,5.7764,5.6934,5.6427,5.6409,5.6427,5.6427,5.6427,5.6393,5.6409,5.6528,5.734,5.79,5.8035,5.9032,5.9742,5.981,5.9945,6.008,6.0114,6.0554,6.0926,6.0926,6.1163,6.1298,6.1163,6.0858,6.025,5.9926,5.9979,5.9911,5.9539,5.937,5.9404,5.937,5.893,5.866,5.866,5.8878,5.9047,5.9453,6.0535,6.1298,6.1603,6.211,6.2356,6.2333,6.2614,6.2749,6.2737,6.333,6.3761,6.3869,6.3464,6.3235,6.268,6.176,6.1305,6.1053,6.0499,6.0323,6.0967,6.0781,6.0083,5.9817,5.9941,6.024,6.0701,6.0609,6.0393,6.0578,6.0671,6.0578,5.79,5.79,5.79,5.79,5.79,5.7967,5.7934,5.8001,5.7967,5.8355,5.8743,5.822,5.822,5.8743,5.8743,5.8878,5.8776,5.881,5.8945,5.9047,5.9641,5.9911,5.9911,5.9844,5.9844,5.9877,6.0013,6.0013,5.9911,5.9776,5.9776,5.9945,5.9708,5.9268,5.893,5.8743,5.8506,5.8051,5.79,5.79,5.79,5.79,5.79,5.79,5.7764,5.773,5.778,5.7798,5.7697,5.7764,5.7746,5.7866,5.7712,5.7934,5.7949,5.8084,5.8693,5.9013,5.9201,5.9776,6.008,6.0114,6.0148,6.0283,6.0486,6.0858,6.1231,6.1298,6.1163,6.1095,6.0926,6.0486,5.9641,5.8306,5.8423,5.8423,5.8272,5.8069,5.7967,5.822,5.8761,5.9336,6.0013,6.0858,6.1603,6.211,6.2516,6.2655,6.2626,6.3121,6.3375,6.3467,6.3973,6.4559,6.4613,6.4613,6.4593,6.4416,6.3421,6.2703,6.2748,6.2397,6.1819,6.207,6.0935,6.0245,6.031,6.0393,6.0486,6.0794,6.0794,6.0794,6.0794,6.0794,6.0794,5.79,5.79,5.79,5.79,5.7967,5.8423,5.866,5.866,5.8641,5.8776,5.8844,5.822,5.8035,5.8186,5.8254,5.8254,5.8287,5.8761,5.9268,5.9742,5.9979,6.008,6.008,6.008,6.008,6.008,6.008,6.008,6.0013,5.9622,5.9317,5.9268,5.8863,5.849,5.8321,5.8254,5.8103,5.7934,5.79,5.79,5.79,5.79,5.79,5.79,5.79,5.79,5.79,5.79,5.79,5.79,5.79,5.79,5.7967,5.8389,5.866,5.8709,5.9317,5.9776,5.9776,5.9945,6.008,6.008,6.008,6.0385,6.0757,6.0622,6.0791,6.1129,6.0825,6.0486,6.0419,6.0283,5.9911,5.9471,5.9404,5.9336,5.9302,5.9336,5.9404,5.9404,5.9641,5.9877,6.0283,6.1163,6.2164,6.2516,6.3246,6.3755,6.3876,6.4018,6.4235,6.4239,6.4897,6.5358,6.5392,6.5527,6.5696,6.541,6.4585,6.3854,6.3966,6.3606,6.3147,6.2285,6.1146,6.0686,6.0779,6.0794,6.0794,6.0794,6.0794,6.0794,6.0794,6.0794,6.0794,5.79,5.79,5.79,5.79,5.7934,5.8423,5.8592,5.8573,5.8592,5.8743,5.8795,5.822,5.8051,5.8254,5.8321,5.8321,5.8389,5.9047,5.9656,6.0047,6.008,6.008,6.008,6.008,6.008,6.008,6.008,6.008,6.008,5.9656,5.9419,5.9302,5.893,5.8592,5.8355,5.8287,5.822,5.7967,5.79,5.79,5.79,5.79,5.79,5.79,5.79,5.79,5.79,5.79,5.79,5.79,5.79,5.79,5.7934,5.8321,5.8573,5.8709,5.9216,5.9674,5.9708,5.9622,5.9708,5.9708,5.9708,5.9859,6.0332,6.0283,6.0858,6.1095,6.1163,6.096,6.0994,6.096,6.096,6.0926,6.0351,6.0148,6.008,6.008,6.008,6.008,6.0317,6.0622,6.1163,6.1907,6.2922,6.326,6.4005,6.4783,6.4884,6.4986,6.5087,6.5324,6.5797,6.6102,6.6136,6.6373,6.669,6.626,6.5623,6.5044,6.4773,6.3928,6.3274,6.2045,6.0866,6.0764,6.0794,6.0794,6.0794,6.0794,6.0794,6.0794,6.0794,6.0794,6.0794,5.79,5.79,5.79,5.79,5.7934,5.8051,5.8118,5.8017,5.8069,5.8457,5.8743,5.822,5.822,5.8795,5.8693,5.8693,5.9013,5.937,5.9641,5.9742,5.981,5.9844,6.008,6.008,6.008,6.008,6.008,6.008,6.008,5.9911,6.0047,5.9844,5.9641,5.9539,5.881,5.8878,5.8457,5.7949,5.79,5.79,5.79,5.79,5.79,5.79,5.79,5.79,5.79,5.79,5.79,5.79,5.79,5.79,5.79,5.7915,5.8103,5.8186,5.8693,5.9133,5.9115,5.9148,5.9182,5.9302,5.9201,5.9081,5.9588,6.0588,6.1231,6.1501,6.1873,6.2265,6.2251,6.227,6.227,6.2203,6.1235,6.052,6.0283,6.0385,6.0689,6.0723,6.1028,6.1738,6.2482,6.3226,6.3903,6.441,6.4783,6.5256,6.5643,6.5914,6.6164,6.6422,6.6675,6.6729,6.6758,6.6792,6.7043,6.6878,6.626,6.5662,6.4705,6.3687,6.3092,6.1834,6.0923,6.0845,6.0794,6.0794,6.0794,6.0794,6.0794,6.0794,6.0794,6.0794,6.0794,5.79,5.79,5.79,5.79,5.8001,5.8457,5.8675,5.8727,5.8693,5.8743,5.881,5.822,5.8001,5.8186,5.8186,5.8186,5.8287,5.8423,5.849,5.8475,5.8475,5.9167,5.9911,6.008,6.0047,6.0013,5.9945,6.008,6.0047,5.9539,5.9302,5.9268,5.8795,5.8457,5.8186,5.822,5.8084,5.7934,5.79,5.79,5.79,5.79,5.79,5.79,5.79,5.79,5.79,5.79,5.79,5.79,5.79,5.79,5.7934,5.8355,5.8626,5.8743,5.9336,5.981,5.9708,5.9317,5.9302,5.9708,5.9438,5.9487,6.0636,6.1028,6.1569,6.1941,6.2333,6.2459,6.261,6.2615,6.2673,6.2755,6.2154,6.1743,6.1845,6.2279,6.2598,6.2685,6.3246,6.3652,6.4045,6.4553,6.5128,6.5433,6.5826,6.6219,6.6513,6.6677,6.6812,6.7045,6.7264,6.7298,6.7332,6.7332,6.7366,6.7346,6.674,6.5885,6.4417,6.2731,6.2355,6.1778,6.1047,6.082,6.0794,6.0794,6.0794,6.0794,6.0794,6.0794,6.0794,6.0794,6.0794,5.79,5.79,5.79,5.79,5.7967,5.8355,5.8524,5.8524,5.8524,5.8558,5.8457,5.8118,5.79,5.79,5.79,5.79,5.79,5.79,5.7934,5.7934,5.7967,5.8407,5.8998,5.9186,5.9167,5.9167,5.9201,5.9167,5.9099,5.8727,5.8592,5.849,5.8118,5.79,5.7934,5.79,5.79,5.79,5.79,5.79,5.79,5.79,5.79,5.79,5.79,5.79,5.79,5.79,5.79,5.79,5.79,5.79,5.7967,5.8626,5.8979,5.9047,5.9708,6.0216,6.0419,5.9911,5.9877,6.0385,6.0148,6.0452,6.1129,6.1535,6.2028,6.2416,6.2518,6.2615,6.277,6.2808,6.3022,6.3352,6.3232,6.3096,6.313,6.3662,6.4069,6.4293,6.4511,6.4932,6.523,6.5726,6.6086,6.6412,6.6772,6.7038,6.7236,6.7325,6.7366,6.7475,6.7536,6.753,6.751,6.751,6.7489,6.751,6.7009,6.6158,6.4515,6.2534,6.1922,6.1677,6.1149,6.0794,6.0794,6.0794,6.0794,6.0794,6.0794,6.0824,6.0855,6.0948,6.0917,5.79,5.79,5.79,5.79,5.79,5.79,5.7967,5.7934,5.7967,5.7967,5.7934,5.79,5.79,5.79,5.79,5.79,5.79,5.79,5.79,5.79,5.79,5.8035,5.8103,5.8204,5.817,5.8137,5.7934,5.8035,5.8137,5.8001,5.7934,5.8001,5.7915,5.79,5.79,5.79,5.79,5.79,5.79,5.79,5.79,5.79,5.79,5.79,5.79,5.8001,5.8069,5.8084,5.8118,5.8152,5.8001,5.7967,5.8084,5.8743,5.9216,5.952,6.0148,6.0825,6.1129,6.0723,6.0554,6.1197,6.1298,6.1366,6.1535,6.2014,6.245,6.2635,6.2693,6.2828,6.3,6.3125,6.3524,6.4023,6.4224,6.441,6.4474,6.4775,6.5159,6.5391,6.5213,6.5696,6.6185,6.6553,6.6738,6.6937,6.7284,6.736,6.7455,6.7516,6.7557,6.7638,6.7638,6.7632,6.7597,6.7597,6.7577,6.7536,6.705,6.6222,6.4823,6.322,6.2146,6.145,6.1149,6.0949,6.0794,6.0794,6.0824,6.1009,6.1163,6.1071,6.0978,6.1132,6.1194,5.79,5.79,5.79,5.79,5.79,5.79,5.79,5.79,5.79,5.79,5.79,5.79,5.79,5.7934,5.7967,5.79,5.8035,5.8035,5.79,5.79,5.79,5.79,5.7967,5.8035,5.7934,5.79,5.79,5.79,5.79,5.79,5.79,5.79,5.79,5.79,5.79,5.79,5.79,5.79,5.79,5.79,5.79,5.79,5.7934,5.7967,5.7983,5.8272,5.8693,5.8743,5.9032,5.9201,5.8626,5.8287,5.8795,5.9471,6.008,6.0636,6.1332,6.1893,6.196,6.1467,6.1366,6.1927,6.169,6.1535,6.213,6.2402,6.2649,6.2712,6.2828,6.3087,6.3414,6.398,6.4396,6.4809,6.5566,6.6239,6.6303,6.6165,6.6143,6.6245,6.6587,6.7025,6.7222,6.7229,6.7345,6.7496,6.7536,6.7611,6.7638,6.7719,6.7779,6.7839,6.7859,6.7819,6.7819,6.7854,6.7937,6.7999,6.7591,6.6926,6.5535,6.3988,6.2905,6.2016,6.1303,6.1072,6.082,6.0948,6.1009,6.1286,6.1563,6.1594,6.1594,6.1594,6.1594,5.822,5.79,5.79,5.79,5.79,5.79,5.79,5.79,5.79,5.79,5.79,5.79,5.8084,5.8423,5.8423,5.8558,5.8863,5.893,5.893,5.8964,5.8964,5.8983,5.893,5.8829,5.866,5.8069,5.79,5.79,5.79,5.7934,5.79,5.79,5.7934,5.79,5.79,5.7934,5.79,5.79,5.79,5.79,5.79,5.79,5.8152,5.8457,5.8727,5.9167,5.9471,5.952,5.9742,5.981,5.937,5.9066,5.9539,6.0216,6.0858,6.1298,6.1603,6.2076,6.2096,6.1869,6.1723,6.2469,6.2164,6.2266,6.2436,6.2635,6.2731,6.2949,6.3326,6.3844,6.4446,6.485,6.5324,6.5842,6.6482,6.7103,6.7354,6.7255,6.7096,6.7204,6.7424,6.7582,6.7739,6.7719,6.7759,6.7819,6.7839,6.7859,6.7879,6.7925,6.7979,6.8019,6.8024,6.8044,6.8044,6.8127,6.8294,6.8461,6.8561,6.7993,6.7079,6.5394,6.3733,6.2752,6.1724,6.1052,6.0824,6.1009,6.1348,6.1625,6.1902,6.2117,6.2245,6.2245,6.2245,5.8558,5.79,5.79,5.79,5.79,5.79,5.79,5.79,5.79,5.8001,5.8084,5.8069,5.8558,5.9047,5.9182,5.9554,5.9877,6.0013,5.9844,5.9844,5.9844,5.9844,5.9877,5.9742,5.9404,5.834,5.8407,5.8407,5.8373,5.822,5.8509,5.8306,5.8287,5.8457,5.834,5.8272,5.8441,5.8475,5.8509,5.8441,5.8389,5.8389,5.8727,5.9167,5.9607,6.0047,6.0216,6.0317,6.0385,6.0419,6.0452,6.0452,6.0588,6.0858,6.14,6.1467,6.1637,6.1946,6.2309,6.212,6.2115,6.2712,6.2901,6.2901,6.2989,6.3115,6.3314,6.3707,6.4221,6.4927,6.5753,6.5979,6.6324,6.6773,6.7034,6.7482,6.7891,6.7925,6.7856,6.795,6.787,6.7885,6.7945,6.7984,6.8044,6.8083,6.8083,6.8118,6.8118,6.8118,6.8118,6.8098,6.8083,6.8428,6.8497,6.8946,6.9029,6.9147,6.9402,6.8866,6.8203,6.6463,6.4666,6.315,6.2152,6.1495,6.1286,6.1717,6.1994,6.2117,6.2425,6.2829,6.2952,6.2952,6.2952,5.8592,5.79,5.79,5.79,5.79,5.79,5.7934,5.79,5.7967,5.8254,5.8795,5.8829,5.9235,5.9776,5.9911,6.0047,6.025,6.0351,6.0283,6.0283,6.0283,6.0283,6.0351,6.0385,6.008,5.9844,5.9742,5.9742,5.9607,5.9742,5.9471,5.9641,5.9607,5.9573,5.9539,5.9708,5.9505,5.9438,5.9471,5.9505,5.9505,5.9607,5.9674,5.9945,6.025,6.0588,6.1028,6.1129,6.1366,6.1941,6.2028,6.1941,6.1825,6.1569,6.1738,6.2076,6.211,6.2304,6.2712,6.2639,6.2687,6.3007,6.3542,6.3884,6.3903,6.4068,6.435,6.4965,6.5359,6.5753,6.5876,6.6516,6.6807,6.7172,6.7517,6.7876,6.8049,6.8044,6.8024,6.8064,6.8044,6.8024,6.8064,6.8083,6.8083,6.8083,6.8083,6.8221,6.8359,6.8256,6.8187,6.8152,6.8083,6.8566,6.9,6.9656,7.0015,7.0009,7.0038,6.9586,6.8672,6.7205,6.5626,6.4366,6.3047,6.2081,6.2117,6.2425,6.2737,6.2952,6.3291,6.3598,6.3629,6.366,6.3629,5.8896,5.7934,5.79,5.79,5.79,5.79,5.8118,5.8457,5.849,5.8896,5.9404,5.9607,6.0013,6.0554,6.0723,6.0892,6.1163,6.1298,6.1298,6.1264,6.1298,6.1298,6.1231,6.1231,6.1298,6.1298,6.1284,6.0791,6.0182,6.0047,6.0182,6.008,6.008,6.008,6.008,6.0013,6.0148,6.0148,6.0148,6.0148,6.0182,6.0452,6.0689,6.0791,6.1095,6.1467,6.1738,6.1873,6.2009,6.2299,6.2381,6.2415,6.2415,6.2516,6.2618,6.2854,6.2705,6.2919,6.3523,6.3621,6.3694,6.4331,6.4712,6.4849,6.4903,6.5029,6.5435,6.6067,6.642,6.6654,6.7068,6.7344,6.7532,6.7601,6.7876,6.8049,6.8083,6.8083,6.8152,6.8187,6.8167,6.8167,6.8064,6.8083,6.8083,6.8083,6.8118,6.8359,6.867,6.8566,6.8532,6.8946,6.9049,6.9325,6.9828,7.0277,7.0863,7.0925,7.0774,7.0315,6.9457,6.8072,6.7037,6.5925,6.4565,6.2889,6.2702,6.2948,6.3352,6.3783,6.4029,6.4241,6.4306,6.4368,6.4275,5.9099,5.79,5.79,5.79,5.7934,5.8084,5.8457,5.8945,5.9148,5.9656,6.0283,6.0385,6.0791,6.1366,6.1569,6.1839,6.2381,6.2313,6.2279,6.2265,6.2245,6.2313,6.2381,6.2415,6.2245,6.211,6.2197,6.1791,6.096,6.0757,6.0622,6.0757,6.0622,6.0554,6.0689,6.0825,6.0554,6.0554,6.0554,6.0554,6.0723,6.1163,6.1535,6.1535,6.211,6.2313,6.2333,6.2333,6.2448,6.2618,6.2719,6.2719,6.2942,6.3436,6.3828,6.3862,6.3286,6.3852,6.4443,6.4669,6.4727,6.5351,6.5748,6.5852,6.5955,6.6077,6.6411,6.6926,6.7206,6.7379,6.7773,6.8014,6.8049,6.8049,6.8014,6.8118,6.8187,6.8276,6.8517,6.8517,6.8428,6.8497,6.8601,6.8566,6.869,6.9084,6.9153,6.9187,6.9394,6.9153,6.9256,6.9911,7.0256,7.0449,7.0725,7.0932,7.145,7.1739,7.1565,7.1217,7.0243,6.913,6.7972,6.6658,6.535,6.3884,6.3691,6.3533,6.3995,6.4395,6.4672,6.4764,6.4672,6.4672,6.4641,5.866,5.79,5.79,5.79,5.8035,5.8592,5.8912,5.9148,5.9742,6.0419,6.1163,6.1197,6.1535,6.2042,6.2212,6.2279,6.2381,6.2415,6.2415,6.2415,6.2415,6.2415,6.2415,6.2415,6.2415,6.2415,6.2415,6.2367,6.1907,6.1873,6.2009,6.1941,6.1873,6.2062,6.1806,6.1772,6.211,6.2096,6.2042,6.2009,6.2009,6.211,6.2197,6.2265,6.2313,6.2415,6.2434,6.2502,6.2719,6.324,6.3342,6.37,6.4228,6.4578,6.508,6.527,6.5141,6.4872,6.5495,6.5471,6.5607,6.6105,6.6473,6.6768,6.6921,6.7231,6.7389,6.696,6.7517,6.7876,6.8049,6.8118,6.8118,6.8221,6.8359,6.8325,6.8325,6.8966,6.9104,6.9242,6.9291,6.938,6.9449,6.938,6.938,6.9828,7.0139,7.0139,7.0242,7.0084,6.9877,7.0498,7.1174,7.1381,7.145,7.1691,7.1898,7.2347,7.2192,7.1829,7.0467,6.9225,6.8117,6.6823,6.5601,6.4874,6.4599,6.4529,6.4727,6.4764,6.4826,6.4857,6.4888,6.4888,6.4888,5.9201,5.8524,5.8524,5.8524,5.8558,5.8896,5.952,6.0283,6.0655,6.1197,6.1806,6.1907,6.211,6.2381,6.2415,6.2381,6.2415,6.2415,6.2415,6.2415,6.2415,6.2415,6.2415,6.2415,6.2415,6.2415,6.2415,6.2415,6.2415,6.2415,6.2415,6.2415,6.2415,6.2333,6.2415,6.2415,6.2381,6.2347,6.2381,6.2381,6.2415,6.2415,6.2415,6.2415,6.2415,6.2415,6.2482,6.2888,6.3125,6.3579,6.3835,6.4241,6.4654,6.5155,6.5759,6.6125,6.6485,6.6625,6.6798,6.6426,6.6563,6.699,6.7394,6.7601,6.7704,6.7842,6.8014,6.7669,6.7876,6.8083,6.8256,6.8532,6.8724,6.8862,6.9,6.9207,6.9256,6.9566,6.9966,7.007,7.0242,7.0311,7.038,7.0277,7.0208,7.0346,7.0622,7.0691,7.107,7.1484,7.1208,7.1015,7.1657,7.2174,7.2243,7.2347,7.2278,7.2554,7.2554,7.1879,7.036,6.9097,6.8172,6.7227,6.6106,6.5607,6.5378,6.5156,6.5016,6.4967,6.4888,6.4888,6.4888,6.4888,6.4888,6.0351,5.9844,5.9419,5.9182,5.9047,5.9385,6.0216,6.1231,6.1501,6.1873,6.2299,6.2381,6.2381,6.2415,6.2415,6.2415,6.2415,6.2415,6.2415,6.2415,6.2415,6.2415,6.2415,6.2415,6.2415,6.2415,6.2415,6.2415,6.2415,6.2415,6.2415,6.2415,6.2415,6.2415,6.2415,6.2415,6.2415,6.2415,6.2415,6.2415,6.2415,6.2415,6.2415,6.2415,6.2415,6.2415,6.2516,6.3091,6.3477,6.3917,6.4512,6.5006,6.5481,6.6072,6.6534,6.6907,6.7327,6.7619,6.7556,6.7369,6.7497,6.7817,6.8083,6.798,6.8014,6.8083,6.8083,6.798,6.8379,6.8394,6.8532,6.9118,6.9483,6.9725,6.9932,7.0208,7.0484,7.0587,7.0725,7.0829,7.1036,7.1394,7.1381,7.1208,7.1105,7.1036,7.1105,7.1208,7.1691,7.2278,7.214,7.176,7.2036,7.2519,7.2588,7.2657,7.2692,7.2692,7.2692,7.209,7.0657,6.9609,6.874,6.7733,6.6665,6.6032,6.565,6.5433,6.5242,6.5163,6.5026,6.4943,6.4888,6.4888,6.4888,6.2212,6.2042,6.0622,5.9723,5.9216,6.0535,6.1231,6.1569,6.211,6.2381,6.2502,6.2482,6.2603,6.2434,6.2482,6.2482,6.2415,6.2415,6.2415,6.2415,6.2415,6.2415,6.2415,6.2415,6.2415,6.2415,6.2415,6.2415,6.2415,6.2415,6.2415,6.2415,6.2415,6.2415,6.2415,6.2415,6.2415,6.2415,6.2415,6.2415,6.2415,6.2415,6.2415,6.2415,6.2415,6.2434,6.2468,6.3226,6.3951,6.4512,6.5263,6.5955,6.6507,6.6937,6.7297,6.7513,6.7747,6.8004,6.7901,6.7921,6.7995,6.8049,6.8083,6.8083,6.8083,6.8083,6.8083,6.8152,6.8621,6.9035,6.9311,6.9828,7.0277,7.0449,7.0656,7.0863,7.1105,7.1346,7.1429,7.1588,7.1795,7.2071,7.2174,7.1933,7.1898,7.1829,7.1864,7.1967,7.2105,7.2554,7.2588,7.245,7.2485,7.2657,7.2657,7.2692,7.2692,7.2692,7.2692,7.2124,7.1199,7.0253,6.9466,6.8395,6.7401,6.6628,6.5889,6.5673,6.5456,6.5297,6.5163,6.497,6.4888,6.4888,6.4888,6.2415,6.24,6.2245,6.1772,6.1163,6.2212,6.2632,6.2787,6.3429,6.3463,6.3125,6.3497,6.3226,6.2739,6.2888,6.2787,6.2468,6.2415,6.2415,6.2415,6.2415,6.2415,6.2415,6.2415,6.2415,6.2415,6.2415,6.2415,6.2415,6.2415,6.2415,6.2415,6.2415,6.2415,6.2415,6.2415,6.2415,6.2415,6.2415,6.2415,6.2415,6.2415,6.2415,6.2415,6.2415,6.2685,6.3091,6.3802,6.4512,6.5263,6.6112,6.6711,6.7195,6.7496,6.7699,6.7819,6.7984,6.8064,6.8083,6.8083,6.8083,6.8083,6.8083,6.8083,6.8083,6.8118,6.8083,6.8325,6.8897,6.938,6.9449,7.0311,7.1084,7.1208,7.1381,7.1553,7.1726,7.1933,7.2036,7.2105,7.2278,7.2519,7.2588,7.2588,7.2588,7.2588,7.2657,7.2692,7.2692,7.2692,7.2692,7.2692,7.2692,7.2692,7.2692,7.2692,7.2692,7.2692,7.2692,7.2167,7.1588,7.1154,7.0322,6.9226,6.8304,6.7573,6.6858,6.6125,6.5673,6.5351,6.5136,6.4943,6.4888,6.4888,6.4888,6.2854,6.3125,6.3815,6.3599,6.2888,6.3531,6.3815,6.3917,6.4309,6.4343,6.3849,6.414,6.3903,6.3294,6.2956,6.3125,6.2719,6.255,6.2448,6.2415,6.2415,6.2415,6.2415,6.2415,6.2415,6.2415,6.2415,6.2415,6.2415,6.2415,6.2415,6.2415,6.2415,6.2415,6.2415,6.2415,6.2415,6.2415,6.2415,6.2415,6.2415,6.2415,6.2415,6.2454,6.2493,6.2905,6.3535,6.4287,6.5094,6.5882,6.6644,6.7223,6.7469,6.7632,6.7819,6.7919,6.7984,6.8083,6.8083,6.8083,6.8083,6.8083,6.8083,6.8083,6.8118,6.829,6.8566,6.8601,6.9207,6.969,6.9828,7.0877,7.1636,7.1795,7.2071,7.2278,7.2312,7.245,7.2519,7.2554,7.2692,7.2692,7.2692,7.2692,7.2692,7.2692,7.2692,7.2692,7.2692,7.2692,7.2692,7.2692,7.2692,7.2692,7.2692,7.2692,7.2692,7.2692,7.2649,7.248,7.2016,7.161,7.1154,7.0276,6.937,6.8593,6.7744,6.6904,6.6098,6.5351,6.5136,6.4943,6.4888,6.4888,6.4888,6.3849,6.4613,6.5311,6.4783,6.3748,6.4309,6.4613,6.4613,6.4749,6.4715,6.4546,6.412,6.4086,6.4072,6.3328,6.3125,6.3125,6.2685,6.2415,6.2415,6.2415,6.2415,6.2415,6.2415,6.2415,6.2415,6.2415,6.2415,6.2415,6.2415,6.2415,6.2415,6.2415,6.2415,6.2415,6.2415,6.2415,6.2415,6.2415,6.2415,6.2415,6.2434,6.24,6.2479,6.2557,6.2989,6.3985,6.4662,6.5471,6.6432,6.7073,6.7502,6.7699,6.7779,6.7885,6.8044,6.8064,6.8083,6.8083,6.8083,6.8152,6.8152,6.8187,6.8325,6.8359,6.8759,6.9276,6.9291,6.9932,7.0601,7.1084,7.1532,7.2002,7.2312,7.2588,7.2692,7.2692,7.2692,7.2692,7.2692,7.2692,7.2692,7.2692,7.2692,7.2692,7.2692,7.2692,7.2692,7.2692,7.2692,7.2692,7.2692,7.2692,7.2692,7.2692,7.2692,7.2692,7.2692,7.2649,7.2501,7.2296,7.1939,7.1522,7.1086,7.0415,6.9561,6.8618,6.7701,6.6649,6.5592,6.5191,6.497,6.4943,6.4888,6.4888,6.4187,6.5324,6.5615,6.5696,6.5709,6.5912,6.5797,6.548,6.5764,6.5797,6.5493,6.5493,6.5121,6.4613,6.414,6.37,6.3342,6.2753,6.2415,6.2415,6.2415,6.2415,6.2415,6.2415,6.2415,6.2415,6.2415,6.2415,6.2415,6.2415,6.2415,6.2415,6.2415,6.2415,6.2415,6.2415,6.2415,6.2415,6.2415,6.2415,6.2434,6.24,6.2459,6.2576,6.2673,6.3315,6.4488,6.503,6.5807,6.6839,6.7481,6.7705,6.7839,6.7899,6.8004,6.8083,6.8083,6.8083,6.8256,6.8428,6.8601,6.8497,6.8532,6.8793,6.8966,6.9621,6.9932,7.0139,7.0636,7.1187,7.1429,7.2036,7.245,7.2519,7.2692,7.2692,7.2692,7.2692,7.2692,7.2692,7.2692,7.2692,7.2692,7.2692,7.2692,7.2692,7.2692,7.2692,7.2692,7.2692,7.2692,7.2692,7.2692,7.2692,7.2692,7.2692,7.2692,7.2692,7.2692,7.2649,7.2403,7.221,7.2167,7.1895,7.1221,7.0484,6.9466,6.8346,6.6878,6.5884,6.5406,6.5026,6.4915,6.4888,6.4888,6.458,6.5717,6.5967,6.6339,6.6757,6.6791,6.6508,6.6203,6.6588,6.6508,6.6203,6.6339,6.6102,6.5358,6.4783,6.4444,6.3781,6.3159,6.2482,6.2482,6.2415,6.2415,6.2415,6.2454,6.2415,6.2434,6.2454,6.2415,6.2415,6.2415,6.2415,6.2415,6.2434,6.2415,6.2415,6.2415,6.2415,6.2434,6.244,6.2518,6.2537,6.2596,6.2693,6.2789,6.3022,6.3527,6.4615,6.5412,6.5999,6.7087,6.7648,6.7885,6.7959,6.8019,6.8083,6.8083,6.8083,6.8359,6.8946,6.8966,6.9104,6.9138,6.9276,6.9414,6.9621,7.0104,7.0484,7.0808,7.1256,7.1601,7.1967,7.2554,7.245,7.2485,7.2692,7.2692,7.2692,7.2692,7.2692,7.2692,7.2692,7.2692,7.2692,7.2692,7.2692,7.2692,7.2692,7.2692,7.2692,7.2692,7.2692,7.2692,7.2692,7.2692,7.2692,7.2692,7.2692,7.2692,7.2692,7.2692,7.2671,7.2501,7.2628,7.2692,7.2025,7.1254,7.0196,6.8951,6.7337,6.6147,6.5456,6.5163,6.4943,6.4888,6.4888,6.5053,6.5797,6.6508,6.6757,6.6791,6.6896,6.6862,6.6779,6.6791,6.6757,6.6757,6.6102,6.6102,6.6339,6.5256,6.458,6.4241,6.3632,6.3074,6.2595,6.2479,6.2518,6.2669,6.2722,6.2911,6.2741,6.2833,6.3277,6.2698,6.2858,6.2838,6.2669,6.2887,6.2814,6.2761,6.2848,6.2736,6.2644,6.2615,6.2693,6.2731,6.2847,6.3026,6.319,6.3422,6.405,6.49,6.565,6.6366,6.7128,6.7719,6.796,6.8083,6.8083,6.8083,6.8152,6.8221,6.9118,6.9794,6.969,6.9932,7.007,6.9828,6.9966,7.0277,7.0725,7.1139,7.1415,7.176,7.214,7.2519,7.2312,7.2105,7.2347,7.2657,7.2692,7.2692,7.2692,7.2692,7.2692,7.2692,7.2692,7.2692,7.2692,7.2692,7.2692,7.2692,7.2692,7.2692,7.2692,7.2692,7.2692,7.2692,7.2692,7.2692,7.2692,7.2692,7.2692,7.2692,7.2692,7.2692,7.2692,7.2692,7.2692,7.2692,7.1917,7.0335,6.8927,6.7592,6.6617,6.5965,6.5324,6.5136,6.4943,6.4888,6.5831,6.6487,6.669,6.6791,6.6896,6.7407,6.7325,6.6854,6.6791,6.6791,6.6791,6.6609,6.6763,6.6656,6.529,6.4844,6.42,6.3529,6.3168,6.2953,6.309,6.3321,6.3648,6.4014,6.4003,6.417,6.4419,6.4622,6.464,6.4364,6.4019,6.3984,6.4027,6.3846,6.383,6.3971,6.3509,6.3105,6.3075,6.2987,6.306,6.319,6.349,6.3878,6.4141,6.4855,6.5884,6.637,6.7049,6.7738,6.798,6.8118,6.8083,6.8118,6.8221,6.8966,6.9414,7.0001,7.038,7.0691,7.0932,7.1105,7.0932,7.0946,7.1277,7.1553,7.1933,7.2071,7.2174,7.2485,7.2588,7.245,7.2312,7.2485,7.2692,7.2692,7.2692,7.2692,7.2692,7.2692,7.2692,7.2692,7.2692,7.2692,7.2692,7.2692,7.2692,7.2692,7.2692,7.2692,7.2692,7.2692,7.2692,7.2692,7.2692,7.2692,7.2692,7.2692,7.2692,7.2692,7.2692,7.2692,7.2692,7.2692,7.2692,7.1598,6.9976,6.8903,6.8239,6.7388,6.6701,6.5911,6.5324,6.5269,6.5026,6.6804,6.7682,6.7756,6.7756,6.7836,6.8254,6.8157,6.7796,6.7756,6.7736,6.7756,6.7796,6.7756,6.7713,6.6961,6.643,6.6052,6.5581,6.5132,6.4807,6.4268,6.4905,6.5405,6.5581,6.558,6.5777,6.597,6.6074,6.6163,6.595,6.5563,6.5549,6.5613,6.5492,6.5404,6.5451,6.5158,6.4493,6.3954,6.365,6.3646,6.3928,6.4542,6.4924,6.5203,6.6125,6.6945,6.7241,6.7881,6.8448,6.8566,6.8739,6.8877,6.9104,6.9394,7.007,7.0139,7.076,7.1277,7.136,7.1636,7.1864,7.1933,7.1967,7.1864,7.1967,7.2243,7.245,7.2588,7.2692,7.2692,7.2692,7.2692,7.2692,7.2692,7.2692,7.2692,7.2692,7.2692,7.2692,7.2692,7.2692,7.2692,7.2692,7.2692,7.2692,7.2692,7.2692,7.2692,7.2692,7.2692,7.2692,7.2692,7.2692,7.2692,7.2692,7.2692,7.2692,7.2692,7.2692,7.2692,7.2692,7.2692,7.2692,7.2692,7.151,7.0335,6.9883,6.9289,6.8453,6.7772,6.7265,6.6612,6.6072,6.57,6.7917,6.9128,6.9183,6.9128,6.931,6.931,6.9328,6.9366,6.9366,6.9275,6.9163,6.9128,6.8998,6.8742,6.8376,6.8047,6.7573,6.7102,6.6704,6.6989,6.6406,6.662,6.7005,6.7183,6.7163,6.7182,6.7323,6.7614,6.7305,6.7183,6.7236,6.7253,6.7464,6.755,6.769,6.7534,6.7341,6.6968,6.6058,6.5481,6.5088,6.5417,6.6068,6.6359,6.6807,6.7379,6.7571,6.8039,6.872,6.9223,6.9694,7.005,7.0188,7.0589,7.0998,7.107,7.1001,7.1484,7.1933,7.2002,7.2105,7.2381,7.2692,7.2554,7.2381,7.2243,7.2416,7.2588,7.2692,7.2692,7.2692,7.2692,7.2692,7.2692,7.2692,7.2692,7.2692,7.2692,7.2692,7.2692,7.2692,7.2692,7.2692,7.2692,7.2692,7.2692,7.2692,7.2692,7.2933,7.2933,7.2864,7.283,7.2726,7.2726,7.2692,7.2692,7.2692,7.2692,7.2761,7.2692,7.2692,7.2692,7.2692,7.2692,7.2649,7.1982,7.1075,7.0733,7.0286,6.9637,6.9034,6.8696,6.8129,6.7696,6.6591,6.8877,6.9183,6.9183,6.9511,7.0095,7.013,7.044,7.096,7.0924,7.0267,6.9348,6.9238,6.9257,6.9349,6.8909,6.8575,6.831,6.824,6.7674,6.7654,6.7585,6.8122,6.8532,6.8713,6.8706,6.8902,6.9086,6.9284,6.9063,6.8953,6.9149,6.9677,6.9855,6.9983,7.025,7.0017,6.978,6.949,6.8929,6.7804,6.708,6.6846,6.7118,6.8024,6.8823,6.9199,6.9599,7.0299,7.0733,7.1116,7.1631,7.1661,7.1326,7.1863,7.1837,7.1649,7.1933,7.2313,7.2416,7.245,7.2485,7.2554,7.2692,7.2692,7.2623,7.2485,7.2485,7.2623,7.2692,7.2692,7.2692,7.2692,7.2692,7.2692,7.2692,7.2692,7.2692,7.2692,7.2692,7.2692,7.2692,7.2692,7.2692,7.2726,7.2692,7.2692,7.2692,7.283,7.3416,7.3589,7.3313,7.3209,7.2864,7.2795,7.2795,7.3037,7.3188,7.3071,7.3106,7.2933,7.2795,7.3002,7.3188,7.283,7.2544,7.2311,7.211,7.166,7.1208,7.0861,7.0789,7.0638,7.0715,7.0403,6.8601,6.9937,7.0198,7.0233,7.0438,7.0845,7.0894,7.1123,7.1447,7.1494,7.1042,7.0302,7.0216,7.0198,7.0198,6.977,6.9487,6.9433,6.9286,6.9501,6.9424,6.9163,6.964,6.9997,7.0174,7.0238,7.0434,7.1044,7.1234,7.1017,7.1396,7.1761,7.2086,7.2247,7.2424,7.2683,7.252,7.2223,7.1964,7.166,7.0842,6.9704,6.9825,6.9828,7.0721,7.1157,7.1469,7.1798,7.2458,7.2764,7.3035,7.3527,7.3509,7.3337,7.3564,7.3284,7.2913,7.291,7.3074,7.2825,7.2734,7.2734,7.2713,7.2692,7.2692,7.2692,7.2554,7.2588,7.2692,7.2692,7.2692,7.2692,7.2692,7.2692,7.2692,7.2692,7.2692,7.2692,7.2692,7.2692,7.2692,7.2692,7.2692,7.283,7.3209,7.3209,7.3395,7.3291,7.3602,7.4085,7.4292,7.4016,7.3843,7.3705,7.3382,7.3347,7.3636,7.3947,7.3774,7.3498,7.374,7.3843,7.3809,7.3705,7.3567,7.3503,7.3494,7.3227,7.2859,7.2881,7.2788,7.2793,7.2784,7.282,7.261,7.0847,7.0894,7.1463,7.1463,7.1479,7.1494,7.1479,7.1479,7.1494,7.1494,7.1494,7.1384,7.1368,7.1494,7.1494,7.1494,7.1494,7.1291,7.0762,7.1135,7.1219,7.1187,7.0954,7.1078,7.1483,7.1608,7.1933,7.2456,7.2999,7.3309,7.3421,7.3535,7.4247,7.4566,7.4722,7.4759,7.4493,7.4063,7.4038,7.3865,7.3714,7.3544,7.3386,7.2888,7.3066,7.3583,7.4011,7.4029,7.4244,7.4548,7.4869,7.5137,7.5083,7.4923,7.4887,7.4447,7.4101,7.385,7.3612,7.3162,7.2991,7.2846,7.2755,7.2734,7.2734,7.2755,7.2734,7.2734,7.2692,7.2692,7.2692,7.2692,7.2692,7.2692,7.2692,7.2692,7.2692,7.2692,7.2726,7.2726,7.2761,7.283,7.283,7.314,7.3554,7.3843,7.4085,7.4339,7.4718,7.5007,7.5063,7.4947,7.505,7.5098,7.4705,7.4119,7.4223,7.458,7.4442,7.427,7.4649,7.4822,7.4477,7.4408,7.458,7.4562,7.4406,7.4456,7.426,7.4352,7.4354,7.441,7.4276,7.4114,7.3721,7.2621,7.1368,7.1494,7.1494,7.1494,7.1494,7.1494,7.1494,7.1494,7.1494,7.1494,7.1494,7.1494,7.1494,7.1494,7.1494,7.1494,7.1494,7.1494,7.1494,7.1479,7.1494,7.1494,7.1748,7.2255,7.2818,7.3269,7.3559,7.3776,7.4421,7.4409,7.459,7.5295,7.5505,7.5916,7.6536,7.6178,7.5713,7.5766,7.5708,7.5523,7.5591,7.5152,7.4297,7.4386,7.4707,7.4796,7.4941,7.5454,7.5734,7.608,7.6403,7.632,7.6133,7.5912,7.5494,7.4975,7.479,7.4321,7.3913,7.3637,7.3512,7.3094,7.3074,7.295,7.2929,7.2825,7.2818,7.2692,7.2692,7.2692,7.2692,7.2692,7.2692,7.2692,7.2692,7.2692,7.2692,7.2761,7.283,7.3071,7.3313,7.3451,7.3671,7.4119,7.4615,7.4787,7.4925,7.5283,7.5822,7.5856,7.5822,7.6029,7.6235,7.5684,7.4994,7.4891,7.5098,7.5029,7.5063,7.5339,7.5339,7.4925,7.4925,7.5339,7.5201,7.4963,7.507,7.5428,7.5341,7.5344,7.5604,7.5631,7.5391,7.4833,7.3736]}]]